<?xml version="1.0" encoding="UTF-8" standalone="no" ?>
<gpx xmlns="http://www.topografix.com/GPX/1/1" xmlns:xsi="http://www.w3.org/2001/XMLSchema-instance" xsi:schemaLocation="http://www.topografix.com/GPX/1/1 http://www.topografix.com/GPX/1/1/gpx.xsd" version="1.1" creator="VisuGPX - https://www.visugpx.com">
  <metadata>
    <name>Sentier du littoral Argentière-Cabasson</name>
  </metadata>
  <trk>
    <name><![CDATA[Sentier du littoral Argentière-Cabasson_1]]></name>
    <trkseg>
      <trkpt lat="43.12175" lon="6.25996">
        <ele>2.4</ele>
        <time>2021-07-21T07:17:06Z</time>
      </trkpt>
      <trkpt lat="43.12171" lon="6.26015">
        <ele>1.8</ele>
        <time>2021-07-21T07:17:17Z</time>
      </trkpt>
      <trkpt lat="43.12169" lon="6.26027">
        <ele>1.4</ele>
        <time>2021-07-21T07:17:25Z</time>
      </trkpt>
      <trkpt lat="43.12168" lon="6.26031">
        <ele>1.4</ele>
        <time>2021-07-21T07:17:27Z</time>
      </trkpt>
      <trkpt lat="43.12164" lon="6.26044">
        <ele>1.8</ele>
        <time>2021-07-21T07:17:35Z</time>
      </trkpt>
      <trkpt lat="43.12163" lon="6.26058">
        <ele>1.8</ele>
        <time>2021-07-21T07:17:43Z</time>
      </trkpt>
      <trkpt lat="43.1216" lon="6.26074">
        <ele>1.6</ele>
        <time>2021-07-21T07:17:52Z</time>
      </trkpt>
      <trkpt lat="43.12159" lon="6.26089">
        <ele>1.6</ele>
        <time>2021-07-21T07:18:01Z</time>
      </trkpt>
      <trkpt lat="43.12158" lon="6.26102">
        <ele>1.2</ele>
        <time>2021-07-21T07:18:09Z</time>
      </trkpt>
      <trkpt lat="43.12158" lon="6.26118">
        <ele>1.2</ele>
        <time>2021-07-21T07:18:18Z</time>
      </trkpt>
      <trkpt lat="43.12157" lon="6.26134">
        <ele>1.4</ele>
        <time>2021-07-21T07:18:28Z</time>
      </trkpt>
      <trkpt lat="43.12156" lon="6.26147">
        <ele>1.2</ele>
        <time>2021-07-21T07:18:36Z</time>
      </trkpt>
      <trkpt lat="43.12156" lon="6.2616">
        <ele>0.8</ele>
        <time>2021-07-21T07:18:44Z</time>
      </trkpt>
      <trkpt lat="43.12156" lon="6.26164">
        <ele>0.8</ele>
        <time>2021-07-21T07:18:46Z</time>
      </trkpt>
      <trkpt lat="43.12156" lon="6.26178">
        <ele>1.2</ele>
        <time>2021-07-21T07:18:54Z</time>
      </trkpt>
      <trkpt lat="43.12155" lon="6.26195">
        <ele>0.8</ele>
        <time>2021-07-21T07:19:04Z</time>
      </trkpt>
      <trkpt lat="43.12155" lon="6.26209">
        <ele>0.6</ele>
        <time>2021-07-21T07:19:13Z</time>
      </trkpt>
      <trkpt lat="43.12154" lon="6.26228">
        <ele>0.8</ele>
        <time>2021-07-21T07:19:25Z</time>
      </trkpt>
      <trkpt lat="43.12154" lon="6.2623">
        <ele>0.8</ele>
        <time>2021-07-21T07:19:27Z</time>
      </trkpt>
      <trkpt lat="43.12154" lon="6.26238">
        <ele>0.8</ele>
        <time>2021-07-21T07:19:32Z</time>
      </trkpt>
      <trkpt lat="43.12152" lon="6.26252">
        <ele>0.6</ele>
        <time>2021-07-21T07:19:42Z</time>
      </trkpt>
      <trkpt lat="43.12151" lon="6.26269">
        <ele>0.8</ele>
        <time>2021-07-21T07:19:52Z</time>
      </trkpt>
      <trkpt lat="43.1215" lon="6.26281">
        <ele>0.6</ele>
        <time>2021-07-21T07:20:00Z</time>
      </trkpt>
      <trkpt lat="43.1215" lon="6.26284">
        <ele>0.8</ele>
        <time>2021-07-21T07:20:03Z</time>
      </trkpt>
      <trkpt lat="43.1215" lon="6.26284">
        <ele>1</ele>
        <time>2021-07-21T07:20:06Z</time>
      </trkpt>
      <trkpt lat="43.12149" lon="6.26286">
        <ele>1.6</ele>
        <time>2021-07-21T07:22:01Z</time>
      </trkpt>
      <trkpt lat="43.12149" lon="6.26291">
        <ele>1.4</ele>
        <time>2021-07-21T07:22:08Z</time>
      </trkpt>
      <trkpt lat="43.1215" lon="6.26308">
        <ele>1.6</ele>
        <time>2021-07-21T07:22:18Z</time>
      </trkpt>
      <trkpt lat="43.12151" lon="6.26324">
        <ele>1.2</ele>
        <time>2021-07-21T07:22:27Z</time>
      </trkpt>
      <trkpt lat="43.12151" lon="6.26339">
        <ele>1.2</ele>
        <time>2021-07-21T07:22:36Z</time>
      </trkpt>
      <trkpt lat="43.12151" lon="6.26357">
        <ele>1.4</ele>
        <time>2021-07-21T07:22:47Z</time>
      </trkpt>
      <trkpt lat="43.12151" lon="6.26369">
        <ele>1.4</ele>
        <time>2021-07-21T07:22:55Z</time>
      </trkpt>
      <trkpt lat="43.1215" lon="6.26387">
        <ele>1.6</ele>
        <time>2021-07-21T07:23:06Z</time>
      </trkpt>
      <trkpt lat="43.12151" lon="6.26407">
        <ele>1.2</ele>
        <time>2021-07-21T07:23:17Z</time>
      </trkpt>
      <trkpt lat="43.12151" lon="6.26422">
        <ele>1.2</ele>
        <time>2021-07-21T07:23:27Z</time>
      </trkpt>
      <trkpt lat="43.12153" lon="6.26435">
        <ele>1.2</ele>
        <time>2021-07-21T07:23:35Z</time>
      </trkpt>
      <trkpt lat="43.12153" lon="6.26448">
        <ele>1</ele>
        <time>2021-07-21T07:23:44Z</time>
      </trkpt>
      <trkpt lat="43.12153" lon="6.26459">
        <ele>1.2</ele>
        <time>2021-07-21T07:23:53Z</time>
      </trkpt>
      <trkpt lat="43.12153" lon="6.26471">
        <ele>0.6</ele>
        <time>2021-07-21T07:24:01Z</time>
      </trkpt>
      <trkpt lat="43.12152" lon="6.26485">
        <ele>0.6</ele>
        <time>2021-07-21T07:24:09Z</time>
      </trkpt>
      <trkpt lat="43.12151" lon="6.26491">
        <ele>0.4</ele>
        <time>2021-07-21T07:24:13Z</time>
      </trkpt>
      <trkpt lat="43.12151" lon="6.26501">
        <ele>0.6</ele>
        <time>2021-07-21T07:24:19Z</time>
      </trkpt>
      <trkpt lat="43.12152" lon="6.26511">
        <ele>0.2</ele>
        <time>2021-07-21T07:24:26Z</time>
      </trkpt>
      <trkpt lat="43.12153" lon="6.26521">
        <ele>0.2</ele>
        <time>2021-07-21T07:24:34Z</time>
      </trkpt>
      <trkpt lat="43.12152" lon="6.26534">
        <ele>0.2</ele>
        <time>2021-07-21T07:24:42Z</time>
      </trkpt>
      <trkpt lat="43.12151" lon="6.26549">
        <ele>0.2</ele>
        <time>2021-07-21T07:24:52Z</time>
      </trkpt>
      <trkpt lat="43.12148" lon="6.26562">
        <ele>1.8</ele>
        <time>2021-07-21T07:25:01Z</time>
      </trkpt>
      <trkpt lat="43.12147" lon="6.26565">
        <ele>1.8</ele>
        <time>2021-07-21T07:25:03Z</time>
      </trkpt>
      <trkpt lat="43.12146" lon="6.26571">
        <ele>1.8</ele>
        <time>2021-07-21T07:25:07Z</time>
      </trkpt>
      <trkpt lat="43.12142" lon="6.26582">
        <ele>1.4</ele>
        <time>2021-07-21T07:25:15Z</time>
      </trkpt>
      <trkpt lat="43.12139" lon="6.26592">
        <ele>2.6</ele>
        <time>2021-07-21T07:25:22Z</time>
      </trkpt>
      <trkpt lat="43.12139" lon="6.26594">
        <ele>2.9</ele>
        <time>2021-07-21T07:25:24Z</time>
      </trkpt>
      <trkpt lat="43.12139" lon="6.26601">
        <ele>-0.2</ele>
        <time>2021-07-21T07:25:30Z</time>
      </trkpt>
      <trkpt lat="43.12139" lon="6.26604">
        <ele>0.8</ele>
        <time>2021-07-21T07:25:34Z</time>
      </trkpt>
      <trkpt lat="43.12138" lon="6.26604">
        <ele>1.2</ele>
        <time>2021-07-21T07:25:37Z</time>
      </trkpt>
      <trkpt lat="43.12138" lon="6.26605">
        <ele>1.2</ele>
        <time>2021-07-21T07:25:40Z</time>
      </trkpt>
      <trkpt lat="43.12139" lon="6.26609">
        <ele>1.6</ele>
        <time>2021-07-21T07:25:43Z</time>
      </trkpt>
      <trkpt lat="43.1214" lon="6.26613">
        <ele>2.6</ele>
        <time>2021-07-21T07:25:47Z</time>
      </trkpt>
      <trkpt lat="43.12141" lon="6.26614">
        <ele>4</ele>
        <time>2021-07-21T07:25:50Z</time>
      </trkpt>
      <trkpt lat="43.12142" lon="6.26616">
        <ele>5</ele>
        <time>2021-07-21T07:25:54Z</time>
      </trkpt>
      <trkpt lat="43.12142" lon="6.26619">
        <ele>6</ele>
        <time>2021-07-21T07:25:57Z</time>
      </trkpt>
      <trkpt lat="43.1214" lon="6.2662">
        <ele>6.6</ele>
        <time>2021-07-21T07:25:59Z</time>
      </trkpt>
      <trkpt lat="43.12139" lon="6.26622">
        <ele>7.2</ele>
        <time>2021-07-21T07:26:01Z</time>
      </trkpt>
      <trkpt lat="43.12138" lon="6.26625">
        <ele>7.8</ele>
        <time>2021-07-21T07:26:04Z</time>
      </trkpt>
      <trkpt lat="43.12136" lon="6.26625">
        <ele>8.2</ele>
        <time>2021-07-21T07:26:06Z</time>
      </trkpt>
      <trkpt lat="43.12133" lon="6.26627">
        <ele>8.8</ele>
        <time>2021-07-21T07:26:11Z</time>
      </trkpt>
      <trkpt lat="43.12131" lon="6.26629">
        <ele>9.2</ele>
        <time>2021-07-21T07:26:14Z</time>
      </trkpt>
      <trkpt lat="43.12125" lon="6.26633">
        <ele>10.2</ele>
        <time>2021-07-21T07:26:24Z</time>
      </trkpt>
      <trkpt lat="43.12125" lon="6.26633">
        <ele>10.4</ele>
        <time>2021-07-21T07:26:25Z</time>
      </trkpt>
      <trkpt lat="43.12126" lon="6.26633">
        <ele>10.8</ele>
        <time>2021-07-21T07:26:38Z</time>
      </trkpt>
      <trkpt lat="43.12119" lon="6.26636">
        <ele>10.8</ele>
        <time>2021-07-21T07:26:48Z</time>
      </trkpt>
      <trkpt lat="43.12117" lon="6.26638">
        <ele>11.4</ele>
        <time>2021-07-21T07:26:54Z</time>
      </trkpt>
      <trkpt lat="43.12116" lon="6.26637">
        <ele>11.4</ele>
        <time>2021-07-21T07:26:58Z</time>
      </trkpt>
      <trkpt lat="43.12111" lon="6.26643">
        <ele>11.4</ele>
        <time>2021-07-21T07:27:12Z</time>
      </trkpt>
      <trkpt lat="43.12108" lon="6.26646">
        <ele>12</ele>
        <time>2021-07-21T07:27:15Z</time>
      </trkpt>
      <trkpt lat="43.12106" lon="6.26649">
        <ele>12.4</ele>
        <time>2021-07-21T07:27:18Z</time>
      </trkpt>
      <trkpt lat="43.12102" lon="6.26658">
        <ele>13.4</ele>
        <time>2021-07-21T07:27:25Z</time>
      </trkpt>
      <trkpt lat="43.12101" lon="6.26659">
        <ele>13.4</ele>
        <time>2021-07-21T07:27:26Z</time>
      </trkpt>
      <trkpt lat="43.12093" lon="6.26666">
        <ele>14</ele>
        <time>2021-07-21T07:27:37Z</time>
      </trkpt>
      <trkpt lat="43.12089" lon="6.26667">
        <ele>14.2</ele>
        <time>2021-07-21T07:27:41Z</time>
      </trkpt>
      <trkpt lat="43.12086" lon="6.26667">
        <ele>13.2</ele>
        <time>2021-07-21T07:27:45Z</time>
      </trkpt>
      <trkpt lat="43.12085" lon="6.26667">
        <ele>13</ele>
        <time>2021-07-21T07:27:46Z</time>
      </trkpt>
      <trkpt lat="43.12083" lon="6.26667">
        <ele>12.2</ele>
        <time>2021-07-21T07:27:49Z</time>
      </trkpt>
      <trkpt lat="43.1208" lon="6.26667">
        <ele>11</ele>
        <time>2021-07-21T07:27:53Z</time>
      </trkpt>
      <trkpt lat="43.1208" lon="6.26666">
        <ele>10.8</ele>
        <time>2021-07-21T07:27:54Z</time>
      </trkpt>
      <trkpt lat="43.1208" lon="6.26666">
        <ele>10.6</ele>
        <time>2021-07-21T07:27:55Z</time>
      </trkpt>
      <trkpt lat="43.1208" lon="6.26665">
        <ele>10.6</ele>
        <time>2021-07-21T07:27:57Z</time>
      </trkpt>
      <trkpt lat="43.12079" lon="6.26665">
        <ele>10.4</ele>
        <time>2021-07-21T07:28:00Z</time>
      </trkpt>
      <trkpt lat="43.12079" lon="6.26664">
        <ele>10</ele>
        <time>2021-07-21T07:28:08Z</time>
      </trkpt>
      <trkpt lat="43.12085" lon="6.26668">
        <ele>10</ele>
        <time>2021-07-21T07:28:17Z</time>
      </trkpt>
      <trkpt lat="43.12088" lon="6.26674">
        <ele>10</ele>
        <time>2021-07-21T07:28:27Z</time>
      </trkpt>
      <trkpt lat="43.12079" lon="6.26683">
        <ele>10</ele>
        <time>2021-07-21T07:28:38Z</time>
      </trkpt>
      <trkpt lat="43.12075" lon="6.26685">
        <ele>10</ele>
        <time>2021-07-21T07:28:42Z</time>
      </trkpt>
      <trkpt lat="43.12068" lon="6.26688">
        <ele>8.8</ele>
        <time>2021-07-21T07:28:49Z</time>
      </trkpt>
      <trkpt lat="43.12066" lon="6.26689">
        <ele>7.6</ele>
        <time>2021-07-21T07:28:52Z</time>
      </trkpt>
      <trkpt lat="43.1206" lon="6.26695">
        <ele>6.4</ele>
        <time>2021-07-21T07:28:59Z</time>
      </trkpt>
      <trkpt lat="43.1206" lon="6.26696">
        <ele>6.4</ele>
        <time>2021-07-21T07:29:00Z</time>
      </trkpt>
      <trkpt lat="43.12059" lon="6.26698">
        <ele>6</ele>
        <time>2021-07-21T07:29:02Z</time>
      </trkpt>
      <trkpt lat="43.12056" lon="6.26702">
        <ele>5.4</ele>
        <time>2021-07-21T07:29:06Z</time>
      </trkpt>
      <trkpt lat="43.12056" lon="6.26703">
        <ele>5.2</ele>
        <time>2021-07-21T07:29:08Z</time>
      </trkpt>
      <trkpt lat="43.12056" lon="6.26703">
        <ele>5</ele>
        <time>2021-07-21T07:29:10Z</time>
      </trkpt>
      <trkpt lat="43.12055" lon="6.26705">
        <ele>5</ele>
        <time>2021-07-21T07:29:12Z</time>
      </trkpt>
      <trkpt lat="43.12054" lon="6.26705">
        <ele>4.4</ele>
        <time>2021-07-21T07:29:16Z</time>
      </trkpt>
      <trkpt lat="43.12053" lon="6.26705">
        <ele>4</ele>
        <time>2021-07-21T07:29:17Z</time>
      </trkpt>
      <trkpt lat="43.12051" lon="6.26706">
        <ele>3</ele>
        <time>2021-07-21T07:29:22Z</time>
      </trkpt>
      <trkpt lat="43.12049" lon="6.26712">
        <ele>2.2</ele>
        <time>2021-07-21T07:29:29Z</time>
      </trkpt>
      <trkpt lat="43.12049" lon="6.26715">
        <ele>1.8</ele>
        <time>2021-07-21T07:29:31Z</time>
      </trkpt>
      <trkpt lat="43.12048" lon="6.26721">
        <ele>0.6</ele>
        <time>2021-07-21T07:29:36Z</time>
      </trkpt>
      <trkpt lat="43.12048" lon="6.26723">
        <ele>0.2</ele>
        <time>2021-07-21T07:29:38Z</time>
      </trkpt>
      <trkpt lat="43.12048" lon="6.26723">
        <ele>6.8</ele>
        <time>2021-07-21T07:29:39Z</time>
      </trkpt>
      <trkpt lat="43.12048" lon="6.26724">
        <ele>-0.4</ele>
        <time>2021-07-21T07:29:41Z</time>
      </trkpt>
      <trkpt lat="43.12049" lon="6.26726">
        <ele>-1.6</ele>
        <time>2021-07-21T07:29:44Z</time>
      </trkpt>
      <trkpt lat="43.1205" lon="6.26728">
        <ele>-2.6</ele>
        <time>2021-07-21T07:29:47Z</time>
      </trkpt>
      <trkpt lat="43.12051" lon="6.26728">
        <ele>-2.8</ele>
        <time>2021-07-21T07:29:48Z</time>
      </trkpt>
      <trkpt lat="43.12054" lon="6.26728">
        <ele>-3.8</ele>
        <time>2021-07-21T07:29:51Z</time>
      </trkpt>
      <trkpt lat="43.1206" lon="6.26731">
        <ele>-4.4</ele>
        <time>2021-07-21T07:29:59Z</time>
      </trkpt>
      <trkpt lat="43.12063" lon="6.2674">
        <ele>-4.8</ele>
        <time>2021-07-21T07:30:09Z</time>
      </trkpt>
      <trkpt lat="43.12063" lon="6.26743">
        <ele>-5</ele>
        <time>2021-07-21T07:30:11Z</time>
      </trkpt>
      <trkpt lat="43.12067" lon="6.26754">
        <ele>-3.6</ele>
        <time>2021-07-21T07:30:22Z</time>
      </trkpt>
      <trkpt lat="43.12067" lon="6.26755">
        <ele>-3.4</ele>
        <time>2021-07-21T07:30:23Z</time>
      </trkpt>
      <trkpt lat="43.12066" lon="6.26758">
        <ele>-3</ele>
        <time>2021-07-21T07:30:25Z</time>
      </trkpt>
      <trkpt lat="43.12066" lon="6.2676">
        <ele>-3</ele>
        <time>2021-07-21T07:30:27Z</time>
      </trkpt>
      <trkpt lat="43.12067" lon="6.26764">
        <ele>-2.6</ele>
        <time>2021-07-21T07:30:30Z</time>
      </trkpt>
      <trkpt lat="43.12069" lon="6.26766">
        <ele>-2.2</ele>
        <time>2021-07-21T07:30:33Z</time>
      </trkpt>
      <trkpt lat="43.12068" lon="6.26772">
        <ele>-1.6</ele>
        <time>2021-07-21T07:30:37Z</time>
      </trkpt>
      <trkpt lat="43.12068" lon="6.26775">
        <ele>-0.6</ele>
        <time>2021-07-21T07:30:42Z</time>
      </trkpt>
      <trkpt lat="43.12068" lon="6.26775">
        <ele>-0.2</ele>
        <time>2021-07-21T07:30:43Z</time>
      </trkpt>
      <trkpt lat="43.12068" lon="6.26776">
        <ele>13.6</ele>
        <time>2021-07-21T07:30:44Z</time>
      </trkpt>
      <trkpt lat="43.12068" lon="6.26776">
        <ele>0.4</ele>
        <time>2021-07-21T07:30:45Z</time>
      </trkpt>
      <trkpt lat="43.12068" lon="6.26777">
        <ele>1</ele>
        <time>2021-07-21T07:30:47Z</time>
      </trkpt>
      <trkpt lat="43.12069" lon="6.26778">
        <ele>1.4</ele>
        <time>2021-07-21T07:30:56Z</time>
      </trkpt>
      <trkpt lat="43.12072" lon="6.26784">
        <ele>2</ele>
        <time>2021-07-21T07:31:02Z</time>
      </trkpt>
      <trkpt lat="43.12075" lon="6.2679">
        <ele>3</ele>
        <time>2021-07-21T07:31:07Z</time>
      </trkpt>
      <trkpt lat="43.12078" lon="6.26793">
        <ele>3</ele>
        <time>2021-07-21T07:31:10Z</time>
      </trkpt>
      <trkpt lat="43.12082" lon="6.26797">
        <ele>3.6</ele>
        <time>2021-07-21T07:31:18Z</time>
      </trkpt>
      <trkpt lat="43.12083" lon="6.26797">
        <ele>3.6</ele>
        <time>2021-07-21T07:31:19Z</time>
      </trkpt>
      <trkpt lat="43.12084" lon="6.26796">
        <ele>3.4</ele>
        <time>2021-07-21T07:31:27Z</time>
      </trkpt>
      <trkpt lat="43.12091" lon="6.26803">
        <ele>2.2</ele>
        <time>2021-07-21T07:31:38Z</time>
      </trkpt>
      <trkpt lat="43.12092" lon="6.26806">
        <ele>1.8</ele>
        <time>2021-07-21T07:31:40Z</time>
      </trkpt>
      <trkpt lat="43.12095" lon="6.26813">
        <ele>0.8</ele>
        <time>2021-07-21T07:31:46Z</time>
      </trkpt>
      <trkpt lat="43.12096" lon="6.26817">
        <ele>-0.2</ele>
        <time>2021-07-21T07:31:50Z</time>
      </trkpt>
      <trkpt lat="43.12097" lon="6.26818">
        <ele>-0.4</ele>
        <time>2021-07-21T07:31:51Z</time>
      </trkpt>
      <trkpt lat="43.12104" lon="6.26825">
        <ele>-1.2</ele>
        <time>2021-07-21T07:32:00Z</time>
      </trkpt>
      <trkpt lat="43.12105" lon="6.26826">
        <ele>-1.2</ele>
        <time>2021-07-21T07:32:02Z</time>
      </trkpt>
      <trkpt lat="43.12106" lon="6.26828">
        <ele>-1.2</ele>
        <time>2021-07-21T07:32:04Z</time>
      </trkpt>
      <trkpt lat="43.12109" lon="6.26832">
        <ele>-1.2</ele>
        <time>2021-07-21T07:32:08Z</time>
      </trkpt>
      <trkpt lat="43.12114" lon="6.26838">
        <ele>-1.4</ele>
        <time>2021-07-21T07:32:15Z</time>
      </trkpt>
      <trkpt lat="43.12115" lon="6.2684">
        <ele>-1.6</ele>
        <time>2021-07-21T07:32:17Z</time>
      </trkpt>
      <trkpt lat="43.12116" lon="6.26843">
        <ele>-1.6</ele>
        <time>2021-07-21T07:32:19Z</time>
      </trkpt>
      <trkpt lat="43.12117" lon="6.26855">
        <ele>-2.2</ele>
        <time>2021-07-21T07:32:28Z</time>
      </trkpt>
      <trkpt lat="43.12116" lon="6.26856">
        <ele>-2.4</ele>
        <time>2021-07-21T07:32:31Z</time>
      </trkpt>
      <trkpt lat="43.12116" lon="6.26857">
        <ele>-2.4</ele>
        <time>2021-07-21T07:32:33Z</time>
      </trkpt>
      <trkpt lat="43.12118" lon="6.26859">
        <ele>-2.8</ele>
        <time>2021-07-21T07:32:37Z</time>
      </trkpt>
      <trkpt lat="43.12122" lon="6.2687">
        <ele>-2.8</ele>
        <time>2021-07-21T07:32:48Z</time>
      </trkpt>
      <trkpt lat="43.12121" lon="6.26876">
        <ele>-3.6</ele>
        <time>2021-07-21T07:32:57Z</time>
      </trkpt>
      <trkpt lat="43.1212" lon="6.26883">
        <ele>-4.8</ele>
        <time>2021-07-21T07:33:02Z</time>
      </trkpt>
      <trkpt lat="43.12119" lon="6.26893">
        <ele>-5.4</ele>
        <time>2021-07-21T07:33:08Z</time>
      </trkpt>
      <trkpt lat="43.1212" lon="6.26914">
        <ele>-5.4</ele>
        <time>2021-07-21T07:33:20Z</time>
      </trkpt>
      <trkpt lat="43.12123" lon="6.26935">
        <ele>-5.4</ele>
        <time>2021-07-21T07:33:34Z</time>
      </trkpt>
      <trkpt lat="43.12125" lon="6.26954">
        <ele>-5.8</ele>
        <time>2021-07-21T07:33:46Z</time>
      </trkpt>
      <trkpt lat="43.12125" lon="6.26957">
        <ele>-5.8</ele>
        <time>2021-07-21T07:33:48Z</time>
      </trkpt>
      <trkpt lat="43.12126" lon="6.26973">
        <ele>-5.4</ele>
        <time>2021-07-21T07:33:58Z</time>
      </trkpt>
      <trkpt lat="43.12127" lon="6.26987">
        <ele>-5.4</ele>
        <time>2021-07-21T07:34:06Z</time>
      </trkpt>
      <trkpt lat="43.12128" lon="6.27">
        <ele>-5.4</ele>
        <time>2021-07-21T07:34:14Z</time>
      </trkpt>
      <trkpt lat="43.12128" lon="6.27015">
        <ele>-5.6</ele>
        <time>2021-07-21T07:34:23Z</time>
      </trkpt>
      <trkpt lat="43.12128" lon="6.27029">
        <ele>-5.8</ele>
        <time>2021-07-21T07:34:31Z</time>
      </trkpt>
      <trkpt lat="43.12128" lon="6.27041">
        <ele>-5.8</ele>
        <time>2021-07-21T07:34:39Z</time>
      </trkpt>
      <trkpt lat="43.12128" lon="6.2705">
        <ele>-5.6</ele>
        <time>2021-07-21T07:34:45Z</time>
      </trkpt>
      <trkpt lat="43.12129" lon="6.27064">
        <ele>-5.6</ele>
        <time>2021-07-21T07:34:53Z</time>
      </trkpt>
      <trkpt lat="43.12129" lon="6.27074">
        <ele>-5.6</ele>
        <time>2021-07-21T07:34:59Z</time>
      </trkpt>
      <trkpt lat="43.12129" lon="6.27084">
        <ele>-5.4</ele>
        <time>2021-07-21T07:35:06Z</time>
      </trkpt>
      <trkpt lat="43.12127" lon="6.27093">
        <ele>-5.4</ele>
        <time>2021-07-21T07:35:12Z</time>
      </trkpt>
      <trkpt lat="43.12125" lon="6.27104">
        <ele>-6</ele>
        <time>2021-07-21T07:35:19Z</time>
      </trkpt>
      <trkpt lat="43.12127" lon="6.27116">
        <ele>-5.8</ele>
        <time>2021-07-21T07:35:26Z</time>
      </trkpt>
      <trkpt lat="43.12126" lon="6.27125">
        <ele>-6</ele>
        <time>2021-07-21T07:35:31Z</time>
      </trkpt>
      <trkpt lat="43.12125" lon="6.2713">
        <ele>-6</ele>
        <time>2021-07-21T07:35:34Z</time>
      </trkpt>
      <trkpt lat="43.12125" lon="6.27143">
        <ele>-5.8</ele>
        <time>2021-07-21T07:35:42Z</time>
      </trkpt>
      <trkpt lat="43.12125" lon="6.27158">
        <ele>-6</ele>
        <time>2021-07-21T07:35:51Z</time>
      </trkpt>
      <trkpt lat="43.12125" lon="6.27173">
        <ele>-5.6</ele>
        <time>2021-07-21T07:36:00Z</time>
      </trkpt>
      <trkpt lat="43.12125" lon="6.27186">
        <ele>-5.8</ele>
        <time>2021-07-21T07:36:08Z</time>
      </trkpt>
      <trkpt lat="43.12125" lon="6.27196">
        <ele>-6</ele>
        <time>2021-07-21T07:36:15Z</time>
      </trkpt>
      <trkpt lat="43.12125" lon="6.27208">
        <ele>-5.4</ele>
        <time>2021-07-21T07:36:22Z</time>
      </trkpt>
      <trkpt lat="43.12126" lon="6.27217">
        <ele>-5.2</ele>
        <time>2021-07-21T07:36:28Z</time>
      </trkpt>
      <trkpt lat="43.12126" lon="6.27219">
        <ele>-5.8</ele>
        <time>2021-07-21T07:36:31Z</time>
      </trkpt>
      <trkpt lat="43.12126" lon="6.27219">
        <ele>-5.8</ele>
        <time>2021-07-21T07:36:34Z</time>
      </trkpt>
      <trkpt lat="43.12126" lon="6.27226">
        <ele>-5.8</ele>
        <time>2021-07-21T07:36:43Z</time>
      </trkpt>
      <trkpt lat="43.12125" lon="6.27244">
        <ele>-5.6</ele>
        <time>2021-07-21T07:36:53Z</time>
      </trkpt>
      <trkpt lat="43.12126" lon="6.27256">
        <ele>-6.4</ele>
        <time>2021-07-21T07:37:01Z</time>
      </trkpt>
      <trkpt lat="43.12126" lon="6.27258">
        <ele>-5.8</ele>
        <time>2021-07-21T07:37:05Z</time>
      </trkpt>
      <trkpt lat="43.12126" lon="6.27258">
        <ele>-5.4</ele>
        <time>2021-07-21T07:37:07Z</time>
      </trkpt>
      <trkpt lat="43.12126" lon="6.27258">
        <ele>-5.4</ele>
        <time>2021-07-21T07:37:08Z</time>
      </trkpt>
      <trkpt lat="43.12127" lon="6.27272">
        <ele>-5.8</ele>
        <time>2021-07-21T07:37:19Z</time>
      </trkpt>
      <trkpt lat="43.12128" lon="6.27283">
        <ele>-5.8</ele>
        <time>2021-07-21T07:37:26Z</time>
      </trkpt>
      <trkpt lat="43.12128" lon="6.27287">
        <ele>-5.8</ele>
        <time>2021-07-21T07:37:28Z</time>
      </trkpt>
      <trkpt lat="43.12128" lon="6.27296">
        <ele>-5.4</ele>
        <time>2021-07-21T07:37:34Z</time>
      </trkpt>
      <trkpt lat="43.12128" lon="6.27305">
        <ele>-5.4</ele>
        <time>2021-07-21T07:37:39Z</time>
      </trkpt>
      <trkpt lat="43.12128" lon="6.27308">
        <ele>-5.4</ele>
        <time>2021-07-21T07:37:41Z</time>
      </trkpt>
      <trkpt lat="43.12128" lon="6.2732">
        <ele>-5.6</ele>
        <time>2021-07-21T07:37:50Z</time>
      </trkpt>
      <trkpt lat="43.12128" lon="6.27333">
        <ele>-5.8</ele>
        <time>2021-07-21T07:37:58Z</time>
      </trkpt>
      <trkpt lat="43.12126" lon="6.27348">
        <ele>-5.8</ele>
        <time>2021-07-21T07:38:07Z</time>
      </trkpt>
      <trkpt lat="43.12123" lon="6.27365">
        <ele>-5.8</ele>
        <time>2021-07-21T07:38:18Z</time>
      </trkpt>
      <trkpt lat="43.12121" lon="6.27379">
        <ele>-6</ele>
        <time>2021-07-21T07:38:26Z</time>
      </trkpt>
      <trkpt lat="43.12121" lon="6.27392">
        <ele>-6</ele>
        <time>2021-07-21T07:38:34Z</time>
      </trkpt>
      <trkpt lat="43.1212" lon="6.2741">
        <ele>-6</ele>
        <time>2021-07-21T07:38:45Z</time>
      </trkpt>
      <trkpt lat="43.12118" lon="6.27423">
        <ele>-5.8</ele>
        <time>2021-07-21T07:38:54Z</time>
      </trkpt>
      <trkpt lat="43.12116" lon="6.27433">
        <ele>-5.8</ele>
        <time>2021-07-21T07:39:01Z</time>
      </trkpt>
      <trkpt lat="43.12113" lon="6.27447">
        <ele>-5.4</ele>
        <time>2021-07-21T07:39:10Z</time>
      </trkpt>
      <trkpt lat="43.12111" lon="6.27458">
        <ele>-6</ele>
        <time>2021-07-21T07:39:16Z</time>
      </trkpt>
      <trkpt lat="43.12108" lon="6.27468">
        <ele>-6</ele>
        <time>2021-07-21T07:39:24Z</time>
      </trkpt>
      <trkpt lat="43.12107" lon="6.2748">
        <ele>-6</ele>
        <time>2021-07-21T07:39:32Z</time>
      </trkpt>
      <trkpt lat="43.12107" lon="6.27494">
        <ele>-6.2</ele>
        <time>2021-07-21T07:39:40Z</time>
      </trkpt>
      <trkpt lat="43.12107" lon="6.27496">
        <ele>-6</ele>
        <time>2021-07-21T07:39:41Z</time>
      </trkpt>
      <trkpt lat="43.12106" lon="6.27508">
        <ele>-6.4</ele>
        <time>2021-07-21T07:39:50Z</time>
      </trkpt>
      <trkpt lat="43.12104" lon="6.27524">
        <ele>-6.6</ele>
        <time>2021-07-21T07:39:59Z</time>
      </trkpt>
      <trkpt lat="43.12102" lon="6.27538">
        <ele>-6.2</ele>
        <time>2021-07-21T07:40:07Z</time>
      </trkpt>
      <trkpt lat="43.12099" lon="6.27553">
        <ele>-6.2</ele>
        <time>2021-07-21T07:40:16Z</time>
      </trkpt>
      <trkpt lat="43.12097" lon="6.27562">
        <ele>-6.4</ele>
        <time>2021-07-21T07:40:23Z</time>
      </trkpt>
      <trkpt lat="43.12096" lon="6.27565">
        <ele>-6.2</ele>
        <time>2021-07-21T07:40:26Z</time>
      </trkpt>
      <trkpt lat="43.12096" lon="6.27575">
        <ele>-6.2</ele>
        <time>2021-07-21T07:40:32Z</time>
      </trkpt>
      <trkpt lat="43.12093" lon="6.27589">
        <ele>-5.8</ele>
        <time>2021-07-21T07:40:41Z</time>
      </trkpt>
      <trkpt lat="43.1209" lon="6.27596">
        <ele>-6.2</ele>
        <time>2021-07-21T07:40:47Z</time>
      </trkpt>
      <trkpt lat="43.12089" lon="6.27599">
        <ele>-6</ele>
        <time>2021-07-21T07:40:49Z</time>
      </trkpt>
      <trkpt lat="43.12088" lon="6.27602">
        <ele>-6</ele>
        <time>2021-07-21T07:40:51Z</time>
      </trkpt>
      <trkpt lat="43.12085" lon="6.27609">
        <ele>-6</ele>
        <time>2021-07-21T07:40:56Z</time>
      </trkpt>
      <trkpt lat="43.12082" lon="6.27619">
        <ele>-5.8</ele>
        <time>2021-07-21T07:41:04Z</time>
      </trkpt>
      <trkpt lat="43.12079" lon="6.27631">
        <ele>-6</ele>
        <time>2021-07-21T07:41:12Z</time>
      </trkpt>
      <trkpt lat="43.12076" lon="6.27642">
        <ele>-5.8</ele>
        <time>2021-07-21T07:41:20Z</time>
      </trkpt>
      <trkpt lat="43.12071" lon="6.27651">
        <ele>-5.8</ele>
        <time>2021-07-21T07:41:28Z</time>
      </trkpt>
      <trkpt lat="43.12065" lon="6.27659">
        <ele>-6</ele>
        <time>2021-07-21T07:41:35Z</time>
      </trkpt>
      <trkpt lat="43.12059" lon="6.27668">
        <ele>-6</ele>
        <time>2021-07-21T07:41:44Z</time>
      </trkpt>
      <trkpt lat="43.12053" lon="6.2768">
        <ele>-5.8</ele>
        <time>2021-07-21T07:41:54Z</time>
      </trkpt>
      <trkpt lat="43.12045" lon="6.27689">
        <ele>-6</ele>
        <time>2021-07-21T07:42:03Z</time>
      </trkpt>
      <trkpt lat="43.12035" lon="6.277">
        <ele>-6</ele>
        <time>2021-07-21T07:42:14Z</time>
      </trkpt>
      <trkpt lat="43.1203" lon="6.27708">
        <ele>-6.2</ele>
        <time>2021-07-21T07:42:21Z</time>
      </trkpt>
      <trkpt lat="43.12022" lon="6.27716">
        <ele>-5.8</ele>
        <time>2021-07-21T07:42:29Z</time>
      </trkpt>
      <trkpt lat="43.12015" lon="6.27725">
        <ele>-6</ele>
        <time>2021-07-21T07:42:37Z</time>
      </trkpt>
      <trkpt lat="43.12007" lon="6.27736">
        <ele>-6.2</ele>
        <time>2021-07-21T07:42:46Z</time>
      </trkpt>
      <trkpt lat="43.12" lon="6.27745">
        <ele>-6</ele>
        <time>2021-07-21T07:42:55Z</time>
      </trkpt>
      <trkpt lat="43.11999" lon="6.27746">
        <ele>-6</ele>
        <time>2021-07-21T07:42:56Z</time>
      </trkpt>
      <trkpt lat="43.11995" lon="6.27753">
        <ele>-6</ele>
        <time>2021-07-21T07:43:02Z</time>
      </trkpt>
      <trkpt lat="43.11987" lon="6.27762">
        <ele>-6.2</ele>
        <time>2021-07-21T07:43:11Z</time>
      </trkpt>
      <trkpt lat="43.11982" lon="6.27769">
        <ele>-6.2</ele>
        <time>2021-07-21T07:43:18Z</time>
      </trkpt>
      <trkpt lat="43.11973" lon="6.27776">
        <ele>-6</ele>
        <time>2021-07-21T07:43:26Z</time>
      </trkpt>
      <trkpt lat="43.11963" lon="6.27783">
        <ele>-6.4</ele>
        <time>2021-07-21T07:43:34Z</time>
      </trkpt>
      <trkpt lat="43.11958" lon="6.27788">
        <ele>-6.4</ele>
        <time>2021-07-21T07:43:39Z</time>
      </trkpt>
      <trkpt lat="43.11956" lon="6.27788">
        <ele>-6.2</ele>
        <time>2021-07-21T07:43:41Z</time>
      </trkpt>
      <trkpt lat="43.11942" lon="6.27798">
        <ele>-6</ele>
        <time>2021-07-21T07:43:56Z</time>
      </trkpt>
      <trkpt lat="43.11935" lon="6.27801">
        <ele>-4.6</ele>
        <time>2021-07-21T07:44:04Z</time>
      </trkpt>
      <trkpt lat="43.11929" lon="6.27802">
        <ele>-3.6</ele>
        <time>2021-07-21T07:44:11Z</time>
      </trkpt>
      <trkpt lat="43.11928" lon="6.27801">
        <ele>-2.4</ele>
        <time>2021-07-21T07:44:15Z</time>
      </trkpt>
      <trkpt lat="43.11929" lon="6.27801">
        <ele>-2.2</ele>
        <time>2021-07-21T07:44:22Z</time>
      </trkpt>
      <trkpt lat="43.11926" lon="6.27803">
        <ele>-3</ele>
        <time>2021-07-21T07:44:34Z</time>
      </trkpt>
      <trkpt lat="43.11925" lon="6.27803">
        <ele>-3.4</ele>
        <time>2021-07-21T07:44:36Z</time>
      </trkpt>
      <trkpt lat="43.11924" lon="6.27803">
        <ele>-3.6</ele>
        <time>2021-07-21T07:44:39Z</time>
      </trkpt>
      <trkpt lat="43.11924" lon="6.27803">
        <ele>-3.6</ele>
        <time>2021-07-21T07:44:41Z</time>
      </trkpt>
      <trkpt lat="43.11919" lon="6.27797">
        <ele>-3.4</ele>
        <time>2021-07-21T07:44:53Z</time>
      </trkpt>
      <trkpt lat="43.11914" lon="6.2779">
        <ele>-3</ele>
        <time>2021-07-21T07:45:03Z</time>
      </trkpt>
      <trkpt lat="43.11914" lon="6.27789">
        <ele>-2.2</ele>
        <time>2021-07-21T07:45:05Z</time>
      </trkpt>
      <trkpt lat="43.11914" lon="6.27789">
        <ele>-1.8</ele>
        <time>2021-07-21T07:45:06Z</time>
      </trkpt>
      <trkpt lat="43.11915" lon="6.27788">
        <ele>-2.2</ele>
        <time>2021-07-21T07:45:16Z</time>
      </trkpt>
      <trkpt lat="43.11917" lon="6.27788">
        <ele>-2.8</ele>
        <time>2021-07-21T07:45:27Z</time>
      </trkpt>
      <trkpt lat="43.11916" lon="6.2779">
        <ele>-3</ele>
        <time>2021-07-21T07:45:37Z</time>
      </trkpt>
      <trkpt lat="43.11915" lon="6.2779">
        <ele>-3.2</ele>
        <time>2021-07-21T07:45:40Z</time>
      </trkpt>
      <trkpt lat="43.11916" lon="6.2779">
        <ele>-3</ele>
        <time>2021-07-21T07:45:52Z</time>
      </trkpt>
      <trkpt lat="43.11912" lon="6.27791">
        <ele>-2.6</ele>
        <time>2021-07-21T07:46:07Z</time>
      </trkpt>
      <trkpt lat="43.11911" lon="6.27792">
        <ele>-2.2</ele>
        <time>2021-07-21T07:46:09Z</time>
      </trkpt>
      <trkpt lat="43.11904" lon="6.27791">
        <ele>-1.8</ele>
        <time>2021-07-21T07:46:17Z</time>
      </trkpt>
      <trkpt lat="43.11903" lon="6.27789">
        <ele>-1.6</ele>
        <time>2021-07-21T07:46:19Z</time>
      </trkpt>
      <trkpt lat="43.11902" lon="6.27789">
        <ele>-1.8</ele>
        <time>2021-07-21T07:46:20Z</time>
      </trkpt>
      <trkpt lat="43.11902" lon="6.27788">
        <ele>-2</ele>
        <time>2021-07-21T07:46:21Z</time>
      </trkpt>
      <trkpt lat="43.11901" lon="6.27787">
        <ele>-2.4</ele>
        <time>2021-07-21T07:46:23Z</time>
      </trkpt>
      <trkpt lat="43.119" lon="6.27787">
        <ele>-2.6</ele>
        <time>2021-07-21T07:46:25Z</time>
      </trkpt>
      <trkpt lat="43.11899" lon="6.27786">
        <ele>-2.8</ele>
        <time>2021-07-21T07:46:27Z</time>
      </trkpt>
      <trkpt lat="43.11899" lon="6.27787">
        <ele>-2.8</ele>
        <time>2021-07-21T07:46:29Z</time>
      </trkpt>
      <trkpt lat="43.11899" lon="6.27787">
        <ele>-2.8</ele>
        <time>2021-07-21T07:46:33Z</time>
      </trkpt>
      <trkpt lat="43.11899" lon="6.27787">
        <ele>-3.2</ele>
        <time>2021-07-21T07:46:36Z</time>
      </trkpt>
      <trkpt lat="43.11894" lon="6.2778">
        <ele>-3.6</ele>
        <time>2021-07-21T07:46:49Z</time>
      </trkpt>
      <trkpt lat="43.11891" lon="6.27784">
        <ele>-3.6</ele>
        <time>2021-07-21T07:46:58Z</time>
      </trkpt>
      <trkpt lat="43.11889" lon="6.27791">
        <ele>-3.6</ele>
        <time>2021-07-21T07:47:06Z</time>
      </trkpt>
      <trkpt lat="43.11888" lon="6.27792">
        <ele>-3.6</ele>
        <time>2021-07-21T07:47:08Z</time>
      </trkpt>
      <trkpt lat="43.11884" lon="6.2779">
        <ele>-3.8</ele>
        <time>2021-07-21T07:47:13Z</time>
      </trkpt>
      <trkpt lat="43.11881" lon="6.27789">
        <ele>-4</ele>
        <time>2021-07-21T07:47:16Z</time>
      </trkpt>
      <trkpt lat="43.11879" lon="6.27788">
        <ele>-4</ele>
        <time>2021-07-21T07:47:18Z</time>
      </trkpt>
      <trkpt lat="43.11877" lon="6.27788">
        <ele>-3.8</ele>
        <time>2021-07-21T07:47:20Z</time>
      </trkpt>
      <trkpt lat="43.11874" lon="6.27787">
        <ele>-3.6</ele>
        <time>2021-07-21T07:47:22Z</time>
      </trkpt>
      <trkpt lat="43.11863" lon="6.27787">
        <ele>-3.6</ele>
        <time>2021-07-21T07:47:31Z</time>
      </trkpt>
      <trkpt lat="43.11848" lon="6.2778">
        <ele>-3.2</ele>
        <time>2021-07-21T07:47:46Z</time>
      </trkpt>
      <trkpt lat="43.11845" lon="6.27776">
        <ele>-3</ele>
        <time>2021-07-21T07:47:50Z</time>
      </trkpt>
      <trkpt lat="43.11844" lon="6.2777">
        <ele>-4</ele>
        <time>2021-07-21T07:47:56Z</time>
      </trkpt>
      <trkpt lat="43.11844" lon="6.27768">
        <ele>-4.2</ele>
        <time>2021-07-21T07:47:57Z</time>
      </trkpt>
      <trkpt lat="43.11841" lon="6.27758">
        <ele>-5.4</ele>
        <time>2021-07-21T07:48:05Z</time>
      </trkpt>
      <trkpt lat="43.11839" lon="6.27754">
        <ele>-5.6</ele>
        <time>2021-07-21T07:48:09Z</time>
      </trkpt>
      <trkpt lat="43.11837" lon="6.2775">
        <ele>-5.6</ele>
        <time>2021-07-21T07:48:14Z</time>
      </trkpt>
      <trkpt lat="43.11836" lon="6.27751">
        <ele>-5.4</ele>
        <time>2021-07-21T07:48:17Z</time>
      </trkpt>
      <trkpt lat="43.11836" lon="6.27751">
        <ele>-5.2</ele>
        <time>2021-07-21T07:48:18Z</time>
      </trkpt>
      <trkpt lat="43.11832" lon="6.27752">
        <ele>-5.8</ele>
        <time>2021-07-21T07:48:31Z</time>
      </trkpt>
      <trkpt lat="43.11828" lon="6.2776">
        <ele>-4.2</ele>
        <time>2021-07-21T07:48:41Z</time>
      </trkpt>
      <trkpt lat="43.11827" lon="6.2776">
        <ele>-4.2</ele>
        <time>2021-07-21T07:48:42Z</time>
      </trkpt>
      <trkpt lat="43.11826" lon="6.27767">
        <ele>-3.6</ele>
        <time>2021-07-21T07:48:51Z</time>
      </trkpt>
      <trkpt lat="43.11827" lon="6.27771">
        <ele>-3.2</ele>
        <time>2021-07-21T07:48:54Z</time>
      </trkpt>
      <trkpt lat="43.11826" lon="6.27782">
        <ele>-2.6</ele>
        <time>2021-07-21T07:49:01Z</time>
      </trkpt>
      <trkpt lat="43.11825" lon="6.27785">
        <ele>-2.6</ele>
        <time>2021-07-21T07:49:03Z</time>
      </trkpt>
      <trkpt lat="43.11823" lon="6.27788">
        <ele>-2.4</ele>
        <time>2021-07-21T07:49:07Z</time>
      </trkpt>
      <trkpt lat="43.11821" lon="6.27793">
        <ele>-2.6</ele>
        <time>2021-07-21T07:49:11Z</time>
      </trkpt>
      <trkpt lat="43.11822" lon="6.27797">
        <ele>-3</ele>
        <time>2021-07-21T07:49:15Z</time>
      </trkpt>
      <trkpt lat="43.11822" lon="6.27801">
        <ele>-3</ele>
        <time>2021-07-21T07:49:20Z</time>
      </trkpt>
      <trkpt lat="43.11822" lon="6.27801">
        <ele>-3</ele>
        <time>2021-07-21T07:49:22Z</time>
      </trkpt>
      <trkpt lat="43.11822" lon="6.27802">
        <ele>-2.8</ele>
        <time>2021-07-21T07:49:24Z</time>
      </trkpt>
      <trkpt lat="43.11823" lon="6.27807">
        <ele>-3</ele>
        <time>2021-07-21T07:49:31Z</time>
      </trkpt>
      <trkpt lat="43.11824" lon="6.27812">
        <ele>-3.6</ele>
        <time>2021-07-21T07:49:37Z</time>
      </trkpt>
      <trkpt lat="43.11825" lon="6.27816">
        <ele>-4.2</ele>
        <time>2021-07-21T07:49:41Z</time>
      </trkpt>
      <trkpt lat="43.11825" lon="6.27817">
        <ele>-4.2</ele>
        <time>2021-07-21T07:49:42Z</time>
      </trkpt>
      <trkpt lat="43.11825" lon="6.27822">
        <ele>-5.4</ele>
        <time>2021-07-21T07:49:47Z</time>
      </trkpt>
      <trkpt lat="43.11824" lon="6.27828">
        <ele>-6.6</ele>
        <time>2021-07-21T07:49:52Z</time>
      </trkpt>
      <trkpt lat="43.11824" lon="6.27829">
        <ele>-7.4</ele>
        <time>2021-07-21T07:49:54Z</time>
      </trkpt>
      <trkpt lat="43.11824" lon="6.27831">
        <ele>-7.8</ele>
        <time>2021-07-21T07:49:56Z</time>
      </trkpt>
      <trkpt lat="43.11823" lon="6.27834">
        <ele>-9</ele>
        <time>2021-07-21T07:49:59Z</time>
      </trkpt>
      <trkpt lat="43.11822" lon="6.27838">
        <ele>-10</ele>
        <time>2021-07-21T07:50:04Z</time>
      </trkpt>
      <trkpt lat="43.11822" lon="6.27852">
        <ele>-9.4</ele>
        <time>2021-07-21T07:50:17Z</time>
      </trkpt>
      <trkpt lat="43.1182" lon="6.27856">
        <ele>-9.6</ele>
        <time>2021-07-21T07:50:22Z</time>
      </trkpt>
      <trkpt lat="43.11819" lon="6.27858">
        <ele>-9.6</ele>
        <time>2021-07-21T07:50:26Z</time>
      </trkpt>
      <trkpt lat="43.11816" lon="6.27869">
        <ele>-9.6</ele>
        <time>2021-07-21T07:50:36Z</time>
      </trkpt>
      <trkpt lat="43.11804" lon="6.2789">
        <ele>-9.8</ele>
        <time>2021-07-21T07:50:52Z</time>
      </trkpt>
      <trkpt lat="43.1179" lon="6.27905">
        <ele>-10</ele>
        <time>2021-07-21T07:51:05Z</time>
      </trkpt>
      <trkpt lat="43.11782" lon="6.27911">
        <ele>-9.2</ele>
        <time>2021-07-21T07:51:12Z</time>
      </trkpt>
      <trkpt lat="43.11775" lon="6.27916">
        <ele>-8</ele>
        <time>2021-07-21T07:51:19Z</time>
      </trkpt>
      <trkpt lat="43.11774" lon="6.27916">
        <ele>-7.8</ele>
        <time>2021-07-21T07:51:20Z</time>
      </trkpt>
      <trkpt lat="43.11772" lon="6.27915">
        <ele>-7.4</ele>
        <time>2021-07-21T07:51:22Z</time>
      </trkpt>
      <trkpt lat="43.11771" lon="6.27914">
        <ele>-7</ele>
        <time>2021-07-21T07:51:24Z</time>
      </trkpt>
      <trkpt lat="43.11769" lon="6.27912">
        <ele>-6.6</ele>
        <time>2021-07-21T07:51:27Z</time>
      </trkpt>
      <trkpt lat="43.11766" lon="6.2791">
        <ele>-6.8</ele>
        <time>2021-07-21T07:51:30Z</time>
      </trkpt>
      <trkpt lat="43.11763" lon="6.27908">
        <ele>-6.8</ele>
        <time>2021-07-21T07:51:33Z</time>
      </trkpt>
      <trkpt lat="43.11758" lon="6.27909">
        <ele>-6.4</ele>
        <time>2021-07-21T07:51:37Z</time>
      </trkpt>
      <trkpt lat="43.11754" lon="6.27907">
        <ele>-5.8</ele>
        <time>2021-07-21T07:51:40Z</time>
      </trkpt>
      <trkpt lat="43.11754" lon="6.27907">
        <ele>-5.8</ele>
        <time>2021-07-21T07:51:42Z</time>
      </trkpt>
      <trkpt lat="43.11753" lon="6.27904">
        <ele>-5.6</ele>
        <time>2021-07-21T07:51:48Z</time>
      </trkpt>
      <trkpt lat="43.11746" lon="6.27905">
        <ele>-5.8</ele>
        <time>2021-07-21T07:51:56Z</time>
      </trkpt>
      <trkpt lat="43.11741" lon="6.27896">
        <ele>-6</ele>
        <time>2021-07-21T07:52:03Z</time>
      </trkpt>
      <trkpt lat="43.11739" lon="6.27893">
        <ele>-6</ele>
        <time>2021-07-21T07:52:05Z</time>
      </trkpt>
      <trkpt lat="43.11728" lon="6.2788">
        <ele>-5.6</ele>
        <time>2021-07-21T07:52:17Z</time>
      </trkpt>
      <trkpt lat="43.11718" lon="6.27876">
        <ele>-4.8</ele>
        <time>2021-07-21T07:52:28Z</time>
      </trkpt>
      <trkpt lat="43.11717" lon="6.27877">
        <ele>-4.6</ele>
        <time>2021-07-21T07:52:29Z</time>
      </trkpt>
      <trkpt lat="43.11714" lon="6.27882">
        <ele>-4.4</ele>
        <time>2021-07-21T07:52:35Z</time>
      </trkpt>
      <trkpt lat="43.11714" lon="6.27885">
        <ele>-4</ele>
        <time>2021-07-21T07:52:37Z</time>
      </trkpt>
      <trkpt lat="43.11713" lon="6.27889">
        <ele>-3.6</ele>
        <time>2021-07-21T07:52:39Z</time>
      </trkpt>
      <trkpt lat="43.11712" lon="6.27895">
        <ele>-2.6</ele>
        <time>2021-07-21T07:52:44Z</time>
      </trkpt>
      <trkpt lat="43.11712" lon="6.27897">
        <ele>-2.2</ele>
        <time>2021-07-21T07:52:47Z</time>
      </trkpt>
      <trkpt lat="43.11713" lon="6.27899">
        <ele>-2</ele>
        <time>2021-07-21T07:52:50Z</time>
      </trkpt>
      <trkpt lat="43.11715" lon="6.27902">
        <ele>-1.6</ele>
        <time>2021-07-21T07:52:52Z</time>
      </trkpt>
      <trkpt lat="43.11715" lon="6.27904">
        <ele>-1.4</ele>
        <time>2021-07-21T07:52:54Z</time>
      </trkpt>
      <trkpt lat="43.1172" lon="6.27911">
        <ele>-0.4</ele>
        <time>2021-07-21T07:53:02Z</time>
      </trkpt>
      <trkpt lat="43.11721" lon="6.27913">
        <ele>-0.2</ele>
        <time>2021-07-21T07:53:04Z</time>
      </trkpt>
      <trkpt lat="43.11722" lon="6.27918">
        <ele>0.6</ele>
        <time>2021-07-21T07:53:09Z</time>
      </trkpt>
      <trkpt lat="43.1172" lon="6.27922">
        <ele>1.2</ele>
        <time>2021-07-21T07:53:13Z</time>
      </trkpt>
      <trkpt lat="43.11718" lon="6.27924">
        <ele>1.4</ele>
        <time>2021-07-21T07:53:15Z</time>
      </trkpt>
      <trkpt lat="43.11715" lon="6.27927">
        <ele>1.8</ele>
        <time>2021-07-21T07:53:18Z</time>
      </trkpt>
      <trkpt lat="43.11709" lon="6.27932">
        <ele>2.4</ele>
        <time>2021-07-21T07:53:24Z</time>
      </trkpt>
      <trkpt lat="43.11699" lon="6.27942">
        <ele>2.6</ele>
        <time>2021-07-21T07:53:33Z</time>
      </trkpt>
      <trkpt lat="43.11682" lon="6.27954">
        <ele>2.8</ele>
        <time>2021-07-21T07:53:48Z</time>
      </trkpt>
      <trkpt lat="43.11681" lon="6.27955">
        <ele>2.8</ele>
        <time>2021-07-21T07:53:49Z</time>
      </trkpt>
      <trkpt lat="43.11671" lon="6.27963">
        <ele>2.8</ele>
        <time>2021-07-21T07:53:58Z</time>
      </trkpt>
      <trkpt lat="43.11666" lon="6.27969">
        <ele>2.8</ele>
        <time>2021-07-21T07:54:04Z</time>
      </trkpt>
      <trkpt lat="43.11661" lon="6.27983">
        <ele>2.8</ele>
        <time>2021-07-21T07:54:13Z</time>
      </trkpt>
      <trkpt lat="43.11663" lon="6.27995">
        <ele>2</ele>
        <time>2021-07-21T07:54:21Z</time>
      </trkpt>
      <trkpt lat="43.11665" lon="6.28004">
        <ele>1.6</ele>
        <time>2021-07-21T07:54:27Z</time>
      </trkpt>
      <trkpt lat="43.11665" lon="6.28007">
        <ele>1.8</ele>
        <time>2021-07-21T07:54:31Z</time>
      </trkpt>
      <trkpt lat="43.11665" lon="6.28008">
        <ele>2</ele>
        <time>2021-07-21T07:54:32Z</time>
      </trkpt>
      <trkpt lat="43.11666" lon="6.28009">
        <ele>2</ele>
        <time>2021-07-21T07:54:33Z</time>
      </trkpt>
      <trkpt lat="43.11667" lon="6.28012">
        <ele>1.8</ele>
        <time>2021-07-21T07:54:40Z</time>
      </trkpt>
      <trkpt lat="43.11669" lon="6.28016">
        <ele>1.6</ele>
        <time>2021-07-21T07:54:48Z</time>
      </trkpt>
      <trkpt lat="43.11669" lon="6.28013">
        <ele>0.8</ele>
        <time>2021-07-21T07:54:57Z</time>
      </trkpt>
      <trkpt lat="43.11674" lon="6.28016">
        <ele>0.6</ele>
        <time>2021-07-21T07:55:03Z</time>
      </trkpt>
      <trkpt lat="43.11675" lon="6.28017">
        <ele>0.6</ele>
        <time>2021-07-21T07:55:04Z</time>
      </trkpt>
      <trkpt lat="43.11692" lon="6.28024">
        <ele>-0.2</ele>
        <time>2021-07-21T07:55:18Z</time>
      </trkpt>
      <trkpt lat="43.11693" lon="6.28025">
        <ele>-0.4</ele>
        <time>2021-07-21T07:55:19Z</time>
      </trkpt>
      <trkpt lat="43.11702" lon="6.28027">
        <ele>-1</ele>
        <time>2021-07-21T07:55:25Z</time>
      </trkpt>
      <trkpt lat="43.11707" lon="6.28031">
        <ele>-1</ele>
        <time>2021-07-21T07:55:30Z</time>
      </trkpt>
      <trkpt lat="43.1171" lon="6.28037">
        <ele>-1.2</ele>
        <time>2021-07-21T07:55:34Z</time>
      </trkpt>
      <trkpt lat="43.11713" lon="6.28043">
        <ele>-1.4</ele>
        <time>2021-07-21T07:55:38Z</time>
      </trkpt>
      <trkpt lat="43.11713" lon="6.28051">
        <ele>-1.6</ele>
        <time>2021-07-21T07:55:42Z</time>
      </trkpt>
      <trkpt lat="43.11713" lon="6.28068">
        <ele>-1.6</ele>
        <time>2021-07-21T07:55:51Z</time>
      </trkpt>
      <trkpt lat="43.1171" lon="6.28077">
        <ele>-1.6</ele>
        <time>2021-07-21T07:55:58Z</time>
      </trkpt>
      <trkpt lat="43.11709" lon="6.28078">
        <ele>-1.4</ele>
        <time>2021-07-21T07:56:05Z</time>
      </trkpt>
      <trkpt lat="43.11709" lon="6.28078">
        <ele>-1.4</ele>
        <time>2021-07-21T07:56:06Z</time>
      </trkpt>
      <trkpt lat="43.1171" lon="6.28087">
        <ele>-2.2</ele>
        <time>2021-07-21T07:56:15Z</time>
      </trkpt>
      <trkpt lat="43.11711" lon="6.28094">
        <ele>-2.6</ele>
        <time>2021-07-21T07:56:19Z</time>
      </trkpt>
      <trkpt lat="43.11712" lon="6.28104">
        <ele>-3.4</ele>
        <time>2021-07-21T07:56:25Z</time>
      </trkpt>
      <trkpt lat="43.11711" lon="6.28109">
        <ele>-3.6</ele>
        <time>2021-07-21T07:56:28Z</time>
      </trkpt>
      <trkpt lat="43.11711" lon="6.28117">
        <ele>-4</ele>
        <time>2021-07-21T07:56:33Z</time>
      </trkpt>
      <trkpt lat="43.11713" lon="6.28128">
        <ele>-4.2</ele>
        <time>2021-07-21T07:56:41Z</time>
      </trkpt>
      <trkpt lat="43.11717" lon="6.28136">
        <ele>-4.6</ele>
        <time>2021-07-21T07:56:47Z</time>
      </trkpt>
      <trkpt lat="43.11717" lon="6.28137">
        <ele>-4.8</ele>
        <time>2021-07-21T07:56:48Z</time>
      </trkpt>
      <trkpt lat="43.11725" lon="6.28144">
        <ele>-5.4</ele>
        <time>2021-07-21T07:56:55Z</time>
      </trkpt>
      <trkpt lat="43.11727" lon="6.28149">
        <ele>-5.6</ele>
        <time>2021-07-21T07:56:59Z</time>
      </trkpt>
      <trkpt lat="43.11729" lon="6.28157">
        <ele>-5.4</ele>
        <time>2021-07-21T07:57:06Z</time>
      </trkpt>
      <trkpt lat="43.11728" lon="6.28168">
        <ele>-5</ele>
        <time>2021-07-21T07:57:13Z</time>
      </trkpt>
      <trkpt lat="43.11727" lon="6.28189">
        <ele>-4.8</ele>
        <time>2021-07-21T07:57:23Z</time>
      </trkpt>
      <trkpt lat="43.11727" lon="6.2819">
        <ele>-4.6</ele>
        <time>2021-07-21T07:57:24Z</time>
      </trkpt>
      <trkpt lat="43.11729" lon="6.28199">
        <ele>-4.4</ele>
        <time>2021-07-21T07:57:30Z</time>
      </trkpt>
      <trkpt lat="43.11729" lon="6.28214">
        <ele>-4.4</ele>
        <time>2021-07-21T07:57:39Z</time>
      </trkpt>
      <trkpt lat="43.11726" lon="6.28228">
        <ele>-4.2</ele>
        <time>2021-07-21T07:57:47Z</time>
      </trkpt>
      <trkpt lat="43.11725" lon="6.28241">
        <ele>-4.4</ele>
        <time>2021-07-21T07:57:55Z</time>
      </trkpt>
      <trkpt lat="43.11725" lon="6.28246">
        <ele>-4.2</ele>
        <time>2021-07-21T07:57:58Z</time>
      </trkpt>
      <trkpt lat="43.11724" lon="6.28252">
        <ele>-4.4</ele>
        <time>2021-07-21T07:58:01Z</time>
      </trkpt>
      <trkpt lat="43.11722" lon="6.28268">
        <ele>-4.8</ele>
        <time>2021-07-21T07:58:11Z</time>
      </trkpt>
      <trkpt lat="43.11721" lon="6.2827">
        <ele>-4.8</ele>
        <time>2021-07-21T07:58:12Z</time>
      </trkpt>
      <trkpt lat="43.11718" lon="6.28275">
        <ele>-5</ele>
        <time>2021-07-21T07:58:18Z</time>
      </trkpt>
      <trkpt lat="43.11715" lon="6.2828">
        <ele>-5.6</ele>
        <time>2021-07-21T07:58:25Z</time>
      </trkpt>
      <trkpt lat="43.11714" lon="6.28282">
        <ele>-6</ele>
        <time>2021-07-21T07:58:28Z</time>
      </trkpt>
      <trkpt lat="43.11711" lon="6.28286">
        <ele>-6.4</ele>
        <time>2021-07-21T07:58:34Z</time>
      </trkpt>
      <trkpt lat="43.1171" lon="6.28286">
        <ele>-6.6</ele>
        <time>2021-07-21T07:58:36Z</time>
      </trkpt>
      <trkpt lat="43.1171" lon="6.28287">
        <ele>-6.8</ele>
        <time>2021-07-21T07:58:37Z</time>
      </trkpt>
      <trkpt lat="43.11706" lon="6.28291">
        <ele>-7.4</ele>
        <time>2021-07-21T07:58:44Z</time>
      </trkpt>
      <trkpt lat="43.11704" lon="6.28294">
        <ele>-7.8</ele>
        <time>2021-07-21T07:58:47Z</time>
      </trkpt>
      <trkpt lat="43.11701" lon="6.28301">
        <ele>-7.2</ele>
        <time>2021-07-21T07:58:52Z</time>
      </trkpt>
      <trkpt lat="43.11699" lon="6.28306">
        <ele>-6.8</ele>
        <time>2021-07-21T07:58:56Z</time>
      </trkpt>
      <trkpt lat="43.11693" lon="6.28307">
        <ele>-6</ele>
        <time>2021-07-21T07:59:02Z</time>
      </trkpt>
      <trkpt lat="43.11686" lon="6.28304">
        <ele>-5.8</ele>
        <time>2021-07-21T07:59:08Z</time>
      </trkpt>
      <trkpt lat="43.11685" lon="6.28304">
        <ele>-5.4</ele>
        <time>2021-07-21T07:59:10Z</time>
      </trkpt>
      <trkpt lat="43.11679" lon="6.283">
        <ele>-4.6</ele>
        <time>2021-07-21T07:59:15Z</time>
      </trkpt>
      <trkpt lat="43.11676" lon="6.28297">
        <ele>-4.2</ele>
        <time>2021-07-21T07:59:18Z</time>
      </trkpt>
      <trkpt lat="43.11668" lon="6.2829">
        <ele>-3.8</ele>
        <time>2021-07-21T07:59:26Z</time>
      </trkpt>
      <trkpt lat="43.11667" lon="6.28289">
        <ele>-3.6</ele>
        <time>2021-07-21T07:59:27Z</time>
      </trkpt>
      <trkpt lat="43.11658" lon="6.28287">
        <ele>-2.8</ele>
        <time>2021-07-21T07:59:34Z</time>
      </trkpt>
      <trkpt lat="43.11655" lon="6.28286">
        <ele>-2.6</ele>
        <time>2021-07-21T07:59:37Z</time>
      </trkpt>
      <trkpt lat="43.11649" lon="6.28285">
        <ele>-1.8</ele>
        <time>2021-07-21T07:59:43Z</time>
      </trkpt>
      <trkpt lat="43.11648" lon="6.28285">
        <ele>-1.8</ele>
        <time>2021-07-21T07:59:44Z</time>
      </trkpt>
      <trkpt lat="43.11645" lon="6.28284">
        <ele>-2</ele>
        <time>2021-07-21T07:59:47Z</time>
      </trkpt>
      <trkpt lat="43.11644" lon="6.28281">
        <ele>-1.8</ele>
        <time>2021-07-21T07:59:50Z</time>
      </trkpt>
      <trkpt lat="43.11644" lon="6.2828">
        <ele>-1.6</ele>
        <time>2021-07-21T07:59:52Z</time>
      </trkpt>
      <trkpt lat="43.11644" lon="6.2828">
        <ele>-1.4</ele>
        <time>2021-07-21T07:59:53Z</time>
      </trkpt>
      <trkpt lat="43.11645" lon="6.28281">
        <ele>-1.4</ele>
        <time>2021-07-21T07:59:55Z</time>
      </trkpt>
      <trkpt lat="43.11644" lon="6.28283">
        <ele>-1.4</ele>
        <time>2021-07-21T07:59:57Z</time>
      </trkpt>
      <trkpt lat="43.11644" lon="6.28284">
        <ele>-1.4</ele>
        <time>2021-07-21T07:59:58Z</time>
      </trkpt>
      <trkpt lat="43.11642" lon="6.28287">
        <ele>-1.4</ele>
        <time>2021-07-21T08:00:00Z</time>
      </trkpt>
      <trkpt lat="43.11637" lon="6.28291">
        <ele>-1.2</ele>
        <time>2021-07-21T08:00:08Z</time>
      </trkpt>
      <trkpt lat="43.11635" lon="6.28294">
        <ele>-1</ele>
        <time>2021-07-21T08:00:11Z</time>
      </trkpt>
      <trkpt lat="43.11633" lon="6.28295">
        <ele>-0.8</ele>
        <time>2021-07-21T08:00:13Z</time>
      </trkpt>
      <trkpt lat="43.11625" lon="6.28297">
        <ele>-0.8</ele>
        <time>2021-07-21T08:00:20Z</time>
      </trkpt>
      <trkpt lat="43.11616" lon="6.283">
        <ele>-0.6</ele>
        <time>2021-07-21T08:00:28Z</time>
      </trkpt>
      <trkpt lat="43.11615" lon="6.283">
        <ele>-0.4</ele>
        <time>2021-07-21T08:00:29Z</time>
      </trkpt>
      <trkpt lat="43.11606" lon="6.28302">
        <ele>-1</ele>
        <time>2021-07-21T08:00:37Z</time>
      </trkpt>
      <trkpt lat="43.116" lon="6.28303">
        <ele>-1.6</ele>
        <time>2021-07-21T08:00:44Z</time>
      </trkpt>
      <trkpt lat="43.11597" lon="6.28303">
        <ele>-1.8</ele>
        <time>2021-07-21T08:00:47Z</time>
      </trkpt>
      <trkpt lat="43.11588" lon="6.28303">
        <ele>-2.4</ele>
        <time>2021-07-21T08:00:54Z</time>
      </trkpt>
      <trkpt lat="43.11583" lon="6.28305">
        <ele>-2.8</ele>
        <time>2021-07-21T08:00:58Z</time>
      </trkpt>
      <trkpt lat="43.11578" lon="6.28308">
        <ele>-3.2</ele>
        <time>2021-07-21T08:01:03Z</time>
      </trkpt>
      <trkpt lat="43.11573" lon="6.28317">
        <ele>-3.4</ele>
        <time>2021-07-21T08:01:11Z</time>
      </trkpt>
      <trkpt lat="43.11572" lon="6.28319">
        <ele>-3.4</ele>
        <time>2021-07-21T08:01:13Z</time>
      </trkpt>
      <trkpt lat="43.11571" lon="6.28329">
        <ele>-3.4</ele>
        <time>2021-07-21T08:01:19Z</time>
      </trkpt>
      <trkpt lat="43.1157" lon="6.2834">
        <ele>-3.4</ele>
        <time>2021-07-21T08:01:27Z</time>
      </trkpt>
      <trkpt lat="43.11566" lon="6.28348">
        <ele>-3.4</ele>
        <time>2021-07-21T08:01:35Z</time>
      </trkpt>
      <trkpt lat="43.11559" lon="6.2836">
        <ele>-3.6</ele>
        <time>2021-07-21T08:01:43Z</time>
      </trkpt>
      <trkpt lat="43.11555" lon="6.28378">
        <ele>-3.2</ele>
        <time>2021-07-21T08:01:52Z</time>
      </trkpt>
      <trkpt lat="43.11556" lon="6.28391">
        <ele>-2.2</ele>
        <time>2021-07-21T08:02:00Z</time>
      </trkpt>
      <trkpt lat="43.11557" lon="6.284">
        <ele>-1.8</ele>
        <time>2021-07-21T08:02:06Z</time>
      </trkpt>
      <trkpt lat="43.11558" lon="6.28402">
        <ele>-1.6</ele>
        <time>2021-07-21T08:02:07Z</time>
      </trkpt>
      <trkpt lat="43.11559" lon="6.28404">
        <ele>-1.6</ele>
        <time>2021-07-21T08:02:08Z</time>
      </trkpt>
      <trkpt lat="43.11564" lon="6.28419">
        <ele>-0.6</ele>
        <time>2021-07-21T08:02:17Z</time>
      </trkpt>
      <trkpt lat="43.11564" lon="6.2842">
        <ele>-0.6</ele>
        <time>2021-07-21T08:02:20Z</time>
      </trkpt>
      <trkpt lat="43.11565" lon="6.28422">
        <ele>-0.6</ele>
        <time>2021-07-21T08:02:23Z</time>
      </trkpt>
      <trkpt lat="43.11569" lon="6.28435">
        <ele>-0.6</ele>
        <time>2021-07-21T08:02:32Z</time>
      </trkpt>
      <trkpt lat="43.11574" lon="6.28447">
        <ele>-1.8</ele>
        <time>2021-07-21T08:02:41Z</time>
      </trkpt>
      <trkpt lat="43.11574" lon="6.28452">
        <ele>-2.2</ele>
        <time>2021-07-21T08:02:44Z</time>
      </trkpt>
      <trkpt lat="43.11574" lon="6.28456">
        <ele>-2.8</ele>
        <time>2021-07-21T08:02:47Z</time>
      </trkpt>
      <trkpt lat="43.11577" lon="6.28465">
        <ele>-4.2</ele>
        <time>2021-07-21T08:02:55Z</time>
      </trkpt>
      <trkpt lat="43.11577" lon="6.28467">
        <ele>-4.4</ele>
        <time>2021-07-21T08:02:56Z</time>
      </trkpt>
      <trkpt lat="43.1158" lon="6.28472">
        <ele>-5.2</ele>
        <time>2021-07-21T08:03:02Z</time>
      </trkpt>
      <trkpt lat="43.11581" lon="6.28473">
        <ele>-6</ele>
        <time>2021-07-21T08:03:06Z</time>
      </trkpt>
      <trkpt lat="43.11581" lon="6.28472">
        <ele>-6.2</ele>
        <time>2021-07-21T08:03:09Z</time>
      </trkpt>
      <trkpt lat="43.11581" lon="6.28472">
        <ele>-5.6</ele>
        <time>2021-07-21T08:03:18Z</time>
      </trkpt>
      <trkpt lat="43.11579" lon="6.28478">
        <ele>-7.4</ele>
        <time>2021-07-21T08:03:24Z</time>
      </trkpt>
      <trkpt lat="43.11577" lon="6.28482">
        <ele>-7.8</ele>
        <time>2021-07-21T08:03:27Z</time>
      </trkpt>
      <trkpt lat="43.11577" lon="6.28484">
        <ele>-8.4</ele>
        <time>2021-07-21T08:03:30Z</time>
      </trkpt>
      <trkpt lat="43.11577" lon="6.28485">
        <ele>-8.6</ele>
        <time>2021-07-21T08:03:31Z</time>
      </trkpt>
      <trkpt lat="43.11576" lon="6.28485">
        <ele>-8.6</ele>
        <time>2021-07-21T08:03:35Z</time>
      </trkpt>
      <trkpt lat="43.11579" lon="6.28493">
        <ele>-8.8</ele>
        <time>2021-07-21T08:03:44Z</time>
      </trkpt>
      <trkpt lat="43.11582" lon="6.28512">
        <ele>-8.8</ele>
        <time>2021-07-21T08:03:57Z</time>
      </trkpt>
      <trkpt lat="43.11583" lon="6.28527">
        <ele>-9</ele>
        <time>2021-07-21T08:04:05Z</time>
      </trkpt>
      <trkpt lat="43.11585" lon="6.28541">
        <ele>-8.4</ele>
        <time>2021-07-21T08:04:14Z</time>
      </trkpt>
      <trkpt lat="43.11587" lon="6.28554">
        <ele>-8.4</ele>
        <time>2021-07-21T08:04:23Z</time>
      </trkpt>
      <trkpt lat="43.11587" lon="6.28563">
        <ele>-8.8</ele>
        <time>2021-07-21T08:04:30Z</time>
      </trkpt>
      <trkpt lat="43.11587" lon="6.28564">
        <ele>-8.8</ele>
        <time>2021-07-21T08:04:31Z</time>
      </trkpt>
      <trkpt lat="43.11587" lon="6.28568">
        <ele>-8.8</ele>
        <time>2021-07-21T08:04:34Z</time>
      </trkpt>
      <trkpt lat="43.11588" lon="6.28574">
        <ele>-8.6</ele>
        <time>2021-07-21T08:04:41Z</time>
      </trkpt>
      <trkpt lat="43.11589" lon="6.28576">
        <ele>-8.4</ele>
        <time>2021-07-21T08:04:53Z</time>
      </trkpt>
      <trkpt lat="43.11586" lon="6.28575">
        <ele>-8.4</ele>
        <time>2021-07-21T08:05:07Z</time>
      </trkpt>
      <trkpt lat="43.11585" lon="6.28577">
        <ele>-9</ele>
        <time>2021-07-21T08:05:20Z</time>
      </trkpt>
      <trkpt lat="43.11582" lon="6.28586">
        <ele>-8.4</ele>
        <time>2021-07-21T08:05:30Z</time>
      </trkpt>
      <trkpt lat="43.11581" lon="6.28606">
        <ele>-8.6</ele>
        <time>2021-07-21T08:05:41Z</time>
      </trkpt>
      <trkpt lat="43.1158" lon="6.28623">
        <ele>-8.6</ele>
        <time>2021-07-21T08:05:49Z</time>
      </trkpt>
      <trkpt lat="43.11577" lon="6.28634">
        <ele>-8.6</ele>
        <time>2021-07-21T08:05:56Z</time>
      </trkpt>
      <trkpt lat="43.11574" lon="6.28648">
        <ele>-8.2</ele>
        <time>2021-07-21T08:06:04Z</time>
      </trkpt>
      <trkpt lat="43.11568" lon="6.28661">
        <ele>-8.4</ele>
        <time>2021-07-21T08:06:13Z</time>
      </trkpt>
      <trkpt lat="43.11564" lon="6.28671">
        <ele>-8.2</ele>
        <time>2021-07-21T08:06:21Z</time>
      </trkpt>
      <trkpt lat="43.1156" lon="6.28686">
        <ele>-8.2</ele>
        <time>2021-07-21T08:06:31Z</time>
      </trkpt>
      <trkpt lat="43.11552" lon="6.287">
        <ele>-8.4</ele>
        <time>2021-07-21T08:06:41Z</time>
      </trkpt>
      <trkpt lat="43.1155" lon="6.28704">
        <ele>-8.2</ele>
        <time>2021-07-21T08:06:44Z</time>
      </trkpt>
      <trkpt lat="43.11547" lon="6.2871">
        <ele>-8</ele>
        <time>2021-07-21T08:06:48Z</time>
      </trkpt>
      <trkpt lat="43.11542" lon="6.2872">
        <ele>-8</ele>
        <time>2021-07-21T08:06:55Z</time>
      </trkpt>
      <trkpt lat="43.11533" lon="6.2873">
        <ele>-7.8</ele>
        <time>2021-07-21T08:07:05Z</time>
      </trkpt>
      <trkpt lat="43.11529" lon="6.28734">
        <ele>-8</ele>
        <time>2021-07-21T08:07:09Z</time>
      </trkpt>
      <trkpt lat="43.11527" lon="6.28736">
        <ele>-8</ele>
        <time>2021-07-21T08:07:11Z</time>
      </trkpt>
      <trkpt lat="43.11521" lon="6.28744">
        <ele>-8</ele>
        <time>2021-07-21T08:07:18Z</time>
      </trkpt>
      <trkpt lat="43.11519" lon="6.28745">
        <ele>-8.2</ele>
        <time>2021-07-21T08:07:21Z</time>
      </trkpt>
      <trkpt lat="43.11518" lon="6.28747">
        <ele>-8</ele>
        <time>2021-07-21T08:07:26Z</time>
      </trkpt>
      <trkpt lat="43.11514" lon="6.2875">
        <ele>-8.6</ele>
        <time>2021-07-21T08:07:35Z</time>
      </trkpt>
      <trkpt lat="43.11503" lon="6.28768">
        <ele>-8.4</ele>
        <time>2021-07-21T08:07:49Z</time>
      </trkpt>
      <trkpt lat="43.1149" lon="6.28784">
        <ele>-8.2</ele>
        <time>2021-07-21T08:08:03Z</time>
      </trkpt>
      <trkpt lat="43.11482" lon="6.28795">
        <ele>-8.6</ele>
        <time>2021-07-21T08:08:14Z</time>
      </trkpt>
      <trkpt lat="43.11471" lon="6.28807">
        <ele>-8.4</ele>
        <time>2021-07-21T08:08:26Z</time>
      </trkpt>
      <trkpt lat="43.11469" lon="6.28809">
        <ele>-8.4</ele>
        <time>2021-07-21T08:08:31Z</time>
      </trkpt>
      <trkpt lat="43.11468" lon="6.28811">
        <ele>-8.4</ele>
        <time>2021-07-21T08:08:34Z</time>
      </trkpt>
      <trkpt lat="43.11467" lon="6.28812">
        <ele>-8.4</ele>
        <time>2021-07-21T08:08:35Z</time>
      </trkpt>
      <trkpt lat="43.11459" lon="6.2882">
        <ele>-8.4</ele>
        <time>2021-07-21T08:08:44Z</time>
      </trkpt>
      <trkpt lat="43.11446" lon="6.28832">
        <ele>-8.6</ele>
        <time>2021-07-21T08:08:58Z</time>
      </trkpt>
      <trkpt lat="43.11436" lon="6.28841">
        <ele>-8</ele>
        <time>2021-07-21T08:09:07Z</time>
      </trkpt>
      <trkpt lat="43.11427" lon="6.2885">
        <ele>-9.2</ele>
        <time>2021-07-21T08:09:16Z</time>
      </trkpt>
      <trkpt lat="43.11419" lon="6.28855">
        <ele>-8.6</ele>
        <time>2021-07-21T08:09:24Z</time>
      </trkpt>
      <trkpt lat="43.11407" lon="6.28863">
        <ele>-8.2</ele>
        <time>2021-07-21T08:09:34Z</time>
      </trkpt>
      <trkpt lat="43.11394" lon="6.2887">
        <ele>-8.8</ele>
        <time>2021-07-21T08:09:45Z</time>
      </trkpt>
      <trkpt lat="43.11384" lon="6.28874">
        <ele>-8.4</ele>
        <time>2021-07-21T08:09:56Z</time>
      </trkpt>
      <trkpt lat="43.11377" lon="6.28876">
        <ele>-8.6</ele>
        <time>2021-07-21T08:10:04Z</time>
      </trkpt>
      <trkpt lat="43.11377" lon="6.28877">
        <ele>-8.6</ele>
        <time>2021-07-21T08:10:05Z</time>
      </trkpt>
      <trkpt lat="43.11373" lon="6.28879">
        <ele>-8.4</ele>
        <time>2021-07-21T08:10:10Z</time>
      </trkpt>
      <trkpt lat="43.11368" lon="6.28882">
        <ele>-8</ele>
        <time>2021-07-21T08:10:15Z</time>
      </trkpt>
      <trkpt lat="43.11349" lon="6.28883">
        <ele>-8.6</ele>
        <time>2021-07-21T08:10:30Z</time>
      </trkpt>
      <trkpt lat="43.11338" lon="6.2888">
        <ele>-8.6</ele>
        <time>2021-07-21T08:10:39Z</time>
      </trkpt>
      <trkpt lat="43.11328" lon="6.28879">
        <ele>-8.4</ele>
        <time>2021-07-21T08:10:48Z</time>
      </trkpt>
      <trkpt lat="43.11325" lon="6.28875">
        <ele>-7.4</ele>
        <time>2021-07-21T08:10:55Z</time>
      </trkpt>
      <trkpt lat="43.11324" lon="6.28875">
        <ele>-7.2</ele>
        <time>2021-07-21T08:10:57Z</time>
      </trkpt>
      <trkpt lat="43.11322" lon="6.28874">
        <ele>-6.6</ele>
        <time>2021-07-21T08:10:59Z</time>
      </trkpt>
      <trkpt lat="43.11322" lon="6.28874">
        <ele>-6.2</ele>
        <time>2021-07-21T08:11:00Z</time>
      </trkpt>
      <trkpt lat="43.11317" lon="6.28869">
        <ele>-5</ele>
        <time>2021-07-21T08:11:10Z</time>
      </trkpt>
      <trkpt lat="43.11313" lon="6.28867">
        <ele>-4.8</ele>
        <time>2021-07-21T08:11:22Z</time>
      </trkpt>
      <trkpt lat="43.11314" lon="6.28868">
        <ele>-4.2</ele>
        <time>2021-07-21T08:11:35Z</time>
      </trkpt>
      <trkpt lat="43.11309" lon="6.28869">
        <ele>-5</ele>
        <time>2021-07-21T08:11:45Z</time>
      </trkpt>
      <trkpt lat="43.11308" lon="6.28869">
        <ele>-3.8</ele>
        <time>2021-07-21T08:11:49Z</time>
      </trkpt>
      <trkpt lat="43.11303" lon="6.28872">
        <ele>-3</ele>
        <time>2021-07-21T08:11:58Z</time>
      </trkpt>
      <trkpt lat="43.11295" lon="6.28875">
        <ele>-4.8</ele>
        <time>2021-07-21T08:12:13Z</time>
      </trkpt>
      <trkpt lat="43.11294" lon="6.28875">
        <ele>-4.8</ele>
        <time>2021-07-21T08:12:15Z</time>
      </trkpt>
      <trkpt lat="43.11291" lon="6.28876">
        <ele>-5.2</ele>
        <time>2021-07-21T08:12:26Z</time>
      </trkpt>
      <trkpt lat="43.11288" lon="6.28877">
        <ele>-5.6</ele>
        <time>2021-07-21T08:12:37Z</time>
      </trkpt>
      <trkpt lat="43.11287" lon="6.28876">
        <ele>-6</ele>
        <time>2021-07-21T08:12:39Z</time>
      </trkpt>
      <trkpt lat="43.11285" lon="6.28873">
        <ele>-7</ele>
        <time>2021-07-21T08:12:46Z</time>
      </trkpt>
      <trkpt lat="43.11284" lon="6.28873">
        <ele>-7.2</ele>
        <time>2021-07-21T08:12:47Z</time>
      </trkpt>
      <trkpt lat="43.11281" lon="6.28873">
        <ele>-7.4</ele>
        <time>2021-07-21T08:12:56Z</time>
      </trkpt>
      <trkpt lat="43.11279" lon="6.28873">
        <ele>-6.8</ele>
        <time>2021-07-21T08:13:06Z</time>
      </trkpt>
      <trkpt lat="43.11272" lon="6.28873">
        <ele>-7.2</ele>
        <time>2021-07-21T08:13:16Z</time>
      </trkpt>
      <trkpt lat="43.11263" lon="6.28871">
        <ele>-7.4</ele>
        <time>2021-07-21T08:13:28Z</time>
      </trkpt>
      <trkpt lat="43.11262" lon="6.28871">
        <ele>-7.4</ele>
        <time>2021-07-21T08:13:29Z</time>
      </trkpt>
      <trkpt lat="43.1126" lon="6.28871">
        <ele>-8.2</ele>
        <time>2021-07-21T08:13:32Z</time>
      </trkpt>
      <trkpt lat="43.1126" lon="6.28868">
        <ele>-8.4</ele>
        <time>2021-07-21T08:13:35Z</time>
      </trkpt>
      <trkpt lat="43.11261" lon="6.28866">
        <ele>-8.6</ele>
        <time>2021-07-21T08:13:37Z</time>
      </trkpt>
      <trkpt lat="43.1126" lon="6.28866">
        <ele>-8.6</ele>
        <time>2021-07-21T08:13:38Z</time>
      </trkpt>
      <trkpt lat="43.11261" lon="6.28866">
        <ele>-8.8</ele>
        <time>2021-07-21T08:13:39Z</time>
      </trkpt>
      <trkpt lat="43.11261" lon="6.28866">
        <ele>-8.8</ele>
        <time>2021-07-21T08:13:40Z</time>
      </trkpt>
      <trkpt lat="43.11261" lon="6.28866">
        <ele>-9</ele>
        <time>2021-07-21T08:13:46Z</time>
      </trkpt>
      <trkpt lat="43.11261" lon="6.28867">
        <ele>-9.2</ele>
        <time>2021-07-21T08:13:49Z</time>
      </trkpt>
      <trkpt lat="43.11256" lon="6.28869">
        <ele>-8.2</ele>
        <time>2021-07-21T08:13:57Z</time>
      </trkpt>
      <trkpt lat="43.11244" lon="6.28871">
        <ele>-8.4</ele>
        <time>2021-07-21T08:14:08Z</time>
      </trkpt>
      <trkpt lat="43.1123" lon="6.28865">
        <ele>-8.6</ele>
        <time>2021-07-21T08:14:24Z</time>
      </trkpt>
      <trkpt lat="43.11229" lon="6.28865">
        <ele>-8.6</ele>
        <time>2021-07-21T08:14:26Z</time>
      </trkpt>
      <trkpt lat="43.11224" lon="6.2886">
        <ele>-8.2</ele>
        <time>2021-07-21T08:14:35Z</time>
      </trkpt>
      <trkpt lat="43.11215" lon="6.28853">
        <ele>-8.6</ele>
        <time>2021-07-21T08:14:49Z</time>
      </trkpt>
      <trkpt lat="43.11203" lon="6.2885">
        <ele>-8</ele>
        <time>2021-07-21T08:15:01Z</time>
      </trkpt>
      <trkpt lat="43.11201" lon="6.28849">
        <ele>-8</ele>
        <time>2021-07-21T08:15:02Z</time>
      </trkpt>
      <trkpt lat="43.11184" lon="6.28837">
        <ele>-8.2</ele>
        <time>2021-07-21T08:15:16Z</time>
      </trkpt>
      <trkpt lat="43.11176" lon="6.28825">
        <ele>-8.6</ele>
        <time>2021-07-21T08:15:28Z</time>
      </trkpt>
      <trkpt lat="43.11174" lon="6.28819">
        <ele>-8.6</ele>
        <time>2021-07-21T08:15:36Z</time>
      </trkpt>
      <trkpt lat="43.11174" lon="6.28819">
        <ele>-8.4</ele>
        <time>2021-07-21T08:15:38Z</time>
      </trkpt>
      <trkpt lat="43.11171" lon="6.28813">
        <ele>-7.8</ele>
        <time>2021-07-21T08:15:51Z</time>
      </trkpt>
      <trkpt lat="43.11169" lon="6.28809">
        <ele>-7</ele>
        <time>2021-07-21T08:15:56Z</time>
      </trkpt>
      <trkpt lat="43.11167" lon="6.28805">
        <ele>-6.4</ele>
        <time>2021-07-21T08:16:03Z</time>
      </trkpt>
      <trkpt lat="43.11165" lon="6.28796">
        <ele>-5.8</ele>
        <time>2021-07-21T08:16:13Z</time>
      </trkpt>
      <trkpt lat="43.11162" lon="6.28793">
        <ele>-5.2</ele>
        <time>2021-07-21T08:16:18Z</time>
      </trkpt>
      <trkpt lat="43.1116" lon="6.28793">
        <ele>-4.8</ele>
        <time>2021-07-21T08:16:20Z</time>
      </trkpt>
      <trkpt lat="43.11159" lon="6.28788">
        <ele>-3.8</ele>
        <time>2021-07-21T08:16:25Z</time>
      </trkpt>
      <trkpt lat="43.11158" lon="6.28786">
        <ele>-3.4</ele>
        <time>2021-07-21T08:16:27Z</time>
      </trkpt>
      <trkpt lat="43.11159" lon="6.28784">
        <ele>-3.2</ele>
        <time>2021-07-21T08:16:29Z</time>
      </trkpt>
      <trkpt lat="43.11161" lon="6.28782">
        <ele>-3.2</ele>
        <time>2021-07-21T08:16:31Z</time>
      </trkpt>
      <trkpt lat="43.11162" lon="6.2878">
        <ele>-2.6</ele>
        <time>2021-07-21T08:16:33Z</time>
      </trkpt>
      <trkpt lat="43.11166" lon="6.28775">
        <ele>-1.8</ele>
        <time>2021-07-21T08:16:39Z</time>
      </trkpt>
      <trkpt lat="43.11166" lon="6.28774">
        <ele>-1.8</ele>
        <time>2021-07-21T08:16:40Z</time>
      </trkpt>
      <trkpt lat="43.11168" lon="6.28772">
        <ele>-1.4</ele>
        <time>2021-07-21T08:16:42Z</time>
      </trkpt>
      <trkpt lat="43.11168" lon="6.28765">
        <ele>-0.6</ele>
        <time>2021-07-21T08:16:48Z</time>
      </trkpt>
      <trkpt lat="43.11169" lon="6.28761">
        <ele>-0.2</ele>
        <time>2021-07-21T08:16:51Z</time>
      </trkpt>
      <trkpt lat="43.11169" lon="6.2876">
        <ele>-0.2</ele>
        <time>2021-07-21T08:16:52Z</time>
      </trkpt>
      <trkpt lat="43.11169" lon="6.2876">
        <ele>-0.2</ele>
        <time>2021-07-21T08:16:53Z</time>
      </trkpt>
      <trkpt lat="43.11167" lon="6.28756">
        <ele>0.8</ele>
        <time>2021-07-21T08:16:58Z</time>
      </trkpt>
      <trkpt lat="43.11166" lon="6.28754">
        <ele>1.6</ele>
        <time>2021-07-21T08:17:00Z</time>
      </trkpt>
      <trkpt lat="43.11165" lon="6.28752">
        <ele>2</ele>
        <time>2021-07-21T08:17:02Z</time>
      </trkpt>
      <trkpt lat="43.11165" lon="6.28751">
        <ele>2.4</ele>
        <time>2021-07-21T08:17:03Z</time>
      </trkpt>
      <trkpt lat="43.11163" lon="6.28747">
        <ele>3</ele>
        <time>2021-07-21T08:17:06Z</time>
      </trkpt>
      <trkpt lat="43.11163" lon="6.28745">
        <ele>3.6</ele>
        <time>2021-07-21T08:17:08Z</time>
      </trkpt>
      <trkpt lat="43.11162" lon="6.28742">
        <ele>4</ele>
        <time>2021-07-21T08:17:10Z</time>
      </trkpt>
      <trkpt lat="43.11162" lon="6.28741">
        <ele>4.2</ele>
        <time>2021-07-21T08:17:11Z</time>
      </trkpt>
      <trkpt lat="43.11158" lon="6.28735">
        <ele>5.4</ele>
        <time>2021-07-21T08:17:16Z</time>
      </trkpt>
      <trkpt lat="43.11157" lon="6.28728">
        <ele>6.4</ele>
        <time>2021-07-21T08:17:22Z</time>
      </trkpt>
      <trkpt lat="43.11156" lon="6.28723">
        <ele>6.8</ele>
        <time>2021-07-21T08:17:26Z</time>
      </trkpt>
      <trkpt lat="43.11151" lon="6.2872">
        <ele>7.2</ele>
        <time>2021-07-21T08:17:30Z</time>
      </trkpt>
      <trkpt lat="43.11148" lon="6.28718">
        <ele>7.4</ele>
        <time>2021-07-21T08:17:33Z</time>
      </trkpt>
      <trkpt lat="43.11147" lon="6.28717">
        <ele>7.6</ele>
        <time>2021-07-21T08:17:34Z</time>
      </trkpt>
      <trkpt lat="43.11142" lon="6.28713">
        <ele>8.6</ele>
        <time>2021-07-21T08:17:39Z</time>
      </trkpt>
      <trkpt lat="43.11137" lon="6.28707">
        <ele>9.2</ele>
        <time>2021-07-21T08:17:47Z</time>
      </trkpt>
      <trkpt lat="43.11136" lon="6.28706">
        <ele>9</ele>
        <time>2021-07-21T08:17:49Z</time>
      </trkpt>
      <trkpt lat="43.11134" lon="6.28703">
        <ele>8.6</ele>
        <time>2021-07-21T08:17:53Z</time>
      </trkpt>
      <trkpt lat="43.11131" lon="6.28698">
        <ele>8.6</ele>
        <time>2021-07-21T08:17:58Z</time>
      </trkpt>
      <trkpt lat="43.11129" lon="6.28697">
        <ele>8.8</ele>
        <time>2021-07-21T08:18:01Z</time>
      </trkpt>
      <trkpt lat="43.11128" lon="6.28697">
        <ele>8.8</ele>
        <time>2021-07-21T08:18:04Z</time>
      </trkpt>
      <trkpt lat="43.11125" lon="6.28697">
        <ele>8.8</ele>
        <time>2021-07-21T08:18:07Z</time>
      </trkpt>
      <trkpt lat="43.11125" lon="6.28697">
        <ele>8.8</ele>
        <time>2021-07-21T08:18:08Z</time>
      </trkpt>
      <trkpt lat="43.11119" lon="6.28696">
        <ele>9.4</ele>
        <time>2021-07-21T08:18:18Z</time>
      </trkpt>
      <trkpt lat="43.11119" lon="6.28696">
        <ele>9.4</ele>
        <time>2021-07-21T08:18:19Z</time>
      </trkpt>
      <trkpt lat="43.11119" lon="6.28695">
        <ele>9.6</ele>
        <time>2021-07-21T08:18:20Z</time>
      </trkpt>
      <trkpt lat="43.11119" lon="6.28695">
        <ele>10</ele>
        <time>2021-07-21T08:18:28Z</time>
      </trkpt>
      <trkpt lat="43.11118" lon="6.28695">
        <ele>9.2</ele>
        <time>2021-07-21T08:18:41Z</time>
      </trkpt>
      <trkpt lat="43.11113" lon="6.28693">
        <ele>8.8</ele>
        <time>2021-07-21T08:18:50Z</time>
      </trkpt>
      <trkpt lat="43.11108" lon="6.28691">
        <ele>8.6</ele>
        <time>2021-07-21T08:18:56Z</time>
      </trkpt>
      <trkpt lat="43.11107" lon="6.28691">
        <ele>8.4</ele>
        <time>2021-07-21T08:18:57Z</time>
      </trkpt>
      <trkpt lat="43.11107" lon="6.2869">
        <ele>8.4</ele>
        <time>2021-07-21T08:18:58Z</time>
      </trkpt>
      <trkpt lat="43.11106" lon="6.2869">
        <ele>7.8</ele>
        <time>2021-07-21T08:19:00Z</time>
      </trkpt>
      <trkpt lat="43.11105" lon="6.28689">
        <ele>7.8</ele>
        <time>2021-07-21T08:19:01Z</time>
      </trkpt>
      <trkpt lat="43.11104" lon="6.28688">
        <ele>7.6</ele>
        <time>2021-07-21T08:19:02Z</time>
      </trkpt>
      <trkpt lat="43.11103" lon="6.28688">
        <ele>7.2</ele>
        <time>2021-07-21T08:19:03Z</time>
      </trkpt>
      <trkpt lat="43.11098" lon="6.28686">
        <ele>6.6</ele>
        <time>2021-07-21T08:19:08Z</time>
      </trkpt>
      <trkpt lat="43.11094" lon="6.28685">
        <ele>6.4</ele>
        <time>2021-07-21T08:19:13Z</time>
      </trkpt>
      <trkpt lat="43.11092" lon="6.28684">
        <ele>6.2</ele>
        <time>2021-07-21T08:19:14Z</time>
      </trkpt>
      <trkpt lat="43.11089" lon="6.28686">
        <ele>5.8</ele>
        <time>2021-07-21T08:19:19Z</time>
      </trkpt>
      <trkpt lat="43.11088" lon="6.28687">
        <ele>5.6</ele>
        <time>2021-07-21T08:19:22Z</time>
      </trkpt>
      <trkpt lat="43.11088" lon="6.28686">
        <ele>8</ele>
        <time>2021-07-21T08:19:24Z</time>
      </trkpt>
      <trkpt lat="43.11089" lon="6.28687">
        <ele>9.4</ele>
        <time>2021-07-21T08:19:26Z</time>
      </trkpt>
      <trkpt lat="43.11089" lon="6.28687">
        <ele>10.6</ele>
        <time>2021-07-21T08:19:30Z</time>
      </trkpt>
      <trkpt lat="43.1109" lon="6.28687">
        <ele>11.2</ele>
        <time>2021-07-21T08:19:38Z</time>
      </trkpt>
      <trkpt lat="43.1109" lon="6.28688">
        <ele>8.6</ele>
        <time>2021-07-21T08:19:43Z</time>
      </trkpt>
      <trkpt lat="43.1109" lon="6.28688">
        <ele>7.2</ele>
        <time>2021-07-21T08:19:45Z</time>
      </trkpt>
      <trkpt lat="43.1109" lon="6.28688">
        <ele>6.6</ele>
        <time>2021-07-21T08:19:49Z</time>
      </trkpt>
      <trkpt lat="43.11089" lon="6.28688">
        <ele>6.2</ele>
        <time>2021-07-21T08:19:55Z</time>
      </trkpt>
      <trkpt lat="43.1109" lon="6.28687">
        <ele>6.6</ele>
        <time>2021-07-21T08:20:05Z</time>
      </trkpt>
      <trkpt lat="43.1109" lon="6.28688">
        <ele>5.6</ele>
        <time>2021-07-21T08:20:14Z</time>
      </trkpt>
      <trkpt lat="43.1109" lon="6.28688">
        <ele>5.6</ele>
        <time>2021-07-21T08:20:25Z</time>
      </trkpt>
      <trkpt lat="43.1109" lon="6.28689">
        <ele>5.8</ele>
        <time>2021-07-21T08:20:37Z</time>
      </trkpt>
      <trkpt lat="43.1109" lon="6.28688">
        <ele>6</ele>
        <time>2021-07-21T08:20:50Z</time>
      </trkpt>
      <trkpt lat="43.11089" lon="6.28688">
        <ele>6.2</ele>
        <time>2021-07-21T08:21:04Z</time>
      </trkpt>
      <trkpt lat="43.11085" lon="6.28687">
        <ele>6.2</ele>
        <time>2021-07-21T08:21:17Z</time>
      </trkpt>
      <trkpt lat="43.11077" lon="6.28691">
        <ele>7</ele>
        <time>2021-07-21T08:21:27Z</time>
      </trkpt>
      <trkpt lat="43.11076" lon="6.28692">
        <ele>7.4</ele>
        <time>2021-07-21T08:21:29Z</time>
      </trkpt>
      <trkpt lat="43.11075" lon="6.28695">
        <ele>8.6</ele>
        <time>2021-07-21T08:21:33Z</time>
      </trkpt>
      <trkpt lat="43.11071" lon="6.28697">
        <ele>9</ele>
        <time>2021-07-21T08:21:38Z</time>
      </trkpt>
      <trkpt lat="43.1107" lon="6.28701">
        <ele>9.6</ele>
        <time>2021-07-21T08:21:42Z</time>
      </trkpt>
      <trkpt lat="43.11068" lon="6.28706">
        <ele>10.6</ele>
        <time>2021-07-21T08:21:47Z</time>
      </trkpt>
      <trkpt lat="43.11068" lon="6.28707">
        <ele>11</ele>
        <time>2021-07-21T08:21:48Z</time>
      </trkpt>
      <trkpt lat="43.11068" lon="6.28708">
        <ele>11.2</ele>
        <time>2021-07-21T08:21:49Z</time>
      </trkpt>
      <trkpt lat="43.11066" lon="6.2871">
        <ele>11.6</ele>
        <time>2021-07-21T08:21:51Z</time>
      </trkpt>
      <trkpt lat="43.11063" lon="6.28714">
        <ele>12.8</ele>
        <time>2021-07-21T08:21:56Z</time>
      </trkpt>
      <trkpt lat="43.11061" lon="6.28718">
        <ele>13.4</ele>
        <time>2021-07-21T08:22:00Z</time>
      </trkpt>
      <trkpt lat="43.1106" lon="6.28721">
        <ele>13.8</ele>
        <time>2021-07-21T08:22:03Z</time>
      </trkpt>
      <trkpt lat="43.11056" lon="6.28727">
        <ele>14.8</ele>
        <time>2021-07-21T08:22:11Z</time>
      </trkpt>
      <trkpt lat="43.11056" lon="6.28727">
        <ele>15.2</ele>
        <time>2021-07-21T08:22:12Z</time>
      </trkpt>
      <trkpt lat="43.11055" lon="6.28728">
        <ele>15.6</ele>
        <time>2021-07-21T08:22:13Z</time>
      </trkpt>
      <trkpt lat="43.11055" lon="6.28729">
        <ele>15.6</ele>
        <time>2021-07-21T08:22:14Z</time>
      </trkpt>
      <trkpt lat="43.11054" lon="6.28733">
        <ele>16.4</ele>
        <time>2021-07-21T08:22:19Z</time>
      </trkpt>
      <trkpt lat="43.11058" lon="6.28736">
        <ele>17.2</ele>
        <time>2021-07-21T08:22:25Z</time>
      </trkpt>
      <trkpt lat="43.11059" lon="6.28736">
        <ele>17.6</ele>
        <time>2021-07-21T08:22:26Z</time>
      </trkpt>
      <trkpt lat="43.1106" lon="6.28736">
        <ele>18.8</ele>
        <time>2021-07-21T08:22:31Z</time>
      </trkpt>
      <trkpt lat="43.11059" lon="6.28736">
        <ele>18.8</ele>
        <time>2021-07-21T08:22:34Z</time>
      </trkpt>
      <trkpt lat="43.11054" lon="6.28736">
        <ele>17.6</ele>
        <time>2021-07-21T08:22:40Z</time>
      </trkpt>
      <trkpt lat="43.11052" lon="6.28736">
        <ele>17.4</ele>
        <time>2021-07-21T08:22:42Z</time>
      </trkpt>
      <trkpt lat="43.11045" lon="6.2874">
        <ele>16.6</ele>
        <time>2021-07-21T08:22:51Z</time>
      </trkpt>
      <trkpt lat="43.11038" lon="6.28753">
        <ele>16.8</ele>
        <time>2021-07-21T08:23:02Z</time>
      </trkpt>
      <trkpt lat="43.11037" lon="6.28756">
        <ele>17.6</ele>
        <time>2021-07-21T08:23:04Z</time>
      </trkpt>
      <trkpt lat="43.11037" lon="6.28762">
        <ele>18.8</ele>
        <time>2021-07-21T08:23:09Z</time>
      </trkpt>
      <trkpt lat="43.11037" lon="6.28767">
        <ele>19.8</ele>
        <time>2021-07-21T08:23:13Z</time>
      </trkpt>
      <trkpt lat="43.11038" lon="6.28768">
        <ele>20</ele>
        <time>2021-07-21T08:23:14Z</time>
      </trkpt>
      <trkpt lat="43.11037" lon="6.28777">
        <ele>20.8</ele>
        <time>2021-07-21T08:23:22Z</time>
      </trkpt>
      <trkpt lat="43.11037" lon="6.28777">
        <ele>20.6</ele>
        <time>2021-07-21T08:23:23Z</time>
      </trkpt>
      <trkpt lat="43.11037" lon="6.28777">
        <ele>20.8</ele>
        <time>2021-07-21T08:23:24Z</time>
      </trkpt>
      <trkpt lat="43.11039" lon="6.28778">
        <ele>21</ele>
        <time>2021-07-21T08:23:27Z</time>
      </trkpt>
      <trkpt lat="43.11038" lon="6.2878">
        <ele>20.8</ele>
        <time>2021-07-21T08:23:33Z</time>
      </trkpt>
      <trkpt lat="43.11035" lon="6.28786">
        <ele>20</ele>
        <time>2021-07-21T08:23:43Z</time>
      </trkpt>
      <trkpt lat="43.11033" lon="6.28789">
        <ele>19.6</ele>
        <time>2021-07-21T08:23:45Z</time>
      </trkpt>
      <trkpt lat="43.11031" lon="6.2879">
        <ele>18.8</ele>
        <time>2021-07-21T08:23:48Z</time>
      </trkpt>
      <trkpt lat="43.11031" lon="6.2879">
        <ele>18.6</ele>
        <time>2021-07-21T08:23:50Z</time>
      </trkpt>
      <trkpt lat="43.11031" lon="6.2879">
        <ele>18.6</ele>
        <time>2021-07-21T08:23:52Z</time>
      </trkpt>
      <trkpt lat="43.11031" lon="6.28792">
        <ele>18.6</ele>
        <time>2021-07-21T08:23:54Z</time>
      </trkpt>
      <trkpt lat="43.11028" lon="6.28805">
        <ele>17.8</ele>
        <time>2021-07-21T08:24:03Z</time>
      </trkpt>
      <trkpt lat="43.11028" lon="6.28807">
        <ele>17.8</ele>
        <time>2021-07-21T08:24:04Z</time>
      </trkpt>
      <trkpt lat="43.11023" lon="6.28821">
        <ele>16.6</ele>
        <time>2021-07-21T08:24:15Z</time>
      </trkpt>
      <trkpt lat="43.11023" lon="6.28822">
        <ele>16.6</ele>
        <time>2021-07-21T08:24:16Z</time>
      </trkpt>
      <trkpt lat="43.11018" lon="6.28824">
        <ele>16.4</ele>
        <time>2021-07-21T08:24:24Z</time>
      </trkpt>
      <trkpt lat="43.11014" lon="6.28832">
        <ele>16.4</ele>
        <time>2021-07-21T08:24:30Z</time>
      </trkpt>
      <trkpt lat="43.11013" lon="6.28834">
        <ele>16.4</ele>
        <time>2021-07-21T08:24:32Z</time>
      </trkpt>
      <trkpt lat="43.11003" lon="6.28847">
        <ele>16.2</ele>
        <time>2021-07-21T08:24:45Z</time>
      </trkpt>
      <trkpt lat="43.10996" lon="6.28851">
        <ele>16.8</ele>
        <time>2021-07-21T08:24:53Z</time>
      </trkpt>
      <trkpt lat="43.10996" lon="6.28852">
        <ele>17</ele>
        <time>2021-07-21T08:24:55Z</time>
      </trkpt>
      <trkpt lat="43.10994" lon="6.28858">
        <ele>17</ele>
        <time>2021-07-21T08:24:59Z</time>
      </trkpt>
      <trkpt lat="43.10993" lon="6.28863">
        <ele>18.4</ele>
        <time>2021-07-21T08:25:02Z</time>
      </trkpt>
      <trkpt lat="43.10993" lon="6.28864">
        <ele>19</ele>
        <time>2021-07-21T08:25:03Z</time>
      </trkpt>
      <trkpt lat="43.10993" lon="6.28865">
        <ele>19</ele>
        <time>2021-07-21T08:25:04Z</time>
      </trkpt>
      <trkpt lat="43.10991" lon="6.28867">
        <ele>18.2</ele>
        <time>2021-07-21T08:25:06Z</time>
      </trkpt>
      <trkpt lat="43.1099" lon="6.28868">
        <ele>19.4</ele>
        <time>2021-07-21T08:25:07Z</time>
      </trkpt>
      <trkpt lat="43.10988" lon="6.2887">
        <ele>17.8</ele>
        <time>2021-07-21T08:25:10Z</time>
      </trkpt>
      <trkpt lat="43.10986" lon="6.28871">
        <ele>16.8</ele>
        <time>2021-07-21T08:25:12Z</time>
      </trkpt>
      <trkpt lat="43.10986" lon="6.28871">
        <ele>16.2</ele>
        <time>2021-07-21T08:25:14Z</time>
      </trkpt>
      <trkpt lat="43.10985" lon="6.2887">
        <ele>16</ele>
        <time>2021-07-21T08:25:16Z</time>
      </trkpt>
      <trkpt lat="43.10983" lon="6.28869">
        <ele>16</ele>
        <time>2021-07-21T08:25:19Z</time>
      </trkpt>
      <trkpt lat="43.10982" lon="6.28871">
        <ele>15.8</ele>
        <time>2021-07-21T08:25:21Z</time>
      </trkpt>
      <trkpt lat="43.10981" lon="6.2887">
        <ele>15.6</ele>
        <time>2021-07-21T08:25:22Z</time>
      </trkpt>
      <trkpt lat="43.10979" lon="6.28869">
        <ele>14.4</ele>
        <time>2021-07-21T08:25:26Z</time>
      </trkpt>
      <trkpt lat="43.10979" lon="6.28869">
        <ele>14</ele>
        <time>2021-07-21T08:25:31Z</time>
      </trkpt>
      <trkpt lat="43.10979" lon="6.2887">
        <ele>14.4</ele>
        <time>2021-07-21T08:25:42Z</time>
      </trkpt>
      <trkpt lat="43.10986" lon="6.28871">
        <ele>15.6</ele>
        <time>2021-07-21T08:25:51Z</time>
      </trkpt>
      <trkpt lat="43.10987" lon="6.28876">
        <ele>16.2</ele>
        <time>2021-07-21T08:25:55Z</time>
      </trkpt>
      <trkpt lat="43.10988" lon="6.28879">
        <ele>16.2</ele>
        <time>2021-07-21T08:25:58Z</time>
      </trkpt>
      <trkpt lat="43.1099" lon="6.28885">
        <ele>15.8</ele>
        <time>2021-07-21T08:26:03Z</time>
      </trkpt>
      <trkpt lat="43.10991" lon="6.28893">
        <ele>14.8</ele>
        <time>2021-07-21T08:26:10Z</time>
      </trkpt>
      <trkpt lat="43.10991" lon="6.28896">
        <ele>14.4</ele>
        <time>2021-07-21T08:26:13Z</time>
      </trkpt>
      <trkpt lat="43.10989" lon="6.289">
        <ele>14.2</ele>
        <time>2021-07-21T08:26:16Z</time>
      </trkpt>
      <trkpt lat="43.10985" lon="6.28903">
        <ele>13.6</ele>
        <time>2021-07-21T08:26:20Z</time>
      </trkpt>
      <trkpt lat="43.10981" lon="6.28908">
        <ele>13.4</ele>
        <time>2021-07-21T08:26:25Z</time>
      </trkpt>
      <trkpt lat="43.10975" lon="6.28915">
        <ele>13</ele>
        <time>2021-07-21T08:26:33Z</time>
      </trkpt>
      <trkpt lat="43.10972" lon="6.28922">
        <ele>12.2</ele>
        <time>2021-07-21T08:26:40Z</time>
      </trkpt>
      <trkpt lat="43.1097" lon="6.28928">
        <ele>11.8</ele>
        <time>2021-07-21T08:26:45Z</time>
      </trkpt>
      <trkpt lat="43.10967" lon="6.28933">
        <ele>11.2</ele>
        <time>2021-07-21T08:26:51Z</time>
      </trkpt>
      <trkpt lat="43.10966" lon="6.28935">
        <ele>11</ele>
        <time>2021-07-21T08:26:53Z</time>
      </trkpt>
      <trkpt lat="43.10964" lon="6.2894">
        <ele>10.6</ele>
        <time>2021-07-21T08:26:56Z</time>
      </trkpt>
      <trkpt lat="43.10964" lon="6.28942">
        <ele>10</ele>
        <time>2021-07-21T08:26:58Z</time>
      </trkpt>
      <trkpt lat="43.10955" lon="6.2895">
        <ele>9.2</ele>
        <time>2021-07-21T08:27:08Z</time>
      </trkpt>
      <trkpt lat="43.10939" lon="6.28951">
        <ele>11</ele>
        <time>2021-07-21T08:27:22Z</time>
      </trkpt>
      <trkpt lat="43.10937" lon="6.28952">
        <ele>11.2</ele>
        <time>2021-07-21T08:27:24Z</time>
      </trkpt>
      <trkpt lat="43.10932" lon="6.28961">
        <ele>12</ele>
        <time>2021-07-21T08:27:32Z</time>
      </trkpt>
      <trkpt lat="43.10931" lon="6.28963">
        <ele>12</ele>
        <time>2021-07-21T08:27:33Z</time>
      </trkpt>
      <trkpt lat="43.10931" lon="6.28964">
        <ele>12.2</ele>
        <time>2021-07-21T08:27:34Z</time>
      </trkpt>
      <trkpt lat="43.1093" lon="6.28967">
        <ele>12.4</ele>
        <time>2021-07-21T08:27:36Z</time>
      </trkpt>
      <trkpt lat="43.10921" lon="6.28979">
        <ele>13.2</ele>
        <time>2021-07-21T08:27:46Z</time>
      </trkpt>
      <trkpt lat="43.1092" lon="6.28981">
        <ele>13.4</ele>
        <time>2021-07-21T08:27:47Z</time>
      </trkpt>
      <trkpt lat="43.1091" lon="6.28996">
        <ele>14.2</ele>
        <time>2021-07-21T08:27:59Z</time>
      </trkpt>
      <trkpt lat="43.10908" lon="6.28998">
        <ele>14.4</ele>
        <time>2021-07-21T08:28:01Z</time>
      </trkpt>
      <trkpt lat="43.10894" lon="6.29015">
        <ele>15.2</ele>
        <time>2021-07-21T08:28:17Z</time>
      </trkpt>
      <trkpt lat="43.10891" lon="6.29019">
        <ele>15.6</ele>
        <time>2021-07-21T08:28:23Z</time>
      </trkpt>
      <trkpt lat="43.10891" lon="6.29019">
        <ele>15.8</ele>
        <time>2021-07-21T08:28:28Z</time>
      </trkpt>
      <trkpt lat="43.10891" lon="6.29022">
        <ele>15.2</ele>
        <time>2021-07-21T08:28:40Z</time>
      </trkpt>
      <trkpt lat="43.10892" lon="6.29023">
        <ele>14.8</ele>
        <time>2021-07-21T08:28:42Z</time>
      </trkpt>
      <trkpt lat="43.10894" lon="6.29025">
        <ele>14.2</ele>
        <time>2021-07-21T08:28:45Z</time>
      </trkpt>
      <trkpt lat="43.10894" lon="6.29029">
        <ele>13</ele>
        <time>2021-07-21T08:28:49Z</time>
      </trkpt>
      <trkpt lat="43.10895" lon="6.29031">
        <ele>12.4</ele>
        <time>2021-07-21T08:28:53Z</time>
      </trkpt>
      <trkpt lat="43.10897" lon="6.29034">
        <ele>11.8</ele>
        <time>2021-07-21T08:28:59Z</time>
      </trkpt>
      <trkpt lat="43.10898" lon="6.29038">
        <ele>11.2</ele>
        <time>2021-07-21T08:29:06Z</time>
      </trkpt>
      <trkpt lat="43.10899" lon="6.2904">
        <ele>10.6</ele>
        <time>2021-07-21T08:29:09Z</time>
      </trkpt>
      <trkpt lat="43.10899" lon="6.29041">
        <ele>9.2</ele>
        <time>2021-07-21T08:29:11Z</time>
      </trkpt>
      <trkpt lat="43.10902" lon="6.29044">
        <ele>7.8</ele>
        <time>2021-07-21T08:29:17Z</time>
      </trkpt>
      <trkpt lat="43.10902" lon="6.29048">
        <ele>7.2</ele>
        <time>2021-07-21T08:29:20Z</time>
      </trkpt>
      <trkpt lat="43.10902" lon="6.29051">
        <ele>6.6</ele>
        <time>2021-07-21T08:29:22Z</time>
      </trkpt>
      <trkpt lat="43.10903" lon="6.29054">
        <ele>5.8</ele>
        <time>2021-07-21T08:29:25Z</time>
      </trkpt>
      <trkpt lat="43.10904" lon="6.29056">
        <ele>5.6</ele>
        <time>2021-07-21T08:29:27Z</time>
      </trkpt>
      <trkpt lat="43.10905" lon="6.29057">
        <ele>5</ele>
        <time>2021-07-21T08:29:28Z</time>
      </trkpt>
      <trkpt lat="43.10906" lon="6.29059">
        <ele>4.4</ele>
        <time>2021-07-21T08:29:30Z</time>
      </trkpt>
      <trkpt lat="43.10907" lon="6.29062">
        <ele>3.8</ele>
        <time>2021-07-21T08:29:33Z</time>
      </trkpt>
      <trkpt lat="43.10909" lon="6.29063">
        <ele>3.2</ele>
        <time>2021-07-21T08:29:35Z</time>
      </trkpt>
      <trkpt lat="43.10913" lon="6.2907">
        <ele>2.2</ele>
        <time>2021-07-21T08:29:41Z</time>
      </trkpt>
      <trkpt lat="43.10915" lon="6.29075">
        <ele>1</ele>
        <time>2021-07-21T08:29:45Z</time>
      </trkpt>
      <trkpt lat="43.10916" lon="6.2908">
        <ele>-0.2</ele>
        <time>2021-07-21T08:29:51Z</time>
      </trkpt>
      <trkpt lat="43.10918" lon="6.29085">
        <ele>-1.2</ele>
        <time>2021-07-21T08:29:56Z</time>
      </trkpt>
      <trkpt lat="43.10922" lon="6.29088">
        <ele>-1.8</ele>
        <time>2021-07-21T08:30:00Z</time>
      </trkpt>
      <trkpt lat="43.10926" lon="6.29092">
        <ele>-2.4</ele>
        <time>2021-07-21T08:30:05Z</time>
      </trkpt>
      <trkpt lat="43.10929" lon="6.29096">
        <ele>-3.4</ele>
        <time>2021-07-21T08:30:09Z</time>
      </trkpt>
      <trkpt lat="43.10932" lon="6.29103">
        <ele>-4.6</ele>
        <time>2021-07-21T08:30:16Z</time>
      </trkpt>
      <trkpt lat="43.10933" lon="6.29105">
        <ele>-4.6</ele>
        <time>2021-07-21T08:30:17Z</time>
      </trkpt>
      <trkpt lat="43.10937" lon="6.29112">
        <ele>-5.2</ele>
        <time>2021-07-21T08:30:25Z</time>
      </trkpt>
      <trkpt lat="43.10937" lon="6.29113">
        <ele>-5.2</ele>
        <time>2021-07-21T08:30:27Z</time>
      </trkpt>
      <trkpt lat="43.10937" lon="6.29114">
        <ele>-5</ele>
        <time>2021-07-21T08:30:28Z</time>
      </trkpt>
      <trkpt lat="43.10938" lon="6.29116">
        <ele>-5</ele>
        <time>2021-07-21T08:30:30Z</time>
      </trkpt>
      <trkpt lat="43.10938" lon="6.29118">
        <ele>-5.8</ele>
        <time>2021-07-21T08:30:32Z</time>
      </trkpt>
      <trkpt lat="43.10938" lon="6.29118">
        <ele>-6.4</ele>
        <time>2021-07-21T08:30:37Z</time>
      </trkpt>
      <trkpt lat="43.10938" lon="6.29118">
        <ele>-6.8</ele>
        <time>2021-07-21T08:30:48Z</time>
      </trkpt>
      <trkpt lat="43.10938" lon="6.29118">
        <ele>-6.4</ele>
        <time>2021-07-21T08:30:55Z</time>
      </trkpt>
      <trkpt lat="43.10938" lon="6.29118">
        <ele>-5.8</ele>
        <time>2021-07-21T08:31:01Z</time>
      </trkpt>
      <trkpt lat="43.10937" lon="6.29118">
        <ele>-6</ele>
        <time>2021-07-21T08:31:07Z</time>
      </trkpt>
      <trkpt lat="43.10938" lon="6.29119">
        <ele>-6.4</ele>
        <time>2021-07-21T08:31:20Z</time>
      </trkpt>
      <trkpt lat="43.10937" lon="6.2912">
        <ele>-5.6</ele>
        <time>2021-07-21T08:31:32Z</time>
      </trkpt>
      <trkpt lat="43.10938" lon="6.29119">
        <ele>-6</ele>
        <time>2021-07-21T08:31:43Z</time>
      </trkpt>
      <trkpt lat="43.10933" lon="6.29122">
        <ele>-6.8</ele>
        <time>2021-07-21T08:31:53Z</time>
      </trkpt>
      <trkpt lat="43.10931" lon="6.29124">
        <ele>-6.8</ele>
        <time>2021-07-21T08:31:55Z</time>
      </trkpt>
      <trkpt lat="43.10931" lon="6.29124">
        <ele>-7.2</ele>
        <time>2021-07-21T08:31:56Z</time>
      </trkpt>
      <trkpt lat="43.10931" lon="6.29128">
        <ele>-7.6</ele>
        <time>2021-07-21T08:31:59Z</time>
      </trkpt>
      <trkpt lat="43.10931" lon="6.2913">
        <ele>-7.6</ele>
        <time>2021-07-21T08:32:02Z</time>
      </trkpt>
      <trkpt lat="43.10931" lon="6.2913">
        <ele>-7.6</ele>
        <time>2021-07-21T08:32:03Z</time>
      </trkpt>
      <trkpt lat="43.10932" lon="6.29137">
        <ele>-7.2</ele>
        <time>2021-07-21T08:32:08Z</time>
      </trkpt>
      <trkpt lat="43.10932" lon="6.2914">
        <ele>-6.8</ele>
        <time>2021-07-21T08:32:10Z</time>
      </trkpt>
      <trkpt lat="43.10934" lon="6.29144">
        <ele>-6.8</ele>
        <time>2021-07-21T08:32:14Z</time>
      </trkpt>
      <trkpt lat="43.10934" lon="6.29146">
        <ele>-6.8</ele>
        <time>2021-07-21T08:32:15Z</time>
      </trkpt>
      <trkpt lat="43.10932" lon="6.29159">
        <ele>-6.4</ele>
        <time>2021-07-21T08:32:25Z</time>
      </trkpt>
      <trkpt lat="43.10931" lon="6.29161">
        <ele>-6.8</ele>
        <time>2021-07-21T08:32:27Z</time>
      </trkpt>
      <trkpt lat="43.10929" lon="6.29171">
        <ele>-7.4</ele>
        <time>2021-07-21T08:32:35Z</time>
      </trkpt>
      <trkpt lat="43.10927" lon="6.29173">
        <ele>-8</ele>
        <time>2021-07-21T08:32:40Z</time>
      </trkpt>
      <trkpt lat="43.10925" lon="6.29175">
        <ele>-8.2</ele>
        <time>2021-07-21T08:32:44Z</time>
      </trkpt>
      <trkpt lat="43.10926" lon="6.29174">
        <ele>-7.6</ele>
        <time>2021-07-21T08:32:46Z</time>
      </trkpt>
      <trkpt lat="43.10927" lon="6.29178">
        <ele>-7.4</ele>
        <time>2021-07-21T08:32:56Z</time>
      </trkpt>
      <trkpt lat="43.10924" lon="6.29182">
        <ele>-8</ele>
        <time>2021-07-21T08:33:03Z</time>
      </trkpt>
      <trkpt lat="43.10924" lon="6.29182">
        <ele>-8</ele>
        <time>2021-07-21T08:33:04Z</time>
      </trkpt>
      <trkpt lat="43.10922" lon="6.29185">
        <ele>-7.8</ele>
        <time>2021-07-21T08:33:15Z</time>
      </trkpt>
      <trkpt lat="43.10926" lon="6.29181">
        <ele>-8.4</ele>
        <time>2021-07-21T08:33:24Z</time>
      </trkpt>
      <trkpt lat="43.10932" lon="6.29178">
        <ele>-6.8</ele>
        <time>2021-07-21T08:33:31Z</time>
      </trkpt>
      <trkpt lat="43.10933" lon="6.29178">
        <ele>-6.6</ele>
        <time>2021-07-21T08:33:32Z</time>
      </trkpt>
      <trkpt lat="43.1094" lon="6.29176">
        <ele>-5.8</ele>
        <time>2021-07-21T08:33:37Z</time>
      </trkpt>
      <trkpt lat="43.10947" lon="6.29176">
        <ele>-4.8</ele>
        <time>2021-07-21T08:33:44Z</time>
      </trkpt>
      <trkpt lat="43.10952" lon="6.2918">
        <ele>-4.4</ele>
        <time>2021-07-21T08:33:50Z</time>
      </trkpt>
      <trkpt lat="43.10951" lon="6.29192">
        <ele>-4.6</ele>
        <time>2021-07-21T08:33:58Z</time>
      </trkpt>
      <trkpt lat="43.10942" lon="6.29199">
        <ele>-4</ele>
        <time>2021-07-21T08:34:07Z</time>
      </trkpt>
      <trkpt lat="43.10941" lon="6.292">
        <ele>-3.8</ele>
        <time>2021-07-21T08:34:08Z</time>
      </trkpt>
      <trkpt lat="43.10934" lon="6.29213">
        <ele>-3</ele>
        <time>2021-07-21T08:34:18Z</time>
      </trkpt>
      <trkpt lat="43.10934" lon="6.29219">
        <ele>-3</ele>
        <time>2021-07-21T08:34:22Z</time>
      </trkpt>
      <trkpt lat="43.10932" lon="6.29222">
        <ele>-2.8</ele>
        <time>2021-07-21T08:34:25Z</time>
      </trkpt>
      <trkpt lat="43.10932" lon="6.29223">
        <ele>-2.6</ele>
        <time>2021-07-21T08:34:26Z</time>
      </trkpt>
      <trkpt lat="43.10931" lon="6.29223">
        <ele>-2.4</ele>
        <time>2021-07-21T08:34:28Z</time>
      </trkpt>
      <trkpt lat="43.10931" lon="6.29223">
        <ele>-3.6</ele>
        <time>2021-07-21T08:34:35Z</time>
      </trkpt>
      <trkpt lat="43.10932" lon="6.29223">
        <ele>-2.6</ele>
        <time>2021-07-21T08:34:48Z</time>
      </trkpt>
      <trkpt lat="43.10939" lon="6.29228">
        <ele>-2.6</ele>
        <time>2021-07-21T08:34:57Z</time>
      </trkpt>
      <trkpt lat="43.10943" lon="6.2924">
        <ele>-2.4</ele>
        <time>2021-07-21T08:35:07Z</time>
      </trkpt>
      <trkpt lat="43.10943" lon="6.29259">
        <ele>-2.6</ele>
        <time>2021-07-21T08:35:18Z</time>
      </trkpt>
      <trkpt lat="43.10943" lon="6.2928">
        <ele>-2.2</ele>
        <time>2021-07-21T08:35:32Z</time>
      </trkpt>
      <trkpt lat="43.10943" lon="6.29304">
        <ele>-2.2</ele>
        <time>2021-07-21T08:35:45Z</time>
      </trkpt>
      <trkpt lat="43.10942" lon="6.29324">
        <ele>-2.2</ele>
        <time>2021-07-21T08:35:59Z</time>
      </trkpt>
      <trkpt lat="43.10938" lon="6.29334">
        <ele>-1.6</ele>
        <time>2021-07-21T08:36:07Z</time>
      </trkpt>
      <trkpt lat="43.10935" lon="6.29335">
        <ele>-1.4</ele>
        <time>2021-07-21T08:36:09Z</time>
      </trkpt>
      <trkpt lat="43.1092" lon="6.2934">
        <ele>-1</ele>
        <time>2021-07-21T08:36:21Z</time>
      </trkpt>
      <trkpt lat="43.10905" lon="6.29341">
        <ele>-1.8</ele>
        <time>2021-07-21T08:36:34Z</time>
      </trkpt>
      <trkpt lat="43.10897" lon="6.29341">
        <ele>-1.4</ele>
        <time>2021-07-21T08:36:45Z</time>
      </trkpt>
      <trkpt lat="43.10896" lon="6.29341">
        <ele>-1.6</ele>
        <time>2021-07-21T08:36:46Z</time>
      </trkpt>
      <trkpt lat="43.10891" lon="6.29349">
        <ele>-1.6</ele>
        <time>2021-07-21T08:36:56Z</time>
      </trkpt>
      <trkpt lat="43.10878" lon="6.29362">
        <ele>-1.4</ele>
        <time>2021-07-21T08:37:09Z</time>
      </trkpt>
      <trkpt lat="43.10863" lon="6.29377">
        <ele>-1</ele>
        <time>2021-07-21T08:37:25Z</time>
      </trkpt>
      <trkpt lat="43.10861" lon="6.29378">
        <ele>-1</ele>
        <time>2021-07-21T08:37:26Z</time>
      </trkpt>
      <trkpt lat="43.10856" lon="6.29384">
        <ele>-0.6</ele>
        <time>2021-07-21T08:37:32Z</time>
      </trkpt>
      <trkpt lat="43.10851" lon="6.29391">
        <ele>-0.6</ele>
        <time>2021-07-21T08:37:39Z</time>
      </trkpt>
      <trkpt lat="43.1085" lon="6.29393">
        <ele>-0.4</ele>
        <time>2021-07-21T08:37:40Z</time>
      </trkpt>
      <trkpt lat="43.10843" lon="6.29396">
        <ele>8.6</ele>
        <time>2021-07-21T08:37:47Z</time>
      </trkpt>
      <trkpt lat="43.10833" lon="6.29394">
        <ele>0.2</ele>
        <time>2021-07-21T08:37:56Z</time>
      </trkpt>
      <trkpt lat="43.10831" lon="6.29386">
        <ele>0.4</ele>
        <time>2021-07-21T08:38:04Z</time>
      </trkpt>
      <trkpt lat="43.10831" lon="6.29386">
        <ele>0.4</ele>
        <time>2021-07-21T08:38:05Z</time>
      </trkpt>
      <trkpt lat="43.10831" lon="6.29385">
        <ele>0.6</ele>
        <time>2021-07-21T08:38:07Z</time>
      </trkpt>
      <trkpt lat="43.10831" lon="6.29384">
        <ele>1.4</ele>
        <time>2021-07-21T08:38:12Z</time>
      </trkpt>
      <trkpt lat="43.10831" lon="6.29384">
        <ele>1.4</ele>
        <time>2021-07-21T08:38:18Z</time>
      </trkpt>
      <trkpt lat="43.10831" lon="6.29385">
        <ele>0.4</ele>
        <time>2021-07-21T08:38:26Z</time>
      </trkpt>
      <trkpt lat="43.10831" lon="6.29385">
        <ele>9.1</ele>
        <time>2021-07-21T08:38:32Z</time>
      </trkpt>
      <trkpt lat="43.10831" lon="6.29386">
        <ele>0.2</ele>
        <time>2021-07-21T08:38:45Z</time>
      </trkpt>
      <trkpt lat="43.10828" lon="6.29395">
        <ele>0.4</ele>
        <time>2021-07-21T08:38:55Z</time>
      </trkpt>
      <trkpt lat="43.10825" lon="6.29403">
        <ele>1</ele>
        <time>2021-07-21T08:39:04Z</time>
      </trkpt>
      <trkpt lat="43.10825" lon="6.29405">
        <ele>1</ele>
        <time>2021-07-21T08:39:07Z</time>
      </trkpt>
      <trkpt lat="43.1082" lon="6.29405">
        <ele>-1</ele>
        <time>2021-07-21T08:39:14Z</time>
      </trkpt>
      <trkpt lat="43.10819" lon="6.29406">
        <ele>-2</ele>
        <time>2021-07-21T08:39:20Z</time>
      </trkpt>
      <trkpt lat="43.10819" lon="6.29406">
        <ele>-1</ele>
        <time>2021-07-21T08:39:23Z</time>
      </trkpt>
      <trkpt lat="43.1082" lon="6.29405">
        <ele>-0.8</ele>
        <time>2021-07-21T08:39:33Z</time>
      </trkpt>
      <trkpt lat="43.10824" lon="6.29407">
        <ele>-0.2</ele>
        <time>2021-07-21T08:39:44Z</time>
      </trkpt>
      <trkpt lat="43.10825" lon="6.29408">
        <ele>0.2</ele>
        <time>2021-07-21T08:39:47Z</time>
      </trkpt>
      <trkpt lat="43.10827" lon="6.29407">
        <ele>-0.6</ele>
        <time>2021-07-21T08:39:54Z</time>
      </trkpt>
      <trkpt lat="43.10828" lon="6.29408">
        <ele>-0.4</ele>
        <time>2021-07-21T08:40:09Z</time>
      </trkpt>
      <trkpt lat="43.10829" lon="6.29408">
        <ele>-0.6</ele>
        <time>2021-07-21T08:40:27Z</time>
      </trkpt>
      <trkpt lat="43.10829" lon="6.29408">
        <ele>-0.6</ele>
        <time>2021-07-21T08:40:44Z</time>
      </trkpt>
      <trkpt lat="43.10832" lon="6.29403">
        <ele>-0.6</ele>
        <time>2021-07-21T08:40:52Z</time>
      </trkpt>
      <trkpt lat="43.10835" lon="6.29405">
        <ele>-0.6</ele>
        <time>2021-07-21T08:40:57Z</time>
      </trkpt>
      <trkpt lat="43.10836" lon="6.29406">
        <ele>-0.6</ele>
        <time>2021-07-21T08:41:00Z</time>
      </trkpt>
      <trkpt lat="43.10837" lon="6.29406">
        <ele>0.6</ele>
        <time>2021-07-21T08:41:10Z</time>
      </trkpt>
      <trkpt lat="43.10835" lon="6.29405">
        <ele>-0.2</ele>
        <time>2021-07-21T08:41:17Z</time>
      </trkpt>
      <trkpt lat="43.10836" lon="6.29407">
        <ele>-0.4</ele>
        <time>2021-07-21T08:41:26Z</time>
      </trkpt>
      <trkpt lat="43.10836" lon="6.29407">
        <ele>-0.8</ele>
        <time>2021-07-21T08:41:35Z</time>
      </trkpt>
      <trkpt lat="43.10836" lon="6.29406">
        <ele>-1.2</ele>
        <time>2021-07-21T08:41:37Z</time>
      </trkpt>
      <trkpt lat="43.10835" lon="6.29406">
        <ele>-1.4</ele>
        <time>2021-07-21T08:41:53Z</time>
      </trkpt>
      <trkpt lat="43.10836" lon="6.29406">
        <ele>-1.2</ele>
        <time>2021-07-21T08:42:13Z</time>
      </trkpt>
      <trkpt lat="43.10836" lon="6.29406">
        <ele>-1.2</ele>
        <time>2021-07-21T08:42:25Z</time>
      </trkpt>
      <trkpt lat="43.10838" lon="6.29406">
        <ele>-1</ele>
        <time>2021-07-21T08:42:38Z</time>
      </trkpt>
      <trkpt lat="43.10849" lon="6.29405">
        <ele>-1.8</ele>
        <time>2021-07-21T08:42:48Z</time>
      </trkpt>
      <trkpt lat="43.10861" lon="6.29406">
        <ele>10.6</ele>
        <time>2021-07-21T08:42:59Z</time>
      </trkpt>
      <trkpt lat="43.10862" lon="6.29407">
        <ele>0.2</ele>
        <time>2021-07-21T08:43:00Z</time>
      </trkpt>
      <trkpt lat="43.10863" lon="6.29408">
        <ele>1</ele>
        <time>2021-07-21T08:43:04Z</time>
      </trkpt>
      <trkpt lat="43.10865" lon="6.2941">
        <ele>1</ele>
        <time>2021-07-21T08:43:06Z</time>
      </trkpt>
      <trkpt lat="43.10866" lon="6.29411">
        <ele>1</ele>
        <time>2021-07-21T08:43:07Z</time>
      </trkpt>
      <trkpt lat="43.10868" lon="6.29413">
        <ele>1.2</ele>
        <time>2021-07-21T08:43:09Z</time>
      </trkpt>
      <trkpt lat="43.1087" lon="6.2942">
        <ele>2.4</ele>
        <time>2021-07-21T08:43:15Z</time>
      </trkpt>
      <trkpt lat="43.10871" lon="6.29423">
        <ele>2.6</ele>
        <time>2021-07-21T08:43:17Z</time>
      </trkpt>
      <trkpt lat="43.10871" lon="6.29425">
        <ele>3.4</ele>
        <time>2021-07-21T08:43:21Z</time>
      </trkpt>
      <trkpt lat="43.10872" lon="6.29428">
        <ele>3.8</ele>
        <time>2021-07-21T08:43:24Z</time>
      </trkpt>
      <trkpt lat="43.10874" lon="6.29431">
        <ele>4.2</ele>
        <time>2021-07-21T08:43:27Z</time>
      </trkpt>
      <trkpt lat="43.10875" lon="6.29432">
        <ele>4.6</ele>
        <time>2021-07-21T08:43:29Z</time>
      </trkpt>
      <trkpt lat="43.10878" lon="6.29439">
        <ele>5.8</ele>
        <time>2021-07-21T08:43:36Z</time>
      </trkpt>
      <trkpt lat="43.1088" lon="6.29443">
        <ele>6.4</ele>
        <time>2021-07-21T08:43:40Z</time>
      </trkpt>
      <trkpt lat="43.10881" lon="6.29445">
        <ele>6.4</ele>
        <time>2021-07-21T08:43:45Z</time>
      </trkpt>
      <trkpt lat="43.10882" lon="6.29446">
        <ele>7</ele>
        <time>2021-07-21T08:43:48Z</time>
      </trkpt>
      <trkpt lat="43.10882" lon="6.29446">
        <ele>7.2</ele>
        <time>2021-07-21T08:43:49Z</time>
      </trkpt>
      <trkpt lat="43.10881" lon="6.29446">
        <ele>6.8</ele>
        <time>2021-07-21T08:44:03Z</time>
      </trkpt>
      <trkpt lat="43.10887" lon="6.29447">
        <ele>8</ele>
        <time>2021-07-21T08:44:11Z</time>
      </trkpt>
      <trkpt lat="43.10888" lon="6.29454">
        <ele>8.8</ele>
        <time>2021-07-21T08:44:20Z</time>
      </trkpt>
      <trkpt lat="43.10888" lon="6.29455">
        <ele>9</ele>
        <time>2021-07-21T08:44:23Z</time>
      </trkpt>
      <trkpt lat="43.1089" lon="6.29456">
        <ele>9.4</ele>
        <time>2021-07-21T08:44:32Z</time>
      </trkpt>
      <trkpt lat="43.10893" lon="6.29459">
        <ele>10.2</ele>
        <time>2021-07-21T08:44:36Z</time>
      </trkpt>
      <trkpt lat="43.10896" lon="6.29461">
        <ele>11.2</ele>
        <time>2021-07-21T08:44:39Z</time>
      </trkpt>
      <trkpt lat="43.10898" lon="6.29462">
        <ele>11.6</ele>
        <time>2021-07-21T08:44:41Z</time>
      </trkpt>
      <trkpt lat="43.109" lon="6.29464">
        <ele>11.8</ele>
        <time>2021-07-21T08:44:45Z</time>
      </trkpt>
      <trkpt lat="43.10901" lon="6.29464">
        <ele>11.8</ele>
        <time>2021-07-21T08:44:47Z</time>
      </trkpt>
      <trkpt lat="43.10901" lon="6.29465">
        <ele>12</ele>
        <time>2021-07-21T08:44:49Z</time>
      </trkpt>
      <trkpt lat="43.10901" lon="6.29465">
        <ele>12.4</ele>
        <time>2021-07-21T08:44:51Z</time>
      </trkpt>
      <trkpt lat="43.10904" lon="6.29466">
        <ele>12.2</ele>
        <time>2021-07-21T08:44:57Z</time>
      </trkpt>
      <trkpt lat="43.10914" lon="6.29468">
        <ele>12</ele>
        <time>2021-07-21T08:45:06Z</time>
      </trkpt>
      <trkpt lat="43.1092" lon="6.2947">
        <ele>11.2</ele>
        <time>2021-07-21T08:45:11Z</time>
      </trkpt>
      <trkpt lat="43.10934" lon="6.29475">
        <ele>10.6</ele>
        <time>2021-07-21T08:45:23Z</time>
      </trkpt>
      <trkpt lat="43.10937" lon="6.29478">
        <ele>10.2</ele>
        <time>2021-07-21T08:45:27Z</time>
      </trkpt>
      <trkpt lat="43.1094" lon="6.29482">
        <ele>9.2</ele>
        <time>2021-07-21T08:45:33Z</time>
      </trkpt>
      <trkpt lat="43.10943" lon="6.29484">
        <ele>8</ele>
        <time>2021-07-21T08:45:37Z</time>
      </trkpt>
      <trkpt lat="43.10948" lon="6.29489">
        <ele>6.8</ele>
        <time>2021-07-21T08:45:43Z</time>
      </trkpt>
      <trkpt lat="43.10949" lon="6.29489">
        <ele>6.4</ele>
        <time>2021-07-21T08:45:44Z</time>
      </trkpt>
      <trkpt lat="43.10954" lon="6.29491">
        <ele>5.6</ele>
        <time>2021-07-21T08:45:48Z</time>
      </trkpt>
      <trkpt lat="43.1096" lon="6.29494">
        <ele>4.4</ele>
        <time>2021-07-21T08:45:54Z</time>
      </trkpt>
      <trkpt lat="43.10963" lon="6.29495">
        <ele>4</ele>
        <time>2021-07-21T08:45:56Z</time>
      </trkpt>
      <trkpt lat="43.10974" lon="6.29497">
        <ele>3.4</ele>
        <time>2021-07-21T08:46:06Z</time>
      </trkpt>
      <trkpt lat="43.10978" lon="6.29496">
        <ele>2.8</ele>
        <time>2021-07-21T08:46:09Z</time>
      </trkpt>
      <trkpt lat="43.1098" lon="6.29496">
        <ele>2.4</ele>
        <time>2021-07-21T08:46:11Z</time>
      </trkpt>
      <trkpt lat="43.10988" lon="6.29501">
        <ele>1.4</ele>
        <time>2021-07-21T08:46:20Z</time>
      </trkpt>
      <trkpt lat="43.1099" lon="6.29501">
        <ele>1.2</ele>
        <time>2021-07-21T08:46:22Z</time>
      </trkpt>
      <trkpt lat="43.10997" lon="6.29501">
        <ele>0.2</ele>
        <time>2021-07-21T08:46:29Z</time>
      </trkpt>
      <trkpt lat="43.10998" lon="6.29501">
        <ele>0.2</ele>
        <time>2021-07-21T08:46:30Z</time>
      </trkpt>
      <trkpt lat="43.11012" lon="6.29505">
        <ele>-0.6</ele>
        <time>2021-07-21T08:46:41Z</time>
      </trkpt>
      <trkpt lat="43.11023" lon="6.29518">
        <ele>0.4</ele>
        <time>2021-07-21T08:46:53Z</time>
      </trkpt>
      <trkpt lat="43.11032" lon="6.29531">
        <ele>9.5</ele>
        <time>2021-07-21T08:47:03Z</time>
      </trkpt>
      <trkpt lat="43.11034" lon="6.29535">
        <ele>-0.8</ele>
        <time>2021-07-21T08:47:07Z</time>
      </trkpt>
      <trkpt lat="43.11035" lon="6.29536">
        <ele>-1.2</ele>
        <time>2021-07-21T08:47:08Z</time>
      </trkpt>
      <trkpt lat="43.11035" lon="6.29539">
        <ele>-1.8</ele>
        <time>2021-07-21T08:47:10Z</time>
      </trkpt>
      <trkpt lat="43.11035" lon="6.2954">
        <ele>-2.2</ele>
        <time>2021-07-21T08:47:11Z</time>
      </trkpt>
      <trkpt lat="43.11037" lon="6.29543">
        <ele>-3.2</ele>
        <time>2021-07-21T08:47:14Z</time>
      </trkpt>
      <trkpt lat="43.11039" lon="6.29546">
        <ele>-4</ele>
        <time>2021-07-21T08:47:17Z</time>
      </trkpt>
      <trkpt lat="43.1104" lon="6.29547">
        <ele>-4.4</ele>
        <time>2021-07-21T08:47:18Z</time>
      </trkpt>
      <trkpt lat="43.11045" lon="6.29555">
        <ele>-5.4</ele>
        <time>2021-07-21T08:47:26Z</time>
      </trkpt>
      <trkpt lat="43.1105" lon="6.29576">
        <ele>-5.4</ele>
        <time>2021-07-21T08:47:37Z</time>
      </trkpt>
      <trkpt lat="43.11052" lon="6.29597">
        <ele>-4.6</ele>
        <time>2021-07-21T08:47:52Z</time>
      </trkpt>
      <trkpt lat="43.11052" lon="6.29597">
        <ele>-4.6</ele>
        <time>2021-07-21T08:47:54Z</time>
      </trkpt>
      <trkpt lat="43.11052" lon="6.29597">
        <ele>-4.4</ele>
        <time>2021-07-21T08:47:58Z</time>
      </trkpt>
      <trkpt lat="43.11052" lon="6.29598">
        <ele>-3.6</ele>
        <time>2021-07-21T08:48:02Z</time>
      </trkpt>
      <trkpt lat="43.11054" lon="6.29598">
        <ele>-4.6</ele>
        <time>2021-07-21T08:48:12Z</time>
      </trkpt>
      <trkpt lat="43.11054" lon="6.29598">
        <ele>-5</ele>
        <time>2021-07-21T08:48:30Z</time>
      </trkpt>
      <trkpt lat="43.11054" lon="6.29598">
        <ele>-5.4</ele>
        <time>2021-07-21T08:48:31Z</time>
      </trkpt>
      <trkpt lat="43.11054" lon="6.29598">
        <ele>-5.8</ele>
        <time>2021-07-21T08:48:34Z</time>
      </trkpt>
      <trkpt lat="43.11057" lon="6.296">
        <ele>-6.2</ele>
        <time>2021-07-21T08:48:44Z</time>
      </trkpt>
      <trkpt lat="43.11062" lon="6.29613">
        <ele>-4.4</ele>
        <time>2021-07-21T08:48:53Z</time>
      </trkpt>
      <trkpt lat="43.11064" lon="6.29618">
        <ele>-4.6</ele>
        <time>2021-07-21T08:48:58Z</time>
      </trkpt>
      <trkpt lat="43.11066" lon="6.2962">
        <ele>-4.4</ele>
        <time>2021-07-21T08:49:01Z</time>
      </trkpt>
      <trkpt lat="43.11066" lon="6.29621">
        <ele>-4.4</ele>
        <time>2021-07-21T08:49:02Z</time>
      </trkpt>
      <trkpt lat="43.11069" lon="6.2963">
        <ele>-4.2</ele>
        <time>2021-07-21T08:49:08Z</time>
      </trkpt>
      <trkpt lat="43.11071" lon="6.29633">
        <ele>-3.8</ele>
        <time>2021-07-21T08:49:10Z</time>
      </trkpt>
      <trkpt lat="43.11071" lon="6.29635">
        <ele>-3.2</ele>
        <time>2021-07-21T08:49:13Z</time>
      </trkpt>
      <trkpt lat="43.11071" lon="6.29635">
        <ele>-3</ele>
        <time>2021-07-21T08:49:15Z</time>
      </trkpt>
      <trkpt lat="43.11071" lon="6.29636">
        <ele>-3.6</ele>
        <time>2021-07-21T08:49:28Z</time>
      </trkpt>
      <trkpt lat="43.11077" lon="6.2965">
        <ele>-3.6</ele>
        <time>2021-07-21T08:49:38Z</time>
      </trkpt>
      <trkpt lat="43.1108" lon="6.29665">
        <ele>-5.2</ele>
        <time>2021-07-21T08:49:50Z</time>
      </trkpt>
      <trkpt lat="43.1108" lon="6.29667">
        <ele>-7</ele>
        <time>2021-07-21T08:49:51Z</time>
      </trkpt>
      <trkpt lat="43.11079" lon="6.29673">
        <ele>-5.6</ele>
        <time>2021-07-21T08:49:55Z</time>
      </trkpt>
      <trkpt lat="43.11075" lon="6.29683">
        <ele>-5.4</ele>
        <time>2021-07-21T08:50:04Z</time>
      </trkpt>
      <trkpt lat="43.11072" lon="6.29685">
        <ele>-5.6</ele>
        <time>2021-07-21T08:50:09Z</time>
      </trkpt>
      <trkpt lat="43.1107" lon="6.2969">
        <ele>-6</ele>
        <time>2021-07-21T08:50:14Z</time>
      </trkpt>
      <trkpt lat="43.11063" lon="6.29705">
        <ele>-6.8</ele>
        <time>2021-07-21T08:50:25Z</time>
      </trkpt>
      <trkpt lat="43.11062" lon="6.29706">
        <ele>-6.8</ele>
        <time>2021-07-21T08:50:26Z</time>
      </trkpt>
      <trkpt lat="43.11055" lon="6.29726">
        <ele>-7.2</ele>
        <time>2021-07-21T08:50:39Z</time>
      </trkpt>
      <trkpt lat="43.11053" lon="6.29742">
        <ele>-7.8</ele>
        <time>2021-07-21T08:50:49Z</time>
      </trkpt>
      <trkpt lat="43.11053" lon="6.29743">
        <ele>-7.8</ele>
        <time>2021-07-21T08:50:51Z</time>
      </trkpt>
      <trkpt lat="43.11053" lon="6.29746">
        <ele>-8</ele>
        <time>2021-07-21T08:51:00Z</time>
      </trkpt>
      <trkpt lat="43.11053" lon="6.29746">
        <ele>-24.8</ele>
        <time>2021-07-21T08:51:03Z</time>
      </trkpt>
      <trkpt lat="43.11051" lon="6.29744">
        <ele>-25.6</ele>
        <time>2021-07-21T08:51:14Z</time>
      </trkpt>
      <trkpt lat="43.11049" lon="6.29742">
        <ele>-15.8</ele>
        <time>2021-07-21T08:51:16Z</time>
      </trkpt>
      <trkpt lat="43.11048" lon="6.29741">
        <ele>-11.4</ele>
        <time>2021-07-21T08:51:17Z</time>
      </trkpt>
      <trkpt lat="43.11047" lon="6.2974">
        <ele>-9.2</ele>
        <time>2021-07-21T08:51:18Z</time>
      </trkpt>
      <trkpt lat="43.11046" lon="6.29739">
        <ele>-8.2</ele>
        <time>2021-07-21T08:51:19Z</time>
      </trkpt>
      <trkpt lat="43.11045" lon="6.29737">
        <ele>-7.8</ele>
        <time>2021-07-21T08:51:23Z</time>
      </trkpt>
      <trkpt lat="43.11045" lon="6.29738">
        <ele>-8</ele>
        <time>2021-07-21T08:51:24Z</time>
      </trkpt>
      <trkpt lat="43.11044" lon="6.29738">
        <ele>-8.8</ele>
        <time>2021-07-21T08:51:28Z</time>
      </trkpt>
      <trkpt lat="43.11045" lon="6.29738">
        <ele>-7</ele>
        <time>2021-07-21T08:51:38Z</time>
      </trkpt>
      <trkpt lat="43.11045" lon="6.29738">
        <ele>-6.8</ele>
        <time>2021-07-21T08:51:40Z</time>
      </trkpt>
      <trkpt lat="43.11045" lon="6.29738">
        <ele>-7.4</ele>
        <time>2021-07-21T08:51:49Z</time>
      </trkpt>
      <trkpt lat="43.11045" lon="6.29738">
        <ele>-8.4</ele>
        <time>2021-07-21T08:51:50Z</time>
      </trkpt>
      <trkpt lat="43.11051" lon="6.29744">
        <ele>-8</ele>
        <time>2021-07-21T08:52:00Z</time>
      </trkpt>
      <trkpt lat="43.11053" lon="6.2976">
        <ele>-7.4</ele>
        <time>2021-07-21T08:52:11Z</time>
      </trkpt>
      <trkpt lat="43.1105" lon="6.29765">
        <ele>-7.4</ele>
        <time>2021-07-21T08:52:16Z</time>
      </trkpt>
      <trkpt lat="43.11049" lon="6.29766">
        <ele>-7.2</ele>
        <time>2021-07-21T08:52:17Z</time>
      </trkpt>
      <trkpt lat="43.11047" lon="6.29769">
        <ele>-7.2</ele>
        <time>2021-07-21T08:52:20Z</time>
      </trkpt>
      <trkpt lat="43.1104" lon="6.29772">
        <ele>-6.8</ele>
        <time>2021-07-21T08:52:29Z</time>
      </trkpt>
      <trkpt lat="43.11039" lon="6.29772">
        <ele>-7</ele>
        <time>2021-07-21T08:52:31Z</time>
      </trkpt>
      <trkpt lat="43.11034" lon="6.29782">
        <ele>-6.2</ele>
        <time>2021-07-21T08:52:41Z</time>
      </trkpt>
      <trkpt lat="43.11027" lon="6.29798">
        <ele>-6.6</ele>
        <time>2021-07-21T08:52:54Z</time>
      </trkpt>
      <trkpt lat="43.11026" lon="6.29799">
        <ele>-6.8</ele>
        <time>2021-07-21T08:53:03Z</time>
      </trkpt>
      <trkpt lat="43.11027" lon="6.29799">
        <ele>-6.8</ele>
        <time>2021-07-21T08:53:14Z</time>
      </trkpt>
      <trkpt lat="43.11025" lon="6.29811">
        <ele>-6.8</ele>
        <time>2021-07-21T08:53:22Z</time>
      </trkpt>
      <trkpt lat="43.1102" lon="6.29832">
        <ele>-6.4</ele>
        <time>2021-07-21T08:53:37Z</time>
      </trkpt>
      <trkpt lat="43.11018" lon="6.29836">
        <ele>-6.6</ele>
        <time>2021-07-21T08:53:43Z</time>
      </trkpt>
      <trkpt lat="43.11018" lon="6.29838">
        <ele>-6.6</ele>
        <time>2021-07-21T08:53:45Z</time>
      </trkpt>
      <trkpt lat="43.11017" lon="6.29839">
        <ele>-6.6</ele>
        <time>2021-07-21T08:53:46Z</time>
      </trkpt>
      <trkpt lat="43.11009" lon="6.29855">
        <ele>-6.6</ele>
        <time>2021-07-21T08:54:00Z</time>
      </trkpt>
      <trkpt lat="43.11002" lon="6.29866">
        <ele>-6.2</ele>
        <time>2021-07-21T08:54:12Z</time>
      </trkpt>
      <trkpt lat="43.10992" lon="6.29879">
        <ele>-6.4</ele>
        <time>2021-07-21T08:54:24Z</time>
      </trkpt>
      <trkpt lat="43.10979" lon="6.29897">
        <ele>-7.2</ele>
        <time>2021-07-21T08:54:39Z</time>
      </trkpt>
      <trkpt lat="43.1097" lon="6.29909">
        <ele>-7.4</ele>
        <time>2021-07-21T08:54:50Z</time>
      </trkpt>
      <trkpt lat="43.10967" lon="6.29913">
        <ele>-7.6</ele>
        <time>2021-07-21T08:54:54Z</time>
      </trkpt>
      <trkpt lat="43.10956" lon="6.29926">
        <ele>-8</ele>
        <time>2021-07-21T08:55:08Z</time>
      </trkpt>
      <trkpt lat="43.10944" lon="6.29932">
        <ele>-7.8</ele>
        <time>2021-07-21T08:55:20Z</time>
      </trkpt>
      <trkpt lat="43.1093" lon="6.29933">
        <ele>-7.2</ele>
        <time>2021-07-21T08:55:32Z</time>
      </trkpt>
      <trkpt lat="43.10922" lon="6.2993">
        <ele>-6.8</ele>
        <time>2021-07-21T08:55:43Z</time>
      </trkpt>
      <trkpt lat="43.1092" lon="6.29929">
        <ele>-7</ele>
        <time>2021-07-21T08:55:46Z</time>
      </trkpt>
      <trkpt lat="43.10916" lon="6.29931">
        <ele>-7.6</ele>
        <time>2021-07-21T08:55:52Z</time>
      </trkpt>
      <trkpt lat="43.1091" lon="6.29927">
        <ele>-8.4</ele>
        <time>2021-07-21T08:55:59Z</time>
      </trkpt>
      <trkpt lat="43.10908" lon="6.29926">
        <ele>-8.4</ele>
        <time>2021-07-21T08:56:00Z</time>
      </trkpt>
      <trkpt lat="43.10902" lon="6.29927">
        <ele>-8.4</ele>
        <time>2021-07-21T08:56:05Z</time>
      </trkpt>
      <trkpt lat="43.10898" lon="6.29931">
        <ele>-8.4</ele>
        <time>2021-07-21T08:56:09Z</time>
      </trkpt>
      <trkpt lat="43.10882" lon="6.29939">
        <ele>-8.6</ele>
        <time>2021-07-21T08:56:23Z</time>
      </trkpt>
      <trkpt lat="43.10868" lon="6.29947">
        <ele>-9</ele>
        <time>2021-07-21T08:56:36Z</time>
      </trkpt>
      <trkpt lat="43.10855" lon="6.29948">
        <ele>-8.6</ele>
        <time>2021-07-21T08:56:49Z</time>
      </trkpt>
      <trkpt lat="43.10841" lon="6.29947">
        <ele>-8.8</ele>
        <time>2021-07-21T08:57:04Z</time>
      </trkpt>
      <trkpt lat="43.10833" lon="6.29946">
        <ele>-7.2</ele>
        <time>2021-07-21T08:57:13Z</time>
      </trkpt>
      <trkpt lat="43.10831" lon="6.29947">
        <ele>-6.8</ele>
        <time>2021-07-21T08:57:17Z</time>
      </trkpt>
      <trkpt lat="43.10831" lon="6.29948">
        <ele>-6.2</ele>
        <time>2021-07-21T08:57:23Z</time>
      </trkpt>
      <trkpt lat="43.10831" lon="6.29948">
        <ele>-5.8</ele>
        <time>2021-07-21T08:57:28Z</time>
      </trkpt>
      <trkpt lat="43.10827" lon="6.29947">
        <ele>-6.2</ele>
        <time>2021-07-21T08:57:37Z</time>
      </trkpt>
      <trkpt lat="43.10821" lon="6.29946">
        <ele>-5.8</ele>
        <time>2021-07-21T08:57:43Z</time>
      </trkpt>
      <trkpt lat="43.1082" lon="6.29947">
        <ele>-5.6</ele>
        <time>2021-07-21T08:57:46Z</time>
      </trkpt>
      <trkpt lat="43.10816" lon="6.29946">
        <ele>-5.6</ele>
        <time>2021-07-21T08:57:50Z</time>
      </trkpt>
      <trkpt lat="43.10809" lon="6.29945">
        <ele>-5</ele>
        <time>2021-07-21T08:57:55Z</time>
      </trkpt>
      <trkpt lat="43.10805" lon="6.29943">
        <ele>-4.6</ele>
        <time>2021-07-21T08:57:59Z</time>
      </trkpt>
      <trkpt lat="43.10803" lon="6.29942">
        <ele>-4.2</ele>
        <time>2021-07-21T08:58:03Z</time>
      </trkpt>
      <trkpt lat="43.108" lon="6.2994">
        <ele>-4.2</ele>
        <time>2021-07-21T08:58:10Z</time>
      </trkpt>
      <trkpt lat="43.108" lon="6.29939">
        <ele>-3.8</ele>
        <time>2021-07-21T08:58:14Z</time>
      </trkpt>
      <trkpt lat="43.10799" lon="6.2994">
        <ele>-3.4</ele>
        <time>2021-07-21T08:58:21Z</time>
      </trkpt>
      <trkpt lat="43.10799" lon="6.29942">
        <ele>-3.6</ele>
        <time>2021-07-21T08:58:29Z</time>
      </trkpt>
      <trkpt lat="43.10796" lon="6.29946">
        <ele>-3.4</ele>
        <time>2021-07-21T08:58:39Z</time>
      </trkpt>
      <trkpt lat="43.10788" lon="6.29945">
        <ele>-3.2</ele>
        <time>2021-07-21T08:58:47Z</time>
      </trkpt>
      <trkpt lat="43.10775" lon="6.29943">
        <ele>-4</ele>
        <time>2021-07-21T08:58:58Z</time>
      </trkpt>
      <trkpt lat="43.10771" lon="6.29942">
        <ele>-5</ele>
        <time>2021-07-21T08:59:04Z</time>
      </trkpt>
      <trkpt lat="43.10771" lon="6.29941">
        <ele>-5</ele>
        <time>2021-07-21T08:59:05Z</time>
      </trkpt>
      <trkpt lat="43.10768" lon="6.2994">
        <ele>-5</ele>
        <time>2021-07-21T08:59:07Z</time>
      </trkpt>
      <trkpt lat="43.10762" lon="6.29939">
        <ele>-5</ele>
        <time>2021-07-21T08:59:17Z</time>
      </trkpt>
      <trkpt lat="43.10762" lon="6.29939">
        <ele>-5</ele>
        <time>2021-07-21T08:59:18Z</time>
      </trkpt>
      <trkpt lat="43.10759" lon="6.29939">
        <ele>-5.6</ele>
        <time>2021-07-21T08:59:29Z</time>
      </trkpt>
      <trkpt lat="43.10747" lon="6.29937">
        <ele>-5.2</ele>
        <time>2021-07-21T08:59:39Z</time>
      </trkpt>
      <trkpt lat="43.10741" lon="6.29935">
        <ele>-6</ele>
        <time>2021-07-21T08:59:46Z</time>
      </trkpt>
      <trkpt lat="43.10737" lon="6.29935">
        <ele>-6.4</ele>
        <time>2021-07-21T08:59:52Z</time>
      </trkpt>
      <trkpt lat="43.10736" lon="6.29934">
        <ele>-6.6</ele>
        <time>2021-07-21T08:59:53Z</time>
      </trkpt>
      <trkpt lat="43.10735" lon="6.29933">
        <ele>-6.6</ele>
        <time>2021-07-21T08:59:55Z</time>
      </trkpt>
      <trkpt lat="43.10733" lon="6.29931">
        <ele>-6.6</ele>
        <time>2021-07-21T08:59:57Z</time>
      </trkpt>
      <trkpt lat="43.10731" lon="6.2993">
        <ele>-6.6</ele>
        <time>2021-07-21T08:59:59Z</time>
      </trkpt>
      <trkpt lat="43.10727" lon="6.29928">
        <ele>-6.8</ele>
        <time>2021-07-21T09:00:05Z</time>
      </trkpt>
      <trkpt lat="43.10726" lon="6.29927">
        <ele>-7</ele>
        <time>2021-07-21T09:00:07Z</time>
      </trkpt>
      <trkpt lat="43.10718" lon="6.29921">
        <ele>-7.2</ele>
        <time>2021-07-21T09:00:17Z</time>
      </trkpt>
      <trkpt lat="43.10717" lon="6.2992">
        <ele>-7</ele>
        <time>2021-07-21T09:00:19Z</time>
      </trkpt>
      <trkpt lat="43.10716" lon="6.29913">
        <ele>-7.4</ele>
        <time>2021-07-21T09:00:27Z</time>
      </trkpt>
      <trkpt lat="43.10716" lon="6.29899">
        <ele>-7.4</ele>
        <time>2021-07-21T09:00:37Z</time>
      </trkpt>
      <trkpt lat="43.10711" lon="6.29889">
        <ele>-6</ele>
        <time>2021-07-21T09:00:46Z</time>
      </trkpt>
      <trkpt lat="43.10713" lon="6.29886">
        <ele>-5</ele>
        <time>2021-07-21T09:00:49Z</time>
      </trkpt>
      <trkpt lat="43.10714" lon="6.29886">
        <ele>-4.8</ele>
        <time>2021-07-21T09:00:50Z</time>
      </trkpt>
      <trkpt lat="43.10714" lon="6.29885">
        <ele>-4.6</ele>
        <time>2021-07-21T09:00:52Z</time>
      </trkpt>
      <trkpt lat="43.10715" lon="6.29883">
        <ele>-3.8</ele>
        <time>2021-07-21T09:00:57Z</time>
      </trkpt>
      <trkpt lat="43.10715" lon="6.29883">
        <ele>-3.8</ele>
        <time>2021-07-21T09:00:58Z</time>
      </trkpt>
      <trkpt lat="43.10714" lon="6.29879">
        <ele>-4</ele>
        <time>2021-07-21T09:01:04Z</time>
      </trkpt>
      <trkpt lat="43.10712" lon="6.29871">
        <ele>-4</ele>
        <time>2021-07-21T09:01:14Z</time>
      </trkpt>
      <trkpt lat="43.10709" lon="6.29853">
        <ele>-2.8</ele>
        <time>2021-07-21T09:01:26Z</time>
      </trkpt>
      <trkpt lat="43.10708" lon="6.29852">
        <ele>-2.6</ele>
        <time>2021-07-21T09:01:27Z</time>
      </trkpt>
      <trkpt lat="43.10707" lon="6.29849">
        <ele>-2.2</ele>
        <time>2021-07-21T09:01:29Z</time>
      </trkpt>
      <trkpt lat="43.10707" lon="6.29847">
        <ele>-1.4</ele>
        <time>2021-07-21T09:01:31Z</time>
      </trkpt>
      <trkpt lat="43.10707" lon="6.29844">
        <ele>-0.2</ele>
        <time>2021-07-21T09:01:35Z</time>
      </trkpt>
      <trkpt lat="43.10706" lon="6.29839">
        <ele>0.2</ele>
        <time>2021-07-21T09:01:39Z</time>
      </trkpt>
      <trkpt lat="43.10705" lon="6.29837">
        <ele>0.8</ele>
        <time>2021-07-21T09:01:41Z</time>
      </trkpt>
      <trkpt lat="43.10706" lon="6.29837">
        <ele>1.4</ele>
        <time>2021-07-21T09:01:44Z</time>
      </trkpt>
      <trkpt lat="43.10706" lon="6.29837">
        <ele>2</ele>
        <time>2021-07-21T09:01:46Z</time>
      </trkpt>
      <trkpt lat="43.10706" lon="6.29836">
        <ele>2.4</ele>
        <time>2021-07-21T09:01:48Z</time>
      </trkpt>
      <trkpt lat="43.10707" lon="6.29828">
        <ele>2</ele>
        <time>2021-07-21T09:01:56Z</time>
      </trkpt>
      <trkpt lat="43.10706" lon="6.29821">
        <ele>1.4</ele>
        <time>2021-07-21T09:02:00Z</time>
      </trkpt>
      <trkpt lat="43.10707" lon="6.29813">
        <ele>0.8</ele>
        <time>2021-07-21T09:02:06Z</time>
      </trkpt>
      <trkpt lat="43.10709" lon="6.29811">
        <ele>7.6</ele>
        <time>2021-07-21T09:02:11Z</time>
      </trkpt>
      <trkpt lat="43.1071" lon="6.2981">
        <ele>-0.2</ele>
        <time>2021-07-21T09:02:13Z</time>
      </trkpt>
      <trkpt lat="43.1071" lon="6.2981">
        <ele>-0.4</ele>
        <time>2021-07-21T09:02:14Z</time>
      </trkpt>
      <trkpt lat="43.1071" lon="6.2981">
        <ele>-0.4</ele>
        <time>2021-07-21T09:02:15Z</time>
      </trkpt>
      <trkpt lat="43.10711" lon="6.29809">
        <ele>0.4</ele>
        <time>2021-07-21T09:02:28Z</time>
      </trkpt>
      <trkpt lat="43.1071" lon="6.29808">
        <ele>0.2</ele>
        <time>2021-07-21T09:02:46Z</time>
      </trkpt>
      <trkpt lat="43.1071" lon="6.29808">
        <ele>-2.6</ele>
        <time>2021-07-21T09:02:50Z</time>
      </trkpt>
      <trkpt lat="43.1071" lon="6.29808">
        <ele>-5.6</ele>
        <time>2021-07-21T09:02:51Z</time>
      </trkpt>
      <trkpt lat="43.1071" lon="6.29807">
        <ele>-7.2</ele>
        <time>2021-07-21T09:02:52Z</time>
      </trkpt>
      <trkpt lat="43.1071" lon="6.29808">
        <ele>-9</ele>
        <time>2021-07-21T09:02:54Z</time>
      </trkpt>
      <trkpt lat="43.10711" lon="6.29808">
        <ele>-10.2</ele>
        <time>2021-07-21T09:02:55Z</time>
      </trkpt>
      <trkpt lat="43.10711" lon="6.29808">
        <ele>-11.8</ele>
        <time>2021-07-21T09:02:57Z</time>
      </trkpt>
      <trkpt lat="43.1071" lon="6.29809">
        <ele>-12.6</ele>
        <time>2021-07-21T09:03:01Z</time>
      </trkpt>
      <trkpt lat="43.10711" lon="6.29809">
        <ele>-13</ele>
        <time>2021-07-21T09:03:07Z</time>
      </trkpt>
      <trkpt lat="43.1071" lon="6.29809">
        <ele>-5.8</ele>
        <time>2021-07-21T09:03:11Z</time>
      </trkpt>
      <trkpt lat="43.10711" lon="6.29809">
        <ele>-2.8</ele>
        <time>2021-07-21T09:03:12Z</time>
      </trkpt>
      <trkpt lat="43.10711" lon="6.2981">
        <ele>-1.4</ele>
        <time>2021-07-21T09:03:13Z</time>
      </trkpt>
      <trkpt lat="43.1071" lon="6.29808">
        <ele>-0.4</ele>
        <time>2021-07-21T09:03:19Z</time>
      </trkpt>
      <trkpt lat="43.10711" lon="6.29808">
        <ele>6.6</ele>
        <time>2021-07-21T09:03:26Z</time>
      </trkpt>
      <trkpt lat="43.10711" lon="6.29808">
        <ele>0.4</ele>
        <time>2021-07-21T09:03:40Z</time>
      </trkpt>
      <trkpt lat="43.10708" lon="6.29804">
        <ele>0.6</ele>
        <time>2021-07-21T09:03:46Z</time>
      </trkpt>
      <trkpt lat="43.10706" lon="6.29802">
        <ele>-0.6</ele>
        <time>2021-07-21T09:03:48Z</time>
      </trkpt>
      <trkpt lat="43.10705" lon="6.29801">
        <ele>-0.6</ele>
        <time>2021-07-21T09:03:49Z</time>
      </trkpt>
      <trkpt lat="43.107" lon="6.29801">
        <ele>0.2</ele>
        <time>2021-07-21T09:03:56Z</time>
      </trkpt>
      <trkpt lat="43.10699" lon="6.29802">
        <ele>0.6</ele>
        <time>2021-07-21T09:03:57Z</time>
      </trkpt>
      <trkpt lat="43.10698" lon="6.29806">
        <ele>1.6</ele>
        <time>2021-07-21T09:04:01Z</time>
      </trkpt>
      <trkpt lat="43.10697" lon="6.29809">
        <ele>2.6</ele>
        <time>2021-07-21T09:04:04Z</time>
      </trkpt>
      <trkpt lat="43.10696" lon="6.29809">
        <ele>2.8</ele>
        <time>2021-07-21T09:04:05Z</time>
      </trkpt>
      <trkpt lat="43.10696" lon="6.29809">
        <ele>3</ele>
        <time>2021-07-21T09:04:06Z</time>
      </trkpt>
      <trkpt lat="43.10696" lon="6.2981">
        <ele>4</ele>
        <time>2021-07-21T09:04:13Z</time>
      </trkpt>
      <trkpt lat="43.10696" lon="6.29809">
        <ele>4.2</ele>
        <time>2021-07-21T09:04:22Z</time>
      </trkpt>
      <trkpt lat="43.10696" lon="6.2981">
        <ele>4.2</ele>
        <time>2021-07-21T09:04:25Z</time>
      </trkpt>
      <trkpt lat="43.10696" lon="6.2981">
        <ele>4.2</ele>
        <time>2021-07-21T09:04:40Z</time>
      </trkpt>
      <trkpt lat="43.10695" lon="6.29811">
        <ele>4</ele>
        <time>2021-07-21T09:04:54Z</time>
      </trkpt>
      <trkpt lat="43.10692" lon="6.29818">
        <ele>5.2</ele>
        <time>2021-07-21T09:05:03Z</time>
      </trkpt>
      <trkpt lat="43.10692" lon="6.29818">
        <ele>5.6</ele>
        <time>2021-07-21T09:05:04Z</time>
      </trkpt>
      <trkpt lat="43.10692" lon="6.29818">
        <ele>6.4</ele>
        <time>2021-07-21T09:05:06Z</time>
      </trkpt>
      <trkpt lat="43.1069" lon="6.29818">
        <ele>6.6</ele>
        <time>2021-07-21T09:05:14Z</time>
      </trkpt>
      <trkpt lat="43.1068" lon="6.29814">
        <ele>5.8</ele>
        <time>2021-07-21T09:05:25Z</time>
      </trkpt>
      <trkpt lat="43.10676" lon="6.29813">
        <ele>5.4</ele>
        <time>2021-07-21T09:05:33Z</time>
      </trkpt>
      <trkpt lat="43.10676" lon="6.29814">
        <ele>5.2</ele>
        <time>2021-07-21T09:05:34Z</time>
      </trkpt>
      <trkpt lat="43.10676" lon="6.29815">
        <ele>5.2</ele>
        <time>2021-07-21T09:05:35Z</time>
      </trkpt>
      <trkpt lat="43.10672" lon="6.29821">
        <ele>6.6</ele>
        <time>2021-07-21T09:05:42Z</time>
      </trkpt>
      <trkpt lat="43.10672" lon="6.29822">
        <ele>6.8</ele>
        <time>2021-07-21T09:05:43Z</time>
      </trkpt>
      <trkpt lat="43.10669" lon="6.29824">
        <ele>7</ele>
        <time>2021-07-21T09:05:48Z</time>
      </trkpt>
      <trkpt lat="43.10669" lon="6.29825">
        <ele>6.8</ele>
        <time>2021-07-21T09:05:51Z</time>
      </trkpt>
      <trkpt lat="43.10669" lon="6.29825">
        <ele>8</ele>
        <time>2021-07-21T09:05:54Z</time>
      </trkpt>
      <trkpt lat="43.1067" lon="6.29824">
        <ele>8.8</ele>
        <time>2021-07-21T09:06:05Z</time>
      </trkpt>
      <trkpt lat="43.1067" lon="6.29824">
        <ele>6.8</ele>
        <time>2021-07-21T09:06:08Z</time>
      </trkpt>
      <trkpt lat="43.1067" lon="6.29824">
        <ele>8</ele>
        <time>2021-07-21T09:06:11Z</time>
      </trkpt>
      <trkpt lat="43.1067" lon="6.29824">
        <ele>9</ele>
        <time>2021-07-21T09:06:17Z</time>
      </trkpt>
      <trkpt lat="43.1067" lon="6.29824">
        <ele>9</ele>
        <time>2021-07-21T09:06:18Z</time>
      </trkpt>
      <trkpt lat="43.1067" lon="6.29824">
        <ele>7.8</ele>
        <time>2021-07-21T09:06:29Z</time>
      </trkpt>
      <trkpt lat="43.1067" lon="6.29824">
        <ele>7.4</ele>
        <time>2021-07-21T09:06:33Z</time>
      </trkpt>
      <trkpt lat="43.10671" lon="6.29822">
        <ele>8.4</ele>
        <time>2021-07-21T09:06:46Z</time>
      </trkpt>
      <trkpt lat="43.10678" lon="6.29822">
        <ele>7.8</ele>
        <time>2021-07-21T09:06:54Z</time>
      </trkpt>
      <trkpt lat="43.10677" lon="6.29823">
        <ele>8</ele>
        <time>2021-07-21T09:06:56Z</time>
      </trkpt>
      <trkpt lat="43.10677" lon="6.29825">
        <ele>9</ele>
        <time>2021-07-21T09:07:00Z</time>
      </trkpt>
      <trkpt lat="43.10677" lon="6.29825">
        <ele>9.2</ele>
        <time>2021-07-21T09:07:01Z</time>
      </trkpt>
      <trkpt lat="43.10677" lon="6.29826">
        <ele>10</ele>
        <time>2021-07-21T09:07:04Z</time>
      </trkpt>
      <trkpt lat="43.10676" lon="6.29833">
        <ele>9.6</ele>
        <time>2021-07-21T09:07:11Z</time>
      </trkpt>
      <trkpt lat="43.10677" lon="6.29841">
        <ele>9</ele>
        <time>2021-07-21T09:07:17Z</time>
      </trkpt>
      <trkpt lat="43.10677" lon="6.29845">
        <ele>7.8</ele>
        <time>2021-07-21T09:07:20Z</time>
      </trkpt>
      <trkpt lat="43.10677" lon="6.29849">
        <ele>7.2</ele>
        <time>2021-07-21T09:07:23Z</time>
      </trkpt>
      <trkpt lat="43.10677" lon="6.29852">
        <ele>6.8</ele>
        <time>2021-07-21T09:07:25Z</time>
      </trkpt>
      <trkpt lat="43.10675" lon="6.29856">
        <ele>6.2</ele>
        <time>2021-07-21T09:07:32Z</time>
      </trkpt>
      <trkpt lat="43.10674" lon="6.29856">
        <ele>6.4</ele>
        <time>2021-07-21T09:07:34Z</time>
      </trkpt>
      <trkpt lat="43.10675" lon="6.29859">
        <ele>5.8</ele>
        <time>2021-07-21T09:07:38Z</time>
      </trkpt>
      <trkpt lat="43.10675" lon="6.29862">
        <ele>5.2</ele>
        <time>2021-07-21T09:07:40Z</time>
      </trkpt>
      <trkpt lat="43.10674" lon="6.29867">
        <ele>4.6</ele>
        <time>2021-07-21T09:07:44Z</time>
      </trkpt>
      <trkpt lat="43.10673" lon="6.29875">
        <ele>3.4</ele>
        <time>2021-07-21T09:07:49Z</time>
      </trkpt>
      <trkpt lat="43.1067" lon="6.29886">
        <ele>2.4</ele>
        <time>2021-07-21T09:07:57Z</time>
      </trkpt>
      <trkpt lat="43.10664" lon="6.29892">
        <ele>2.6</ele>
        <time>2021-07-21T09:08:02Z</time>
      </trkpt>
      <trkpt lat="43.10652" lon="6.29898">
        <ele>2</ele>
        <time>2021-07-21T09:08:13Z</time>
      </trkpt>
      <trkpt lat="43.10648" lon="6.29903">
        <ele>1.4</ele>
        <time>2021-07-21T09:08:19Z</time>
      </trkpt>
      <trkpt lat="43.10645" lon="6.29906">
        <ele>0.8</ele>
        <time>2021-07-21T09:08:22Z</time>
      </trkpt>
      <trkpt lat="43.10644" lon="6.29907">
        <ele>-0.4</ele>
        <time>2021-07-21T09:08:24Z</time>
      </trkpt>
      <trkpt lat="43.10642" lon="6.29909">
        <ele>-1.6</ele>
        <time>2021-07-21T09:08:27Z</time>
      </trkpt>
      <trkpt lat="43.10642" lon="6.2991">
        <ele>-2</ele>
        <time>2021-07-21T09:08:29Z</time>
      </trkpt>
      <trkpt lat="43.10642" lon="6.2991">
        <ele>-2.4</ele>
        <time>2021-07-21T09:08:33Z</time>
      </trkpt>
      <trkpt lat="43.10641" lon="6.29913">
        <ele>-2.6</ele>
        <time>2021-07-21T09:08:37Z</time>
      </trkpt>
      <trkpt lat="43.10638" lon="6.2992">
        <ele>-3.4</ele>
        <time>2021-07-21T09:08:42Z</time>
      </trkpt>
      <trkpt lat="43.10637" lon="6.29922">
        <ele>-3.6</ele>
        <time>2021-07-21T09:08:44Z</time>
      </trkpt>
      <trkpt lat="43.10634" lon="6.29928">
        <ele>-4.6</ele>
        <time>2021-07-21T09:08:50Z</time>
      </trkpt>
      <trkpt lat="43.10633" lon="6.29931">
        <ele>-5.4</ele>
        <time>2021-07-21T09:08:53Z</time>
      </trkpt>
      <trkpt lat="43.10633" lon="6.29936">
        <ele>-5.8</ele>
        <time>2021-07-21T09:08:56Z</time>
      </trkpt>
      <trkpt lat="43.10633" lon="6.29942">
        <ele>-5.8</ele>
        <time>2021-07-21T09:09:02Z</time>
      </trkpt>
      <trkpt lat="43.10638" lon="6.29951">
        <ele>-6.8</ele>
        <time>2021-07-21T09:09:11Z</time>
      </trkpt>
      <trkpt lat="43.1064" lon="6.29953">
        <ele>-7</ele>
        <time>2021-07-21T09:09:13Z</time>
      </trkpt>
      <trkpt lat="43.1064" lon="6.29954">
        <ele>-7.2</ele>
        <time>2021-07-21T09:09:14Z</time>
      </trkpt>
      <trkpt lat="43.10645" lon="6.29972">
        <ele>-7.6</ele>
        <time>2021-07-21T09:09:25Z</time>
      </trkpt>
      <trkpt lat="43.10647" lon="6.29979">
        <ele>-8.2</ele>
        <time>2021-07-21T09:09:30Z</time>
      </trkpt>
      <trkpt lat="43.10648" lon="6.29993">
        <ele>-9</ele>
        <time>2021-07-21T09:09:38Z</time>
      </trkpt>
      <trkpt lat="43.10646" lon="6.29996">
        <ele>-9.2</ele>
        <time>2021-07-21T09:09:40Z</time>
      </trkpt>
      <trkpt lat="43.10643" lon="6.30013">
        <ele>-9.4</ele>
        <time>2021-07-21T09:09:49Z</time>
      </trkpt>
      <trkpt lat="43.10643" lon="6.3003">
        <ele>-8.8</ele>
        <time>2021-07-21T09:10:01Z</time>
      </trkpt>
      <trkpt lat="43.10648" lon="6.30042">
        <ele>-9</ele>
        <time>2021-07-21T09:10:12Z</time>
      </trkpt>
      <trkpt lat="43.10659" lon="6.30048">
        <ele>-9.8</ele>
        <time>2021-07-21T09:10:24Z</time>
      </trkpt>
      <trkpt lat="43.1066" lon="6.30048">
        <ele>-9.6</ele>
        <time>2021-07-21T09:10:26Z</time>
      </trkpt>
      <trkpt lat="43.10666" lon="6.30053">
        <ele>-9.2</ele>
        <time>2021-07-21T09:10:32Z</time>
      </trkpt>
      <trkpt lat="43.10676" lon="6.30064">
        <ele>-9</ele>
        <time>2021-07-21T09:10:45Z</time>
      </trkpt>
      <trkpt lat="43.10679" lon="6.30066">
        <ele>-8</ele>
        <time>2021-07-21T09:10:48Z</time>
      </trkpt>
      <trkpt lat="43.10686" lon="6.30074">
        <ele>-7.8</ele>
        <time>2021-07-21T09:10:56Z</time>
      </trkpt>
      <trkpt lat="43.10693" lon="6.30092">
        <ele>-7.6</ele>
        <time>2021-07-21T09:11:08Z</time>
      </trkpt>
      <trkpt lat="43.10695" lon="6.30111">
        <ele>-8.8</ele>
        <time>2021-07-21T09:11:20Z</time>
      </trkpt>
      <trkpt lat="43.10695" lon="6.30114">
        <ele>-8.6</ele>
        <time>2021-07-21T09:11:24Z</time>
      </trkpt>
      <trkpt lat="43.10694" lon="6.30119">
        <ele>-8.6</ele>
        <time>2021-07-21T09:11:27Z</time>
      </trkpt>
      <trkpt lat="43.10694" lon="6.30121">
        <ele>-8.8</ele>
        <time>2021-07-21T09:11:29Z</time>
      </trkpt>
      <trkpt lat="43.10693" lon="6.30125">
        <ele>-9</ele>
        <time>2021-07-21T09:11:32Z</time>
      </trkpt>
      <trkpt lat="43.10692" lon="6.30136">
        <ele>-9.4</ele>
        <time>2021-07-21T09:11:39Z</time>
      </trkpt>
      <trkpt lat="43.10694" lon="6.3015">
        <ele>-10</ele>
        <time>2021-07-21T09:11:49Z</time>
      </trkpt>
      <trkpt lat="43.10694" lon="6.30151">
        <ele>-10</ele>
        <time>2021-07-21T09:11:50Z</time>
      </trkpt>
      <trkpt lat="43.10696" lon="6.30154">
        <ele>-10.2</ele>
        <time>2021-07-21T09:11:54Z</time>
      </trkpt>
      <trkpt lat="43.10698" lon="6.30155">
        <ele>-10</ele>
        <time>2021-07-21T09:11:57Z</time>
      </trkpt>
      <trkpt lat="43.107" lon="6.30157">
        <ele>-10.2</ele>
        <time>2021-07-21T09:12:00Z</time>
      </trkpt>
      <trkpt lat="43.10701" lon="6.30158">
        <ele>-10</ele>
        <time>2021-07-21T09:12:02Z</time>
      </trkpt>
      <trkpt lat="43.10702" lon="6.30159">
        <ele>-10</ele>
        <time>2021-07-21T09:12:03Z</time>
      </trkpt>
      <trkpt lat="43.10711" lon="6.30167">
        <ele>-10.4</ele>
        <time>2021-07-21T09:12:13Z</time>
      </trkpt>
      <trkpt lat="43.10718" lon="6.3017">
        <ele>-10.2</ele>
        <time>2021-07-21T09:12:20Z</time>
      </trkpt>
      <trkpt lat="43.10724" lon="6.30173">
        <ele>-9.8</ele>
        <time>2021-07-21T09:12:26Z</time>
      </trkpt>
      <trkpt lat="43.10734" lon="6.30179">
        <ele>-9.8</ele>
        <time>2021-07-21T09:12:39Z</time>
      </trkpt>
      <trkpt lat="43.10734" lon="6.3018">
        <ele>-9.8</ele>
        <time>2021-07-21T09:12:40Z</time>
      </trkpt>
      <trkpt lat="43.10735" lon="6.30183">
        <ele>-9.8</ele>
        <time>2021-07-21T09:12:42Z</time>
      </trkpt>
      <trkpt lat="43.10734" lon="6.30184">
        <ele>-10.2</ele>
        <time>2021-07-21T09:12:44Z</time>
      </trkpt>
      <trkpt lat="43.10734" lon="6.30185">
        <ele>-10</ele>
        <time>2021-07-21T09:12:46Z</time>
      </trkpt>
      <trkpt lat="43.10734" lon="6.30185">
        <ele>-9.8</ele>
        <time>2021-07-21T09:12:49Z</time>
      </trkpt>
      <trkpt lat="43.10734" lon="6.30185">
        <ele>-9</ele>
        <time>2021-07-21T09:12:52Z</time>
      </trkpt>
      <trkpt lat="43.10734" lon="6.30186">
        <ele>-9</ele>
        <time>2021-07-21T09:13:01Z</time>
      </trkpt>
      <trkpt lat="43.10733" lon="6.30184">
        <ele>-9</ele>
        <time>2021-07-21T09:13:14Z</time>
      </trkpt>
      <trkpt lat="43.10732" lon="6.30177">
        <ele>-9</ele>
        <time>2021-07-21T09:13:26Z</time>
      </trkpt>
      <trkpt lat="43.10732" lon="6.30176">
        <ele>-9</ele>
        <time>2021-07-21T09:13:37Z</time>
      </trkpt>
      <trkpt lat="43.10734" lon="6.30179">
        <ele>-9</ele>
        <time>2021-07-21T09:13:47Z</time>
      </trkpt>
      <trkpt lat="43.10734" lon="6.30179">
        <ele>-9</ele>
        <time>2021-07-21T09:13:58Z</time>
      </trkpt>
      <trkpt lat="43.10733" lon="6.30179">
        <ele>-9</ele>
        <time>2021-07-21T09:14:11Z</time>
      </trkpt>
      <trkpt lat="43.10733" lon="6.30179">
        <ele>-9</ele>
        <time>2021-07-21T09:14:25Z</time>
      </trkpt>
      <trkpt lat="43.10734" lon="6.3018">
        <ele>-9</ele>
        <time>2021-07-21T09:14:43Z</time>
      </trkpt>
      <trkpt lat="43.10734" lon="6.30181">
        <ele>-9</ele>
        <time>2021-07-21T09:14:56Z</time>
      </trkpt>
      <trkpt lat="43.10734" lon="6.30181">
        <ele>-9</ele>
        <time>2021-07-21T09:15:08Z</time>
      </trkpt>
      <trkpt lat="43.10733" lon="6.30181">
        <ele>-9</ele>
        <time>2021-07-21T09:15:21Z</time>
      </trkpt>
      <trkpt lat="43.10732" lon="6.3018">
        <ele>-9</ele>
        <time>2021-07-21T09:15:35Z</time>
      </trkpt>
      <trkpt lat="43.10732" lon="6.30182">
        <ele>-9</ele>
        <time>2021-07-21T09:15:50Z</time>
      </trkpt>
      <trkpt lat="43.10733" lon="6.30182">
        <ele>-9</ele>
        <time>2021-07-21T09:16:01Z</time>
      </trkpt>
      <trkpt lat="43.10737" lon="6.30177">
        <ele>-9</ele>
        <time>2021-07-21T09:16:11Z</time>
      </trkpt>
      <trkpt lat="43.10739" lon="6.30178">
        <ele>-9</ele>
        <time>2021-07-21T09:16:22Z</time>
      </trkpt>
      <trkpt lat="43.10739" lon="6.30178">
        <ele>-9</ele>
        <time>2021-07-21T09:16:43Z</time>
      </trkpt>
      <trkpt lat="43.10738" lon="6.3018">
        <ele>-9</ele>
        <time>2021-07-21T09:16:56Z</time>
      </trkpt>
      <trkpt lat="43.10731" lon="6.30181">
        <ele>-9</ele>
        <time>2021-07-21T09:17:06Z</time>
      </trkpt>
      <trkpt lat="43.10729" lon="6.30179">
        <ele>-9</ele>
        <time>2021-07-21T09:17:09Z</time>
      </trkpt>
      <trkpt lat="43.10728" lon="6.30179">
        <ele>-9</ele>
        <time>2021-07-21T09:17:12Z</time>
      </trkpt>
      <trkpt lat="43.10727" lon="6.30179">
        <ele>-9</ele>
        <time>2021-07-21T09:17:17Z</time>
      </trkpt>
      <trkpt lat="43.10727" lon="6.30179">
        <ele>-25.2</ele>
        <time>2021-07-21T09:17:18Z</time>
      </trkpt>
      <trkpt lat="43.10727" lon="6.30179">
        <ele>-33.2</ele>
        <time>2021-07-21T09:17:19Z</time>
      </trkpt>
      <trkpt lat="43.10727" lon="6.30179">
        <ele>-38.8</ele>
        <time>2021-07-21T09:17:20Z</time>
      </trkpt>
      <trkpt lat="43.10727" lon="6.30179">
        <ele>-39.8</ele>
        <time>2021-07-21T09:17:23Z</time>
      </trkpt>
      <trkpt lat="43.10724" lon="6.30178">
        <ele>-40.8</ele>
        <time>2021-07-21T09:17:28Z</time>
      </trkpt>
      <trkpt lat="43.10723" lon="6.30179">
        <ele>-41</ele>
        <time>2021-07-21T09:17:29Z</time>
      </trkpt>
      <trkpt lat="43.10716" lon="6.30178">
        <ele>-41.4</ele>
        <time>2021-07-21T09:17:41Z</time>
      </trkpt>
      <trkpt lat="43.10708" lon="6.30182">
        <ele>-41.8</ele>
        <time>2021-07-21T09:17:51Z</time>
      </trkpt>
      <trkpt lat="43.10702" lon="6.30187">
        <ele>-42.2</ele>
        <time>2021-07-21T09:17:59Z</time>
      </trkpt>
      <trkpt lat="43.107" lon="6.30186">
        <ele>-42.2</ele>
        <time>2021-07-21T09:18:02Z</time>
      </trkpt>
      <trkpt lat="43.10698" lon="6.30186">
        <ele>-42.2</ele>
        <time>2021-07-21T09:18:06Z</time>
      </trkpt>
      <trkpt lat="43.10697" lon="6.30187">
        <ele>-42.2</ele>
        <time>2021-07-21T09:18:09Z</time>
      </trkpt>
      <trkpt lat="43.10696" lon="6.30188">
        <ele>-41.8</ele>
        <time>2021-07-21T09:18:11Z</time>
      </trkpt>
      <trkpt lat="43.10696" lon="6.30188">
        <ele>-42</ele>
        <time>2021-07-21T09:18:12Z</time>
      </trkpt>
      <trkpt lat="43.10697" lon="6.3019">
        <ele>-41.2</ele>
        <time>2021-07-21T09:18:24Z</time>
      </trkpt>
      <trkpt lat="43.10697" lon="6.3019">
        <ele>-41</ele>
        <time>2021-07-21T09:18:25Z</time>
      </trkpt>
      <trkpt lat="43.10696" lon="6.30189">
        <ele>-41.4</ele>
        <time>2021-07-21T09:18:37Z</time>
      </trkpt>
      <trkpt lat="43.10696" lon="6.3019">
        <ele>-42.2</ele>
        <time>2021-07-21T09:18:43Z</time>
      </trkpt>
      <trkpt lat="43.10698" lon="6.30187">
        <ele>-41.8</ele>
        <time>2021-07-21T09:18:51Z</time>
      </trkpt>
      <trkpt lat="43.10707" lon="6.30184">
        <ele>-42.4</ele>
        <time>2021-07-21T09:19:01Z</time>
      </trkpt>
      <trkpt lat="43.10708" lon="6.30183">
        <ele>-42.2</ele>
        <time>2021-07-21T09:19:02Z</time>
      </trkpt>
      <trkpt lat="43.10713" lon="6.30175">
        <ele>-42.4</ele>
        <time>2021-07-21T09:19:12Z</time>
      </trkpt>
      <trkpt lat="43.10711" lon="6.30169">
        <ele>-43</ele>
        <time>2021-07-21T09:19:16Z</time>
      </trkpt>
      <trkpt lat="43.10708" lon="6.30164">
        <ele>-42.6</ele>
        <time>2021-07-21T09:19:21Z</time>
      </trkpt>
      <trkpt lat="43.10703" lon="6.30158">
        <ele>-41.8</ele>
        <time>2021-07-21T09:19:28Z</time>
      </trkpt>
      <trkpt lat="43.10699" lon="6.30156">
        <ele>-42</ele>
        <time>2021-07-21T09:19:32Z</time>
      </trkpt>
      <trkpt lat="43.10696" lon="6.30149">
        <ele>-42</ele>
        <time>2021-07-21T09:19:39Z</time>
      </trkpt>
      <trkpt lat="43.10696" lon="6.30146">
        <ele>-42</ele>
        <time>2021-07-21T09:19:41Z</time>
      </trkpt>
      <trkpt lat="43.10696" lon="6.30133">
        <ele>-41.6</ele>
        <time>2021-07-21T09:19:52Z</time>
      </trkpt>
      <trkpt lat="43.10698" lon="6.30119">
        <ele>-40.8</ele>
        <time>2021-07-21T09:20:04Z</time>
      </trkpt>
      <trkpt lat="43.10696" lon="6.30103">
        <ele>-40.8</ele>
        <time>2021-07-21T09:20:16Z</time>
      </trkpt>
      <trkpt lat="43.10695" lon="6.30102">
        <ele>-40.8</ele>
        <time>2021-07-21T09:20:17Z</time>
      </trkpt>
      <trkpt lat="43.10694" lon="6.30089">
        <ele>-40.2</ele>
        <time>2021-07-21T09:20:27Z</time>
      </trkpt>
      <trkpt lat="43.1069" lon="6.30076">
        <ele>-40</ele>
        <time>2021-07-21T09:20:39Z</time>
      </trkpt>
      <trkpt lat="43.1069" lon="6.30076">
        <ele>-39.6</ele>
        <time>2021-07-21T09:20:41Z</time>
      </trkpt>
      <trkpt lat="43.1069" lon="6.30076">
        <ele>-39.6</ele>
        <time>2021-07-21T09:20:42Z</time>
      </trkpt>
      <trkpt lat="43.10685" lon="6.3007">
        <ele>-40</ele>
        <time>2021-07-21T09:20:50Z</time>
      </trkpt>
      <trkpt lat="43.10682" lon="6.30067">
        <ele>-40.2</ele>
        <time>2021-07-21T09:20:58Z</time>
      </trkpt>
      <trkpt lat="43.10677" lon="6.30061">
        <ele>-40.6</ele>
        <time>2021-07-21T09:21:07Z</time>
      </trkpt>
      <trkpt lat="43.10675" lon="6.30059">
        <ele>-41.2</ele>
        <time>2021-07-21T09:21:10Z</time>
      </trkpt>
      <trkpt lat="43.10673" lon="6.30057">
        <ele>-41.8</ele>
        <time>2021-07-21T09:21:13Z</time>
      </trkpt>
      <trkpt lat="43.1067" lon="6.30054">
        <ele>-42</ele>
        <time>2021-07-21T09:21:19Z</time>
      </trkpt>
      <trkpt lat="43.10669" lon="6.30053">
        <ele>-41.8</ele>
        <time>2021-07-21T09:21:21Z</time>
      </trkpt>
      <trkpt lat="43.10661" lon="6.30046">
        <ele>-41.8</ele>
        <time>2021-07-21T09:21:31Z</time>
      </trkpt>
      <trkpt lat="43.1065" lon="6.30036">
        <ele>-41.8</ele>
        <time>2021-07-21T09:21:44Z</time>
      </trkpt>
      <trkpt lat="43.10645" lon="6.30029">
        <ele>-40.6</ele>
        <time>2021-07-21T09:21:52Z</time>
      </trkpt>
      <trkpt lat="43.10643" lon="6.30028">
        <ele>-40.4</ele>
        <time>2021-07-21T09:21:55Z</time>
      </trkpt>
      <trkpt lat="43.10641" lon="6.30017">
        <ele>-41.8</ele>
        <time>2021-07-21T09:22:03Z</time>
      </trkpt>
      <trkpt lat="43.10641" lon="6.30014">
        <ele>-41.8</ele>
        <time>2021-07-21T09:22:05Z</time>
      </trkpt>
      <trkpt lat="43.10643" lon="6.3">
        <ele>-41.8</ele>
        <time>2021-07-21T09:22:16Z</time>
      </trkpt>
      <trkpt lat="43.10648" lon="6.29984">
        <ele>-41.4</ele>
        <time>2021-07-21T09:22:29Z</time>
      </trkpt>
      <trkpt lat="43.10648" lon="6.29972">
        <ele>-40.6</ele>
        <time>2021-07-21T09:22:37Z</time>
      </trkpt>
      <trkpt lat="43.10646" lon="6.29966">
        <ele>-40</ele>
        <time>2021-07-21T09:22:41Z</time>
      </trkpt>
      <trkpt lat="43.10642" lon="6.29947">
        <ele>-39.6</ele>
        <time>2021-07-21T09:22:55Z</time>
      </trkpt>
      <trkpt lat="43.10641" lon="6.29946">
        <ele>-39.4</ele>
        <time>2021-07-21T09:22:56Z</time>
      </trkpt>
      <trkpt lat="43.10638" lon="6.29939">
        <ele>-38.6</ele>
        <time>2021-07-21T09:23:04Z</time>
      </trkpt>
      <trkpt lat="43.10638" lon="6.29937">
        <ele>-38.2</ele>
        <time>2021-07-21T09:23:06Z</time>
      </trkpt>
      <trkpt lat="43.10636" lon="6.29928">
        <ele>-38.4</ele>
        <time>2021-07-21T09:23:15Z</time>
      </trkpt>
      <trkpt lat="43.10639" lon="6.29923">
        <ele>-37.2</ele>
        <time>2021-07-21T09:23:21Z</time>
      </trkpt>
      <trkpt lat="43.10641" lon="6.29918">
        <ele>-36.6</ele>
        <time>2021-07-21T09:23:27Z</time>
      </trkpt>
      <trkpt lat="43.10642" lon="6.29918">
        <ele>-36.2</ele>
        <time>2021-07-21T09:23:28Z</time>
      </trkpt>
      <trkpt lat="43.10641" lon="6.29914">
        <ele>-35.8</ele>
        <time>2021-07-21T09:23:38Z</time>
      </trkpt>
      <trkpt lat="43.10643" lon="6.29911">
        <ele>-35.2</ele>
        <time>2021-07-21T09:23:49Z</time>
      </trkpt>
      <trkpt lat="43.10644" lon="6.29911">
        <ele>-35</ele>
        <time>2021-07-21T09:23:50Z</time>
      </trkpt>
      <trkpt lat="43.10647" lon="6.29909">
        <ele>-34</ele>
        <time>2021-07-21T09:23:55Z</time>
      </trkpt>
      <trkpt lat="43.1065" lon="6.29907">
        <ele>-32.6</ele>
        <time>2021-07-21T09:23:59Z</time>
      </trkpt>
      <trkpt lat="43.10653" lon="6.29905">
        <ele>-32</ele>
        <time>2021-07-21T09:24:02Z</time>
      </trkpt>
      <trkpt lat="43.10653" lon="6.299">
        <ele>-31.6</ele>
        <time>2021-07-21T09:24:06Z</time>
      </trkpt>
      <trkpt lat="43.10653" lon="6.299">
        <ele>-31.6</ele>
        <time>2021-07-21T09:24:07Z</time>
      </trkpt>
      <trkpt lat="43.10656" lon="6.29898">
        <ele>-31.2</ele>
        <time>2021-07-21T09:24:10Z</time>
      </trkpt>
      <trkpt lat="43.1066" lon="6.29896">
        <ele>-30.4</ele>
        <time>2021-07-21T09:24:16Z</time>
      </trkpt>
      <trkpt lat="43.10663" lon="6.29893">
        <ele>-30.2</ele>
        <time>2021-07-21T09:24:20Z</time>
      </trkpt>
      <trkpt lat="43.10674" lon="6.29883">
        <ele>-30.4</ele>
        <time>2021-07-21T09:24:32Z</time>
      </trkpt>
      <trkpt lat="43.10678" lon="6.29876">
        <ele>-29.4</ele>
        <time>2021-07-21T09:24:39Z</time>
      </trkpt>
      <trkpt lat="43.10679" lon="6.29869">
        <ele>-28.8</ele>
        <time>2021-07-21T09:24:44Z</time>
      </trkpt>
      <trkpt lat="43.10679" lon="6.29868">
        <ele>-28.6</ele>
        <time>2021-07-21T09:24:45Z</time>
      </trkpt>
      <trkpt lat="43.10679" lon="6.29865">
        <ele>-28.2</ele>
        <time>2021-07-21T09:24:47Z</time>
      </trkpt>
      <trkpt lat="43.10677" lon="6.29857">
        <ele>-27.6</ele>
        <time>2021-07-21T09:24:53Z</time>
      </trkpt>
      <trkpt lat="43.10677" lon="6.29856">
        <ele>-27.6</ele>
        <time>2021-07-21T09:24:55Z</time>
      </trkpt>
      <trkpt lat="43.10677" lon="6.29856">
        <ele>-27.2</ele>
        <time>2021-07-21T09:24:58Z</time>
      </trkpt>
      <trkpt lat="43.10677" lon="6.29858">
        <ele>-26.8</ele>
        <time>2021-07-21T09:25:10Z</time>
      </trkpt>
      <trkpt lat="43.10676" lon="6.29859">
        <ele>-27.6</ele>
        <time>2021-07-21T09:25:24Z</time>
      </trkpt>
      <trkpt lat="43.10679" lon="6.29853">
        <ele>-26.8</ele>
        <time>2021-07-21T09:25:33Z</time>
      </trkpt>
      <trkpt lat="43.10679" lon="6.29849">
        <ele>-26</ele>
        <time>2021-07-21T09:25:37Z</time>
      </trkpt>
      <trkpt lat="43.10679" lon="6.29845">
        <ele>-25</ele>
        <time>2021-07-21T09:25:43Z</time>
      </trkpt>
      <trkpt lat="43.10679" lon="6.29845">
        <ele>-24.8</ele>
        <time>2021-07-21T09:25:45Z</time>
      </trkpt>
      <trkpt lat="43.10678" lon="6.29839">
        <ele>-24.2</ele>
        <time>2021-07-21T09:25:53Z</time>
      </trkpt>
      <trkpt lat="43.10678" lon="6.29837">
        <ele>-23.8</ele>
        <time>2021-07-21T09:25:56Z</time>
      </trkpt>
      <trkpt lat="43.10677" lon="6.29835">
        <ele>-23</ele>
        <time>2021-07-21T09:26:04Z</time>
      </trkpt>
      <trkpt lat="43.10677" lon="6.29828">
        <ele>-23.4</ele>
        <time>2021-07-21T09:26:13Z</time>
      </trkpt>
      <trkpt lat="43.10678" lon="6.29828">
        <ele>-22.6</ele>
        <time>2021-07-21T09:26:19Z</time>
      </trkpt>
      <trkpt lat="43.10678" lon="6.29827">
        <ele>-22.6</ele>
        <time>2021-07-21T09:26:21Z</time>
      </trkpt>
      <trkpt lat="43.10677" lon="6.29828">
        <ele>-22.6</ele>
        <time>2021-07-21T09:26:37Z</time>
      </trkpt>
      <trkpt lat="43.10676" lon="6.29828">
        <ele>-23.2</ele>
        <time>2021-07-21T09:26:52Z</time>
      </trkpt>
      <trkpt lat="43.10676" lon="6.29827">
        <ele>-23.8</ele>
        <time>2021-07-21T09:26:54Z</time>
      </trkpt>
      <trkpt lat="43.10673" lon="6.29824">
        <ele>-24.8</ele>
        <time>2021-07-21T09:27:00Z</time>
      </trkpt>
      <trkpt lat="43.10673" lon="6.29823">
        <ele>-25</ele>
        <time>2021-07-21T09:27:01Z</time>
      </trkpt>
      <trkpt lat="43.10674" lon="6.29817">
        <ele>-26</ele>
        <time>2021-07-21T09:27:07Z</time>
      </trkpt>
      <trkpt lat="43.10675" lon="6.29816">
        <ele>-26.2</ele>
        <time>2021-07-21T09:27:08Z</time>
      </trkpt>
      <trkpt lat="43.10675" lon="6.29816">
        <ele>-26.6</ele>
        <time>2021-07-21T09:27:09Z</time>
      </trkpt>
      <trkpt lat="43.10678" lon="6.29815">
        <ele>-27.4</ele>
        <time>2021-07-21T09:27:17Z</time>
      </trkpt>
      <trkpt lat="43.1068" lon="6.29813">
        <ele>-27</ele>
        <time>2021-07-21T09:27:25Z</time>
      </trkpt>
      <trkpt lat="43.10683" lon="6.29816">
        <ele>-27.2</ele>
        <time>2021-07-21T09:27:32Z</time>
      </trkpt>
      <trkpt lat="43.10686" lon="6.29816">
        <ele>-27</ele>
        <time>2021-07-21T09:27:35Z</time>
      </trkpt>
      <trkpt lat="43.10695" lon="6.29811">
        <ele>-28.6</ele>
        <time>2021-07-21T09:27:45Z</time>
      </trkpt>
      <trkpt lat="43.10696" lon="6.2981">
        <ele>-29.2</ele>
        <time>2021-07-21T09:27:46Z</time>
      </trkpt>
      <trkpt lat="43.10697" lon="6.29809">
        <ele>-29.8</ele>
        <time>2021-07-21T09:27:48Z</time>
      </trkpt>
      <trkpt lat="43.10698" lon="6.29809">
        <ele>-30</ele>
        <time>2021-07-21T09:27:49Z</time>
      </trkpt>
      <trkpt lat="43.10699" lon="6.29808">
        <ele>-30.2</ele>
        <time>2021-07-21T09:27:51Z</time>
      </trkpt>
      <trkpt lat="43.10699" lon="6.29805">
        <ele>-30.4</ele>
        <time>2021-07-21T09:27:54Z</time>
      </trkpt>
      <trkpt lat="43.10702" lon="6.29803">
        <ele>-30.8</ele>
        <time>2021-07-21T09:27:57Z</time>
      </trkpt>
      <trkpt lat="43.10703" lon="6.29802">
        <ele>-31</ele>
        <time>2021-07-21T09:27:59Z</time>
      </trkpt>
      <trkpt lat="43.10705" lon="6.29802">
        <ele>-32</ele>
        <time>2021-07-21T09:28:01Z</time>
      </trkpt>
      <trkpt lat="43.10707" lon="6.29803">
        <ele>-33</ele>
        <time>2021-07-21T09:28:04Z</time>
      </trkpt>
      <trkpt lat="43.10707" lon="6.29803">
        <ele>-33.4</ele>
        <time>2021-07-21T09:28:07Z</time>
      </trkpt>
      <trkpt lat="43.10707" lon="6.29804">
        <ele>-33.4</ele>
        <time>2021-07-21T09:28:10Z</time>
      </trkpt>
      <trkpt lat="43.10708" lon="6.29806">
        <ele>-33.6</ele>
        <time>2021-07-21T09:28:16Z</time>
      </trkpt>
      <trkpt lat="43.10708" lon="6.29807">
        <ele>-31.8</ele>
        <time>2021-07-21T09:28:23Z</time>
      </trkpt>
      <trkpt lat="43.10708" lon="6.29806">
        <ele>-30.6</ele>
        <time>2021-07-21T09:28:27Z</time>
      </trkpt>
      <trkpt lat="43.10708" lon="6.29806">
        <ele>-30.4</ele>
        <time>2021-07-21T09:28:28Z</time>
      </trkpt>
      <trkpt lat="43.10708" lon="6.29806">
        <ele>-32.2</ele>
        <time>2021-07-21T09:28:32Z</time>
      </trkpt>
      <trkpt lat="43.10708" lon="6.29806">
        <ele>-33</ele>
        <time>2021-07-21T09:28:38Z</time>
      </trkpt>
      <trkpt lat="43.10709" lon="6.29804">
        <ele>-33.2</ele>
        <time>2021-07-21T09:28:48Z</time>
      </trkpt>
      <trkpt lat="43.10709" lon="6.29809">
        <ele>-33.2</ele>
        <time>2021-07-21T09:28:52Z</time>
      </trkpt>
      <trkpt lat="43.10708" lon="6.29822">
        <ele>-32.2</ele>
        <time>2021-07-21T09:29:01Z</time>
      </trkpt>
      <trkpt lat="43.10708" lon="6.29826">
        <ele>-31.8</ele>
        <time>2021-07-21T09:29:03Z</time>
      </trkpt>
      <trkpt lat="43.10707" lon="6.29832">
        <ele>-31.2</ele>
        <time>2021-07-21T09:29:07Z</time>
      </trkpt>
      <trkpt lat="43.10708" lon="6.29842">
        <ele>-31.4</ele>
        <time>2021-07-21T09:29:16Z</time>
      </trkpt>
      <trkpt lat="43.10708" lon="6.29846">
        <ele>-32.2</ele>
        <time>2021-07-21T09:29:19Z</time>
      </trkpt>
      <trkpt lat="43.10708" lon="6.2985">
        <ele>-33.2</ele>
        <time>2021-07-21T09:29:23Z</time>
      </trkpt>
      <trkpt lat="43.10709" lon="6.29851">
        <ele>-34.2</ele>
        <time>2021-07-21T09:29:26Z</time>
      </trkpt>
      <trkpt lat="43.10709" lon="6.29851">
        <ele>-34.6</ele>
        <time>2021-07-21T09:29:27Z</time>
      </trkpt>
      <trkpt lat="43.10709" lon="6.29852">
        <ele>-34.8</ele>
        <time>2021-07-21T09:29:28Z</time>
      </trkpt>
      <trkpt lat="43.1071" lon="6.29856">
        <ele>-35.6</ele>
        <time>2021-07-21T09:29:32Z</time>
      </trkpt>
      <trkpt lat="43.1071" lon="6.29859">
        <ele>-36</ele>
        <time>2021-07-21T09:29:35Z</time>
      </trkpt>
      <trkpt lat="43.1071" lon="6.29861">
        <ele>-36.2</ele>
        <time>2021-07-21T09:29:37Z</time>
      </trkpt>
      <trkpt lat="43.1071" lon="6.29861">
        <ele>-36.4</ele>
        <time>2021-07-21T09:29:38Z</time>
      </trkpt>
      <trkpt lat="43.1071" lon="6.29868">
        <ele>-36.4</ele>
        <time>2021-07-21T09:29:44Z</time>
      </trkpt>
      <trkpt lat="43.10711" lon="6.29869">
        <ele>-36.6</ele>
        <time>2021-07-21T09:29:45Z</time>
      </trkpt>
      <trkpt lat="43.10711" lon="6.29877">
        <ele>-37.2</ele>
        <time>2021-07-21T09:29:53Z</time>
      </trkpt>
      <trkpt lat="43.1071" lon="6.29884">
        <ele>-37.6</ele>
        <time>2021-07-21T09:29:59Z</time>
      </trkpt>
      <trkpt lat="43.10711" lon="6.29889">
        <ele>-39</ele>
        <time>2021-07-21T09:30:03Z</time>
      </trkpt>
      <trkpt lat="43.10712" lon="6.29893">
        <ele>-39.6</ele>
        <time>2021-07-21T09:30:08Z</time>
      </trkpt>
      <trkpt lat="43.10711" lon="6.29894">
        <ele>-37.6</ele>
        <time>2021-07-21T09:30:13Z</time>
      </trkpt>
      <trkpt lat="43.10711" lon="6.29896">
        <ele>-39</ele>
        <time>2021-07-21T09:30:17Z</time>
      </trkpt>
      <trkpt lat="43.10711" lon="6.29894">
        <ele>-40</ele>
        <time>2021-07-21T09:30:22Z</time>
      </trkpt>
      <trkpt lat="43.10711" lon="6.29895">
        <ele>-40.2</ele>
        <time>2021-07-21T09:30:23Z</time>
      </trkpt>
      <trkpt lat="43.10713" lon="6.29901">
        <ele>-40.4</ele>
        <time>2021-07-21T09:30:30Z</time>
      </trkpt>
      <trkpt lat="43.10718" lon="6.29909">
        <ele>-41.2</ele>
        <time>2021-07-21T09:30:39Z</time>
      </trkpt>
      <trkpt lat="43.10719" lon="6.2991">
        <ele>-41.8</ele>
        <time>2021-07-21T09:30:41Z</time>
      </trkpt>
      <trkpt lat="43.10726" lon="6.29915">
        <ele>-42.2</ele>
        <time>2021-07-21T09:30:55Z</time>
      </trkpt>
      <trkpt lat="43.10737" lon="6.29921">
        <ele>-42.2</ele>
        <time>2021-07-21T09:31:07Z</time>
      </trkpt>
      <trkpt lat="43.1074" lon="6.29922">
        <ele>-42.4</ele>
        <time>2021-07-21T09:31:10Z</time>
      </trkpt>
      <trkpt lat="43.1074" lon="6.29923">
        <ele>-42.4</ele>
        <time>2021-07-21T09:31:11Z</time>
      </trkpt>
      <trkpt lat="43.10741" lon="6.29925">
        <ele>-42</ele>
        <time>2021-07-21T09:31:14Z</time>
      </trkpt>
      <trkpt lat="43.10741" lon="6.29928">
        <ele>-42</ele>
        <time>2021-07-21T09:31:16Z</time>
      </trkpt>
      <trkpt lat="43.10741" lon="6.29931">
        <ele>-41.8</ele>
        <time>2021-07-21T09:31:19Z</time>
      </trkpt>
      <trkpt lat="43.10741" lon="6.29932">
        <ele>-41.2</ele>
        <time>2021-07-21T09:31:21Z</time>
      </trkpt>
      <trkpt lat="43.10743" lon="6.29933">
        <ele>-40.6</ele>
        <time>2021-07-21T09:31:24Z</time>
      </trkpt>
      <trkpt lat="43.10744" lon="6.29934">
        <ele>-40.2</ele>
        <time>2021-07-21T09:31:26Z</time>
      </trkpt>
      <trkpt lat="43.10745" lon="6.29936">
        <ele>-39.4</ele>
        <time>2021-07-21T09:31:31Z</time>
      </trkpt>
      <trkpt lat="43.10745" lon="6.29936">
        <ele>-39</ele>
        <time>2021-07-21T09:31:34Z</time>
      </trkpt>
      <trkpt lat="43.10747" lon="6.29936">
        <ele>-38.6</ele>
        <time>2021-07-21T09:31:43Z</time>
      </trkpt>
      <trkpt lat="43.10752" lon="6.29941">
        <ele>-38.6</ele>
        <time>2021-07-21T09:31:51Z</time>
      </trkpt>
      <trkpt lat="43.10764" lon="6.2994">
        <ele>-38.8</ele>
        <time>2021-07-21T09:32:01Z</time>
      </trkpt>
      <trkpt lat="43.10777" lon="6.29944">
        <ele>-37.8</ele>
        <time>2021-07-21T09:32:12Z</time>
      </trkpt>
      <trkpt lat="43.1078" lon="6.29944">
        <ele>-37.2</ele>
        <time>2021-07-21T09:32:14Z</time>
      </trkpt>
      <trkpt lat="43.10787" lon="6.29944">
        <ele>-36.8</ele>
        <time>2021-07-21T09:32:19Z</time>
      </trkpt>
      <trkpt lat="43.10794" lon="6.29944">
        <ele>-36.2</ele>
        <time>2021-07-21T09:32:25Z</time>
      </trkpt>
      <trkpt lat="43.10809" lon="6.29947">
        <ele>-37.2</ele>
        <time>2021-07-21T09:32:37Z</time>
      </trkpt>
      <trkpt lat="43.10815" lon="6.29948">
        <ele>-37.8</ele>
        <time>2021-07-21T09:32:44Z</time>
      </trkpt>
      <trkpt lat="43.10815" lon="6.29948">
        <ele>-37</ele>
        <time>2021-07-21T09:32:48Z</time>
      </trkpt>
      <trkpt lat="43.10821" lon="6.29945">
        <ele>-38.2</ele>
        <time>2021-07-21T09:33:00Z</time>
      </trkpt>
      <trkpt lat="43.10826" lon="6.29946">
        <ele>-38.8</ele>
        <time>2021-07-21T09:33:04Z</time>
      </trkpt>
      <trkpt lat="43.10829" lon="6.29946">
        <ele>-39.6</ele>
        <time>2021-07-21T09:33:09Z</time>
      </trkpt>
      <trkpt lat="43.10831" lon="6.29946">
        <ele>-39.8</ele>
        <time>2021-07-21T09:33:12Z</time>
      </trkpt>
      <trkpt lat="43.10837" lon="6.29946">
        <ele>-41</ele>
        <time>2021-07-21T09:33:17Z</time>
      </trkpt>
      <trkpt lat="43.10841" lon="6.29947">
        <ele>-42</ele>
        <time>2021-07-21T09:33:21Z</time>
      </trkpt>
      <trkpt lat="43.10843" lon="6.29948">
        <ele>-42.2</ele>
        <time>2021-07-21T09:33:23Z</time>
      </trkpt>
      <trkpt lat="43.10856" lon="6.29943">
        <ele>-42.6</ele>
        <time>2021-07-21T09:33:34Z</time>
      </trkpt>
      <trkpt lat="43.10866" lon="6.29941">
        <ele>-42.4</ele>
        <time>2021-07-21T09:33:44Z</time>
      </trkpt>
      <trkpt lat="43.10878" lon="6.29934">
        <ele>-42.4</ele>
        <time>2021-07-21T09:33:58Z</time>
      </trkpt>
      <trkpt lat="43.10892" lon="6.29927">
        <ele>-42.4</ele>
        <time>2021-07-21T09:34:11Z</time>
      </trkpt>
      <trkpt lat="43.10902" lon="6.29921">
        <ele>-42.4</ele>
        <time>2021-07-21T09:34:21Z</time>
      </trkpt>
      <trkpt lat="43.10918" lon="6.29911">
        <ele>-42.8</ele>
        <time>2021-07-21T09:34:36Z</time>
      </trkpt>
      <trkpt lat="43.10929" lon="6.29902">
        <ele>-42.8</ele>
        <time>2021-07-21T09:34:47Z</time>
      </trkpt>
      <trkpt lat="43.10939" lon="6.29894">
        <ele>-42.6</ele>
        <time>2021-07-21T09:34:59Z</time>
      </trkpt>
      <trkpt lat="43.10947" lon="6.29883">
        <ele>-42.6</ele>
        <time>2021-07-21T09:35:10Z</time>
      </trkpt>
      <trkpt lat="43.10956" lon="6.29872">
        <ele>-42.8</ele>
        <time>2021-07-21T09:35:21Z</time>
      </trkpt>
      <trkpt lat="43.1096" lon="6.29865">
        <ele>-42.4</ele>
        <time>2021-07-21T09:35:28Z</time>
      </trkpt>
      <trkpt lat="43.1097" lon="6.29854">
        <ele>-42.4</ele>
        <time>2021-07-21T09:35:39Z</time>
      </trkpt>
      <trkpt lat="43.10977" lon="6.29846">
        <ele>-42.8</ele>
        <time>2021-07-21T09:35:47Z</time>
      </trkpt>
      <trkpt lat="43.10986" lon="6.29835">
        <ele>-42.6</ele>
        <time>2021-07-21T09:35:58Z</time>
      </trkpt>
      <trkpt lat="43.10991" lon="6.29826">
        <ele>-42.4</ele>
        <time>2021-07-21T09:36:05Z</time>
      </trkpt>
      <trkpt lat="43.10996" lon="6.29819">
        <ele>-43</ele>
        <time>2021-07-21T09:36:11Z</time>
      </trkpt>
      <trkpt lat="43.10999" lon="6.29812">
        <ele>-43</ele>
        <time>2021-07-21T09:36:17Z</time>
      </trkpt>
      <trkpt lat="43.11001" lon="6.29806">
        <ele>-43.2</ele>
        <time>2021-07-21T09:36:21Z</time>
      </trkpt>
      <trkpt lat="43.11004" lon="6.29798">
        <ele>-42.8</ele>
        <time>2021-07-21T09:36:29Z</time>
      </trkpt>
      <trkpt lat="43.11011" lon="6.29783">
        <ele>-42.8</ele>
        <time>2021-07-21T09:36:43Z</time>
      </trkpt>
      <trkpt lat="43.11021" lon="6.29763">
        <ele>-43</ele>
        <time>2021-07-21T09:36:59Z</time>
      </trkpt>
      <trkpt lat="43.11027" lon="6.29748">
        <ele>-43.2</ele>
        <time>2021-07-21T09:37:11Z</time>
      </trkpt>
      <trkpt lat="43.11027" lon="6.29745">
        <ele>-43.2</ele>
        <time>2021-07-21T09:37:14Z</time>
      </trkpt>
      <trkpt lat="43.11028" lon="6.29743">
        <ele>-43.2</ele>
        <time>2021-07-21T09:37:16Z</time>
      </trkpt>
      <trkpt lat="43.11029" lon="6.2974">
        <ele>-43.2</ele>
        <time>2021-07-21T09:37:19Z</time>
      </trkpt>
      <trkpt lat="43.11034" lon="6.29731">
        <ele>-43</ele>
        <time>2021-07-21T09:37:28Z</time>
      </trkpt>
      <trkpt lat="43.11036" lon="6.29732">
        <ele>-42.8</ele>
        <time>2021-07-21T09:37:30Z</time>
      </trkpt>
      <trkpt lat="43.1104" lon="6.29737">
        <ele>-43.2</ele>
        <time>2021-07-21T09:37:35Z</time>
      </trkpt>
      <trkpt lat="43.11043" lon="6.29739">
        <ele>-42</ele>
        <time>2021-07-21T09:37:41Z</time>
      </trkpt>
      <trkpt lat="43.11047" lon="6.29741">
        <ele>-41</ele>
        <time>2021-07-21T09:37:46Z</time>
      </trkpt>
      <trkpt lat="43.1105" lon="6.29743">
        <ele>-40.4</ele>
        <time>2021-07-21T09:37:49Z</time>
      </trkpt>
      <trkpt lat="43.11053" lon="6.29742">
        <ele>-40.4</ele>
        <time>2021-07-21T09:37:54Z</time>
      </trkpt>
      <trkpt lat="43.11054" lon="6.29739">
        <ele>-40.8</ele>
        <time>2021-07-21T09:37:58Z</time>
      </trkpt>
      <trkpt lat="43.11059" lon="6.29718">
        <ele>-40.4</ele>
        <time>2021-07-21T09:38:11Z</time>
      </trkpt>
      <trkpt lat="43.11068" lon="6.29703">
        <ele>-40</ele>
        <time>2021-07-21T09:38:23Z</time>
      </trkpt>
      <trkpt lat="43.1107" lon="6.29701">
        <ele>-39.8</ele>
        <time>2021-07-21T09:38:25Z</time>
      </trkpt>
      <trkpt lat="43.1107" lon="6.29693">
        <ele>-39.6</ele>
        <time>2021-07-21T09:38:32Z</time>
      </trkpt>
      <trkpt lat="43.11072" lon="6.29688">
        <ele>-39</ele>
        <time>2021-07-21T09:38:37Z</time>
      </trkpt>
      <trkpt lat="43.11073" lon="6.29687">
        <ele>-38.8</ele>
        <time>2021-07-21T09:38:38Z</time>
      </trkpt>
      <trkpt lat="43.11074" lon="6.29683">
        <ele>-38.6</ele>
        <time>2021-07-21T09:38:41Z</time>
      </trkpt>
      <trkpt lat="43.11072" lon="6.29679">
        <ele>-38.4</ele>
        <time>2021-07-21T09:38:45Z</time>
      </trkpt>
      <trkpt lat="43.11071" lon="6.29678">
        <ele>-38.4</ele>
        <time>2021-07-21T09:38:46Z</time>
      </trkpt>
      <trkpt lat="43.11062" lon="6.29664">
        <ele>-38.4</ele>
        <time>2021-07-21T09:38:57Z</time>
      </trkpt>
      <trkpt lat="43.11061" lon="6.29657">
        <ele>-38.2</ele>
        <time>2021-07-21T09:39:06Z</time>
      </trkpt>
      <trkpt lat="43.11061" lon="6.29658">
        <ele>-37.8</ele>
        <time>2021-07-21T09:39:11Z</time>
      </trkpt>
      <trkpt lat="43.1106" lon="6.29659">
        <ele>-37.8</ele>
        <time>2021-07-21T09:39:21Z</time>
      </trkpt>
      <trkpt lat="43.11069" lon="6.2966">
        <ele>-37.8</ele>
        <time>2021-07-21T09:39:30Z</time>
      </trkpt>
      <trkpt lat="43.11074" lon="6.2965">
        <ele>-38</ele>
        <time>2021-07-21T09:39:40Z</time>
      </trkpt>
      <trkpt lat="43.11074" lon="6.29649">
        <ele>-38</ele>
        <time>2021-07-21T09:39:41Z</time>
      </trkpt>
      <trkpt lat="43.11074" lon="6.29648">
        <ele>-38.2</ele>
        <time>2021-07-21T09:39:43Z</time>
      </trkpt>
      <trkpt lat="43.1107" lon="6.29639">
        <ele>-37.6</ele>
        <time>2021-07-21T09:39:50Z</time>
      </trkpt>
      <trkpt lat="43.1107" lon="6.29637">
        <ele>-37.6</ele>
        <time>2021-07-21T09:39:51Z</time>
      </trkpt>
      <trkpt lat="43.11069" lon="6.29633">
        <ele>-37.8</ele>
        <time>2021-07-21T09:39:54Z</time>
      </trkpt>
      <trkpt lat="43.11065" lon="6.29619">
        <ele>-38.8</ele>
        <time>2021-07-21T09:40:05Z</time>
      </trkpt>
      <trkpt lat="43.11065" lon="6.29616">
        <ele>-39</ele>
        <time>2021-07-21T09:40:07Z</time>
      </trkpt>
      <trkpt lat="43.11057" lon="6.29599">
        <ele>-39.2</ele>
        <time>2021-07-21T09:40:18Z</time>
      </trkpt>
      <trkpt lat="43.11053" lon="6.29589">
        <ele>-39.2</ele>
        <time>2021-07-21T09:40:29Z</time>
      </trkpt>
      <trkpt lat="43.11052" lon="6.29579">
        <ele>-39</ele>
        <time>2021-07-21T09:40:39Z</time>
      </trkpt>
      <trkpt lat="43.11053" lon="6.29577">
        <ele>-39</ele>
        <time>2021-07-21T09:40:40Z</time>
      </trkpt>
      <trkpt lat="43.11052" lon="6.29568">
        <ele>-39.8</ele>
        <time>2021-07-21T09:40:46Z</time>
      </trkpt>
      <trkpt lat="43.11051" lon="6.29564">
        <ele>-40</ele>
        <time>2021-07-21T09:40:49Z</time>
      </trkpt>
      <trkpt lat="43.11048" lon="6.29559">
        <ele>-40.2</ele>
        <time>2021-07-21T09:40:52Z</time>
      </trkpt>
      <trkpt lat="43.11042" lon="6.29546">
        <ele>-39</ele>
        <time>2021-07-21T09:41:03Z</time>
      </trkpt>
      <trkpt lat="43.11042" lon="6.29545">
        <ele>-38.8</ele>
        <time>2021-07-21T09:41:04Z</time>
      </trkpt>
      <trkpt lat="43.11038" lon="6.29536">
        <ele>-37.6</ele>
        <time>2021-07-21T09:41:12Z</time>
      </trkpt>
      <trkpt lat="43.11038" lon="6.29535">
        <ele>-36.8</ele>
        <time>2021-07-21T09:41:14Z</time>
      </trkpt>
      <trkpt lat="43.11038" lon="6.29535">
        <ele>-36.6</ele>
        <time>2021-07-21T09:41:15Z</time>
      </trkpt>
      <trkpt lat="43.11038" lon="6.29535">
        <ele>-36.6</ele>
        <time>2021-07-21T09:41:16Z</time>
      </trkpt>
      <trkpt lat="43.11034" lon="6.29527">
        <ele>-35.6</ele>
        <time>2021-07-21T09:41:24Z</time>
      </trkpt>
      <trkpt lat="43.11034" lon="6.29526">
        <ele>-35.4</ele>
        <time>2021-07-21T09:41:25Z</time>
      </trkpt>
      <trkpt lat="43.1103" lon="6.29522">
        <ele>-34.2</ele>
        <time>2021-07-21T09:41:29Z</time>
      </trkpt>
      <trkpt lat="43.11022" lon="6.29514">
        <ele>-34</ele>
        <time>2021-07-21T09:41:37Z</time>
      </trkpt>
      <trkpt lat="43.11005" lon="6.29504">
        <ele>-35</ele>
        <time>2021-07-21T09:41:52Z</time>
      </trkpt>
      <trkpt lat="43.10992" lon="6.29502">
        <ele>-33.4</ele>
        <time>2021-07-21T09:42:03Z</time>
      </trkpt>
      <trkpt lat="43.1099" lon="6.29499">
        <ele>-33.2</ele>
        <time>2021-07-21T09:42:05Z</time>
      </trkpt>
      <trkpt lat="43.10982" lon="6.29495">
        <ele>-32.2</ele>
        <time>2021-07-21T09:42:12Z</time>
      </trkpt>
      <trkpt lat="43.1098" lon="6.29495">
        <ele>-32</ele>
        <time>2021-07-21T09:42:13Z</time>
      </trkpt>
      <trkpt lat="43.10968" lon="6.29492">
        <ele>-30.8</ele>
        <time>2021-07-21T09:42:23Z</time>
      </trkpt>
      <trkpt lat="43.10964" lon="6.2949">
        <ele>-30.4</ele>
        <time>2021-07-21T09:42:26Z</time>
      </trkpt>
      <trkpt lat="43.10958" lon="6.29489">
        <ele>-29.8</ele>
        <time>2021-07-21T09:42:31Z</time>
      </trkpt>
      <trkpt lat="43.10952" lon="6.29486">
        <ele>-28.6</ele>
        <time>2021-07-21T09:42:37Z</time>
      </trkpt>
      <trkpt lat="43.1095" lon="6.29486">
        <ele>-28</ele>
        <time>2021-07-21T09:42:39Z</time>
      </trkpt>
      <trkpt lat="43.10948" lon="6.29485">
        <ele>-27.2</ele>
        <time>2021-07-21T09:42:41Z</time>
      </trkpt>
      <trkpt lat="43.10945" lon="6.29481">
        <ele>-26.2</ele>
        <time>2021-07-21T09:42:46Z</time>
      </trkpt>
      <trkpt lat="43.1094" lon="6.29476">
        <ele>-25</ele>
        <time>2021-07-21T09:42:50Z</time>
      </trkpt>
      <trkpt lat="43.10932" lon="6.29471">
        <ele>-23.8</ele>
        <time>2021-07-21T09:42:57Z</time>
      </trkpt>
      <trkpt lat="43.10925" lon="6.29467">
        <ele>-23.8</ele>
        <time>2021-07-21T09:43:03Z</time>
      </trkpt>
      <trkpt lat="43.10913" lon="6.29466">
        <ele>-22.8</ele>
        <time>2021-07-21T09:43:14Z</time>
      </trkpt>
      <trkpt lat="43.10911" lon="6.29466">
        <ele>-22.6</ele>
        <time>2021-07-21T09:43:15Z</time>
      </trkpt>
      <trkpt lat="43.109" lon="6.29462">
        <ele>-22.2</ele>
        <time>2021-07-21T09:43:25Z</time>
      </trkpt>
      <trkpt lat="43.10893" lon="6.29461">
        <ele>-22.6</ele>
        <time>2021-07-21T09:43:34Z</time>
      </trkpt>
      <trkpt lat="43.10893" lon="6.29461">
        <ele>-22.8</ele>
        <time>2021-07-21T09:43:35Z</time>
      </trkpt>
      <trkpt lat="43.10893" lon="6.29461">
        <ele>-23</ele>
        <time>2021-07-21T09:43:37Z</time>
      </trkpt>
      <trkpt lat="43.1089" lon="6.29457">
        <ele>-23.8</ele>
        <time>2021-07-21T09:43:43Z</time>
      </trkpt>
      <trkpt lat="43.10888" lon="6.29457">
        <ele>-24.4</ele>
        <time>2021-07-21T09:43:49Z</time>
      </trkpt>
      <trkpt lat="43.1089" lon="6.29462">
        <ele>-23.6</ele>
        <time>2021-07-21T09:43:58Z</time>
      </trkpt>
      <trkpt lat="43.10893" lon="6.29464">
        <ele>-22.8</ele>
        <time>2021-07-21T09:44:05Z</time>
      </trkpt>
      <trkpt lat="43.10894" lon="6.29464">
        <ele>-22.6</ele>
        <time>2021-07-21T09:44:06Z</time>
      </trkpt>
      <trkpt lat="43.10894" lon="6.29464">
        <ele>-21.6</ele>
        <time>2021-07-21T09:44:15Z</time>
      </trkpt>
      <trkpt lat="43.10894" lon="6.29464">
        <ele>-21.2</ele>
        <time>2021-07-21T09:44:18Z</time>
      </trkpt>
      <trkpt lat="43.10893" lon="6.29461">
        <ele>-22.4</ele>
        <time>2021-07-21T09:44:27Z</time>
      </trkpt>
      <trkpt lat="43.10892" lon="6.29459">
        <ele>-23</ele>
        <time>2021-07-21T09:44:30Z</time>
      </trkpt>
      <trkpt lat="43.1089" lon="6.29456">
        <ele>-24.4</ele>
        <time>2021-07-21T09:44:35Z</time>
      </trkpt>
      <trkpt lat="43.10889" lon="6.29452">
        <ele>-24.8</ele>
        <time>2021-07-21T09:44:38Z</time>
      </trkpt>
      <trkpt lat="43.10889" lon="6.29451">
        <ele>-24.8</ele>
        <time>2021-07-21T09:44:39Z</time>
      </trkpt>
      <trkpt lat="43.10889" lon="6.29446">
        <ele>-25.4</ele>
        <time>2021-07-21T09:44:43Z</time>
      </trkpt>
      <trkpt lat="43.10888" lon="6.29445">
        <ele>-26</ele>
        <time>2021-07-21T09:44:48Z</time>
      </trkpt>
      <trkpt lat="43.10883" lon="6.29443">
        <ele>-26.6</ele>
        <time>2021-07-21T09:44:58Z</time>
      </trkpt>
      <trkpt lat="43.10879" lon="6.2944">
        <ele>-27.8</ele>
        <time>2021-07-21T09:45:04Z</time>
      </trkpt>
      <trkpt lat="43.10878" lon="6.29436">
        <ele>-28.2</ele>
        <time>2021-07-21T09:45:08Z</time>
      </trkpt>
      <trkpt lat="43.10877" lon="6.29433">
        <ele>-28.4</ele>
        <time>2021-07-21T09:45:10Z</time>
      </trkpt>
      <trkpt lat="43.10875" lon="6.2943">
        <ele>-29</ele>
        <time>2021-07-21T09:45:13Z</time>
      </trkpt>
      <trkpt lat="43.10874" lon="6.29425">
        <ele>-30</ele>
        <time>2021-07-21T09:45:19Z</time>
      </trkpt>
      <trkpt lat="43.10874" lon="6.29423">
        <ele>-30</ele>
        <time>2021-07-21T09:45:20Z</time>
      </trkpt>
      <trkpt lat="43.10871" lon="6.29419">
        <ele>-31</ele>
        <time>2021-07-21T09:45:26Z</time>
      </trkpt>
      <trkpt lat="43.10869" lon="6.29416">
        <ele>-32.2</ele>
        <time>2021-07-21T09:45:29Z</time>
      </trkpt>
      <trkpt lat="43.10864" lon="6.2941">
        <ele>-33.2</ele>
        <time>2021-07-21T09:45:35Z</time>
      </trkpt>
      <trkpt lat="43.10859" lon="6.29406">
        <ele>-34.6</ele>
        <time>2021-07-21T09:45:41Z</time>
      </trkpt>
      <trkpt lat="43.10859" lon="6.29406">
        <ele>-34.8</ele>
        <time>2021-07-21T09:45:42Z</time>
      </trkpt>
      <trkpt lat="43.10859" lon="6.29406">
        <ele>-35</ele>
        <time>2021-07-21T09:45:43Z</time>
      </trkpt>
      <trkpt lat="43.10858" lon="6.29406">
        <ele>-34.6</ele>
        <time>2021-07-21T09:45:46Z</time>
      </trkpt>
      <trkpt lat="43.10856" lon="6.29409">
        <ele>-35</ele>
        <time>2021-07-21T09:45:50Z</time>
      </trkpt>
      <trkpt lat="43.10856" lon="6.29411">
        <ele>-35.6</ele>
        <time>2021-07-21T09:46:01Z</time>
      </trkpt>
      <trkpt lat="43.10854" lon="6.29414">
        <ele>-35</ele>
        <time>2021-07-21T09:46:13Z</time>
      </trkpt>
      <trkpt lat="43.10854" lon="6.29414">
        <ele>-35</ele>
        <time>2021-07-21T09:46:30Z</time>
      </trkpt>
      <trkpt lat="43.10858" lon="6.29417">
        <ele>-34.8</ele>
        <time>2021-07-21T09:46:38Z</time>
      </trkpt>
      <trkpt lat="43.10858" lon="6.29417">
        <ele>-35.2</ele>
        <time>2021-07-21T09:46:48Z</time>
      </trkpt>
      <trkpt lat="43.10858" lon="6.29417">
        <ele>-35.2</ele>
        <time>2021-07-21T09:47:00Z</time>
      </trkpt>
      <trkpt lat="43.10859" lon="6.29417">
        <ele>-35.6</ele>
        <time>2021-07-21T09:47:04Z</time>
      </trkpt>
      <trkpt lat="43.10859" lon="6.29417">
        <ele>-34.6</ele>
        <time>2021-07-21T09:47:08Z</time>
      </trkpt>
      <trkpt lat="43.10859" lon="6.29416">
        <ele>-34.6</ele>
        <time>2021-07-21T09:47:11Z</time>
      </trkpt>
      <trkpt lat="43.1086" lon="6.29416">
        <ele>-34.6</ele>
        <time>2021-07-21T09:47:12Z</time>
      </trkpt>
      <trkpt lat="43.10859" lon="6.29416">
        <ele>-34.8</ele>
        <time>2021-07-21T09:47:20Z</time>
      </trkpt>
      <trkpt lat="43.10859" lon="6.29416">
        <ele>-35.6</ele>
        <time>2021-07-21T09:47:27Z</time>
      </trkpt>
      <trkpt lat="43.10859" lon="6.29416">
        <ele>-35.4</ele>
        <time>2021-07-21T09:47:37Z</time>
      </trkpt>
      <trkpt lat="43.1086" lon="6.29416">
        <ele>-35</ele>
        <time>2021-07-21T09:47:48Z</time>
      </trkpt>
      <trkpt lat="43.1086" lon="6.29415">
        <ele>-35</ele>
        <time>2021-07-21T09:47:52Z</time>
      </trkpt>
      <trkpt lat="43.1086" lon="6.29415">
        <ele>-34.6</ele>
        <time>2021-07-21T09:47:56Z</time>
      </trkpt>
      <trkpt lat="43.1086" lon="6.29416">
        <ele>-35.4</ele>
        <time>2021-07-21T09:48:04Z</time>
      </trkpt>
      <trkpt lat="43.10861" lon="6.29416">
        <ele>-35.6</ele>
        <time>2021-07-21T09:48:11Z</time>
      </trkpt>
      <trkpt lat="43.10861" lon="6.29417">
        <ele>-36.6</ele>
        <time>2021-07-21T09:48:14Z</time>
      </trkpt>
      <trkpt lat="43.10861" lon="6.29417">
        <ele>-35</ele>
        <time>2021-07-21T09:48:23Z</time>
      </trkpt>
      <trkpt lat="43.10861" lon="6.29417">
        <ele>-35</ele>
        <time>2021-07-21T09:48:26Z</time>
      </trkpt>
      <trkpt lat="43.10861" lon="6.29417">
        <ele>-34.6</ele>
        <time>2021-07-21T09:48:30Z</time>
      </trkpt>
      <trkpt lat="43.10861" lon="6.29416">
        <ele>-35.2</ele>
        <time>2021-07-21T09:48:39Z</time>
      </trkpt>
      <trkpt lat="43.10859" lon="6.29408">
        <ele>-34.6</ele>
        <time>2021-07-21T09:48:47Z</time>
      </trkpt>
      <trkpt lat="43.10857" lon="6.29394">
        <ele>-35.8</ele>
        <time>2021-07-21T09:48:55Z</time>
      </trkpt>
      <trkpt lat="43.10858" lon="6.29391">
        <ele>-35.8</ele>
        <time>2021-07-21T09:48:57Z</time>
      </trkpt>
      <trkpt lat="43.10867" lon="6.29379">
        <ele>-36.4</ele>
        <time>2021-07-21T09:49:07Z</time>
      </trkpt>
      <trkpt lat="43.10871" lon="6.29376">
        <ele>-36.8</ele>
        <time>2021-07-21T09:49:11Z</time>
      </trkpt>
      <trkpt lat="43.10872" lon="6.29375">
        <ele>-36.8</ele>
        <time>2021-07-21T09:49:12Z</time>
      </trkpt>
      <trkpt lat="43.10882" lon="6.29366">
        <ele>-37</ele>
        <time>2021-07-21T09:49:22Z</time>
      </trkpt>
      <trkpt lat="43.1089" lon="6.29357">
        <ele>-36.6</ele>
        <time>2021-07-21T09:49:34Z</time>
      </trkpt>
      <trkpt lat="43.10895" lon="6.29353">
        <ele>-37.2</ele>
        <time>2021-07-21T09:49:43Z</time>
      </trkpt>
      <trkpt lat="43.10896" lon="6.29352">
        <ele>-37.4</ele>
        <time>2021-07-21T09:49:44Z</time>
      </trkpt>
      <trkpt lat="43.10909" lon="6.29344">
        <ele>-37.4</ele>
        <time>2021-07-21T09:49:56Z</time>
      </trkpt>
      <trkpt lat="43.10927" lon="6.29339">
        <ele>-37</ele>
        <time>2021-07-21T09:50:11Z</time>
      </trkpt>
      <trkpt lat="43.10943" lon="6.29333">
        <ele>-37.8</ele>
        <time>2021-07-21T09:50:24Z</time>
      </trkpt>
      <trkpt lat="43.10946" lon="6.29316">
        <ele>-38</ele>
        <time>2021-07-21T09:50:35Z</time>
      </trkpt>
      <trkpt lat="43.10948" lon="6.29293">
        <ele>-38.4</ele>
        <time>2021-07-21T09:50:49Z</time>
      </trkpt>
      <trkpt lat="43.10945" lon="6.29273">
        <ele>-38</ele>
        <time>2021-07-21T09:51:01Z</time>
      </trkpt>
      <trkpt lat="43.10939" lon="6.29263">
        <ele>-38.6</ele>
        <time>2021-07-21T09:51:12Z</time>
      </trkpt>
      <trkpt lat="43.10937" lon="6.2926">
        <ele>-39</ele>
        <time>2021-07-21T09:51:15Z</time>
      </trkpt>
      <trkpt lat="43.10934" lon="6.29256">
        <ele>-40</ele>
        <time>2021-07-21T09:51:21Z</time>
      </trkpt>
      <trkpt lat="43.10933" lon="6.29257">
        <ele>-40.4</ele>
        <time>2021-07-21T09:51:23Z</time>
      </trkpt>
      <trkpt lat="43.10932" lon="6.29256">
        <ele>-40.4</ele>
        <time>2021-07-21T09:51:25Z</time>
      </trkpt>
      <trkpt lat="43.10931" lon="6.29258">
        <ele>-40.2</ele>
        <time>2021-07-21T09:51:34Z</time>
      </trkpt>
      <trkpt lat="43.10933" lon="6.2926">
        <ele>-40</ele>
        <time>2021-07-21T09:51:44Z</time>
      </trkpt>
      <trkpt lat="43.10933" lon="6.29267">
        <ele>-39.6</ele>
        <time>2021-07-21T09:51:51Z</time>
      </trkpt>
      <trkpt lat="43.10936" lon="6.29273">
        <ele>-39</ele>
        <time>2021-07-21T09:51:56Z</time>
      </trkpt>
      <trkpt lat="43.10936" lon="6.29273">
        <ele>-39</ele>
        <time>2021-07-21T09:51:58Z</time>
      </trkpt>
      <trkpt lat="43.10937" lon="6.29272">
        <ele>-39</ele>
        <time>2021-07-21T09:51:59Z</time>
      </trkpt>
      <trkpt lat="43.10938" lon="6.29266">
        <ele>-39.2</ele>
        <time>2021-07-21T09:52:06Z</time>
      </trkpt>
      <trkpt lat="43.10941" lon="6.29269">
        <ele>-39</ele>
        <time>2021-07-21T09:52:13Z</time>
      </trkpt>
      <trkpt lat="43.10946" lon="6.29267">
        <ele>-39</ele>
        <time>2021-07-21T09:52:22Z</time>
      </trkpt>
      <trkpt lat="43.10947" lon="6.29254">
        <ele>-38.6</ele>
        <time>2021-07-21T09:52:30Z</time>
      </trkpt>
      <trkpt lat="43.10944" lon="6.29239">
        <ele>-38.4</ele>
        <time>2021-07-21T09:52:39Z</time>
      </trkpt>
      <trkpt lat="43.10937" lon="6.29221">
        <ele>-38.4</ele>
        <time>2021-07-21T09:52:49Z</time>
      </trkpt>
      <trkpt lat="43.10935" lon="6.29215">
        <ele>-39</ele>
        <time>2021-07-21T09:52:54Z</time>
      </trkpt>
      <trkpt lat="43.10935" lon="6.29213">
        <ele>-39.2</ele>
        <time>2021-07-21T09:52:56Z</time>
      </trkpt>
      <trkpt lat="43.10936" lon="6.2921">
        <ele>-39.2</ele>
        <time>2021-07-21T09:52:58Z</time>
      </trkpt>
      <trkpt lat="43.10938" lon="6.29205">
        <ele>-39.2</ele>
        <time>2021-07-21T09:53:04Z</time>
      </trkpt>
      <trkpt lat="43.10939" lon="6.29203">
        <ele>-39.4</ele>
        <time>2021-07-21T09:53:07Z</time>
      </trkpt>
      <trkpt lat="43.10944" lon="6.29201">
        <ele>-39.6</ele>
        <time>2021-07-21T09:53:12Z</time>
      </trkpt>
      <trkpt lat="43.10945" lon="6.29199">
        <ele>-39.8</ele>
        <time>2021-07-21T09:53:14Z</time>
      </trkpt>
      <trkpt lat="43.10946" lon="6.29199">
        <ele>-39.8</ele>
        <time>2021-07-21T09:53:15Z</time>
      </trkpt>
      <trkpt lat="43.10947" lon="6.29197">
        <ele>-39.8</ele>
        <time>2021-07-21T09:53:17Z</time>
      </trkpt>
      <trkpt lat="43.10949" lon="6.29195">
        <ele>-40</ele>
        <time>2021-07-21T09:53:19Z</time>
      </trkpt>
      <trkpt lat="43.10949" lon="6.29193">
        <ele>-40.2</ele>
        <time>2021-07-21T09:53:20Z</time>
      </trkpt>
      <trkpt lat="43.10953" lon="6.29187">
        <ele>-40.6</ele>
        <time>2021-07-21T09:53:25Z</time>
      </trkpt>
      <trkpt lat="43.1095" lon="6.29176">
        <ele>-40.4</ele>
        <time>2021-07-21T09:53:33Z</time>
      </trkpt>
      <trkpt lat="43.10945" lon="6.29175">
        <ele>-40.6</ele>
        <time>2021-07-21T09:53:38Z</time>
      </trkpt>
      <trkpt lat="43.10941" lon="6.29172">
        <ele>-40.8</ele>
        <time>2021-07-21T09:53:42Z</time>
      </trkpt>
      <trkpt lat="43.10939" lon="6.29168">
        <ele>-41.4</ele>
        <time>2021-07-21T09:53:45Z</time>
      </trkpt>
      <trkpt lat="43.10936" lon="6.29162">
        <ele>-42.2</ele>
        <time>2021-07-21T09:53:52Z</time>
      </trkpt>
      <trkpt lat="43.10936" lon="6.29161">
        <ele>-42.4</ele>
        <time>2021-07-21T09:53:53Z</time>
      </trkpt>
      <trkpt lat="43.10936" lon="6.29159">
        <ele>-42.6</ele>
        <time>2021-07-21T09:53:56Z</time>
      </trkpt>
      <trkpt lat="43.10935" lon="6.29157">
        <ele>-42.8</ele>
        <time>2021-07-21T09:53:58Z</time>
      </trkpt>
      <trkpt lat="43.10935" lon="6.29153">
        <ele>-43</ele>
        <time>2021-07-21T09:54:01Z</time>
      </trkpt>
      <trkpt lat="43.10935" lon="6.2915">
        <ele>-43</ele>
        <time>2021-07-21T09:54:03Z</time>
      </trkpt>
      <trkpt lat="43.10933" lon="6.29145">
        <ele>-43</ele>
        <time>2021-07-21T09:54:09Z</time>
      </trkpt>
      <trkpt lat="43.10932" lon="6.29142">
        <ele>-43</ele>
        <time>2021-07-21T09:54:12Z</time>
      </trkpt>
      <trkpt lat="43.10932" lon="6.29137">
        <ele>-43.2</ele>
        <time>2021-07-21T09:54:16Z</time>
      </trkpt>
      <trkpt lat="43.10932" lon="6.29135">
        <ele>-43.2</ele>
        <time>2021-07-21T09:54:18Z</time>
      </trkpt>
      <trkpt lat="43.10932" lon="6.29134">
        <ele>-43.4</ele>
        <time>2021-07-21T09:54:20Z</time>
      </trkpt>
      <trkpt lat="43.10932" lon="6.29132">
        <ele>-43.6</ele>
        <time>2021-07-21T09:54:22Z</time>
      </trkpt>
      <trkpt lat="43.10932" lon="6.29131">
        <ele>-44</ele>
        <time>2021-07-21T09:54:25Z</time>
      </trkpt>
      <trkpt lat="43.10935" lon="6.29121">
        <ele>-42.8</ele>
        <time>2021-07-21T09:54:35Z</time>
      </trkpt>
      <trkpt lat="43.10936" lon="6.29119">
        <ele>-42.6</ele>
        <time>2021-07-21T09:54:37Z</time>
      </trkpt>
      <trkpt lat="43.10938" lon="6.29111">
        <ele>-41.4</ele>
        <time>2021-07-21T09:54:44Z</time>
      </trkpt>
      <trkpt lat="43.1094" lon="6.29106">
        <ele>-41.2</ele>
        <time>2021-07-21T09:54:48Z</time>
      </trkpt>
      <trkpt lat="43.10934" lon="6.29095">
        <ele>-40.2</ele>
        <time>2021-07-21T09:54:57Z</time>
      </trkpt>
      <trkpt lat="43.10934" lon="6.29094">
        <ele>-40</ele>
        <time>2021-07-21T09:54:58Z</time>
      </trkpt>
      <trkpt lat="43.10929" lon="6.29089">
        <ele>-39.2</ele>
        <time>2021-07-21T09:55:07Z</time>
      </trkpt>
      <trkpt lat="43.10929" lon="6.29088">
        <ele>-39</ele>
        <time>2021-07-21T09:55:08Z</time>
      </trkpt>
      <trkpt lat="43.10925" lon="6.29086">
        <ele>-37.8</ele>
        <time>2021-07-21T09:55:12Z</time>
      </trkpt>
      <trkpt lat="43.10924" lon="6.29085">
        <ele>-37.6</ele>
        <time>2021-07-21T09:55:13Z</time>
      </trkpt>
      <trkpt lat="43.10923" lon="6.29083">
        <ele>-37.4</ele>
        <time>2021-07-21T09:55:15Z</time>
      </trkpt>
      <trkpt lat="43.10921" lon="6.29081">
        <ele>-37</ele>
        <time>2021-07-21T09:55:17Z</time>
      </trkpt>
      <trkpt lat="43.1092" lon="6.2908">
        <ele>-36.8</ele>
        <time>2021-07-21T09:55:19Z</time>
      </trkpt>
      <trkpt lat="43.10917" lon="6.29075">
        <ele>-35.8</ele>
        <time>2021-07-21T09:55:25Z</time>
      </trkpt>
      <trkpt lat="43.10914" lon="6.29067">
        <ele>-34.6</ele>
        <time>2021-07-21T09:55:33Z</time>
      </trkpt>
      <trkpt lat="43.1091" lon="6.29061">
        <ele>-33.4</ele>
        <time>2021-07-21T09:55:38Z</time>
      </trkpt>
      <trkpt lat="43.10909" lon="6.2906">
        <ele>-33</ele>
        <time>2021-07-21T09:55:39Z</time>
      </trkpt>
      <trkpt lat="43.10907" lon="6.29057">
        <ele>-32.2</ele>
        <time>2021-07-21T09:55:44Z</time>
      </trkpt>
      <trkpt lat="43.10907" lon="6.29056">
        <ele>-32.2</ele>
        <time>2021-07-21T09:55:45Z</time>
      </trkpt>
      <trkpt lat="43.10906" lon="6.29053">
        <ele>-31.4</ele>
        <time>2021-07-21T09:55:50Z</time>
      </trkpt>
      <trkpt lat="43.10905" lon="6.29052">
        <ele>-31.2</ele>
        <time>2021-07-21T09:55:51Z</time>
      </trkpt>
      <trkpt lat="43.10905" lon="6.29052">
        <ele>-31.2</ele>
        <time>2021-07-21T09:55:52Z</time>
      </trkpt>
      <trkpt lat="43.10904" lon="6.2905">
        <ele>-30</ele>
        <time>2021-07-21T09:55:55Z</time>
      </trkpt>
      <trkpt lat="43.10903" lon="6.29047">
        <ele>-29</ele>
        <time>2021-07-21T09:56:02Z</time>
      </trkpt>
      <trkpt lat="43.10899" lon="6.29041">
        <ele>-28.4</ele>
        <time>2021-07-21T09:56:16Z</time>
      </trkpt>
      <trkpt lat="43.10896" lon="6.29036">
        <ele>-27</ele>
        <time>2021-07-21T09:56:24Z</time>
      </trkpt>
      <trkpt lat="43.10896" lon="6.29035">
        <ele>-25.4</ele>
        <time>2021-07-21T09:56:25Z</time>
      </trkpt>
      <trkpt lat="43.10896" lon="6.29034">
        <ele>-24.2</ele>
        <time>2021-07-21T09:56:27Z</time>
      </trkpt>
      <trkpt lat="43.10895" lon="6.2903">
        <ele>-23.4</ele>
        <time>2021-07-21T09:56:31Z</time>
      </trkpt>
      <trkpt lat="43.10895" lon="6.29029">
        <ele>-23</ele>
        <time>2021-07-21T09:56:33Z</time>
      </trkpt>
      <trkpt lat="43.10895" lon="6.29028">
        <ele>-22</ele>
        <time>2021-07-21T09:56:36Z</time>
      </trkpt>
      <trkpt lat="43.10894" lon="6.29022">
        <ele>-20.8</ele>
        <time>2021-07-21T09:56:42Z</time>
      </trkpt>
      <trkpt lat="43.10894" lon="6.2902">
        <ele>-19.8</ele>
        <time>2021-07-21T09:56:49Z</time>
      </trkpt>
      <trkpt lat="43.10893" lon="6.2902">
        <ele>-19.6</ele>
        <time>2021-07-21T09:56:52Z</time>
      </trkpt>
      <trkpt lat="43.10894" lon="6.2902">
        <ele>-21</ele>
        <time>2021-07-21T09:57:00Z</time>
      </trkpt>
      <trkpt lat="43.10898" lon="6.29018">
        <ele>-20.8</ele>
        <time>2021-07-21T09:57:06Z</time>
      </trkpt>
      <trkpt lat="43.10902" lon="6.29012">
        <ele>-21</ele>
        <time>2021-07-21T09:57:13Z</time>
      </trkpt>
      <trkpt lat="43.10905" lon="6.29007">
        <ele>-21.4</ele>
        <time>2021-07-21T09:57:18Z</time>
      </trkpt>
      <trkpt lat="43.10914" lon="6.28992">
        <ele>-22.2</ele>
        <time>2021-07-21T09:57:31Z</time>
      </trkpt>
      <trkpt lat="43.10922" lon="6.28979">
        <ele>-23</ele>
        <time>2021-07-21T09:57:44Z</time>
      </trkpt>
      <trkpt lat="43.10924" lon="6.28976">
        <ele>-23.2</ele>
        <time>2021-07-21T09:57:47Z</time>
      </trkpt>
      <trkpt lat="43.10931" lon="6.28963">
        <ele>-24.4</ele>
        <time>2021-07-21T09:57:57Z</time>
      </trkpt>
      <trkpt lat="43.10934" lon="6.2896">
        <ele>-24.4</ele>
        <time>2021-07-21T09:58:00Z</time>
      </trkpt>
      <trkpt lat="43.10935" lon="6.28957">
        <ele>-24.8</ele>
        <time>2021-07-21T09:58:05Z</time>
      </trkpt>
      <trkpt lat="43.10936" lon="6.28956">
        <ele>-25</ele>
        <time>2021-07-21T09:58:07Z</time>
      </trkpt>
      <trkpt lat="43.10939" lon="6.28954">
        <ele>-25.2</ele>
        <time>2021-07-21T09:58:11Z</time>
      </trkpt>
      <trkpt lat="43.10941" lon="6.28954">
        <ele>-25.4</ele>
        <time>2021-07-21T09:58:13Z</time>
      </trkpt>
      <trkpt lat="43.10942" lon="6.28953">
        <ele>-25.6</ele>
        <time>2021-07-21T09:58:14Z</time>
      </trkpt>
      <trkpt lat="43.10944" lon="6.28952">
        <ele>-25.8</ele>
        <time>2021-07-21T09:58:16Z</time>
      </trkpt>
      <trkpt lat="43.10948" lon="6.28952">
        <ele>-26</ele>
        <time>2021-07-21T09:58:19Z</time>
      </trkpt>
      <trkpt lat="43.10949" lon="6.28952">
        <ele>-26.4</ele>
        <time>2021-07-21T09:58:20Z</time>
      </trkpt>
      <trkpt lat="43.10954" lon="6.28952">
        <ele>-27</ele>
        <time>2021-07-21T09:58:24Z</time>
      </trkpt>
      <trkpt lat="43.10964" lon="6.28947">
        <ele>-27.4</ele>
        <time>2021-07-21T09:58:33Z</time>
      </trkpt>
      <trkpt lat="43.1097" lon="6.28933">
        <ele>-26</ele>
        <time>2021-07-21T09:58:44Z</time>
      </trkpt>
      <trkpt lat="43.10971" lon="6.28928">
        <ele>-25.4</ele>
        <time>2021-07-21T09:58:48Z</time>
      </trkpt>
      <trkpt lat="43.10976" lon="6.28918">
        <ele>-24.2</ele>
        <time>2021-07-21T09:58:58Z</time>
      </trkpt>
      <trkpt lat="43.10985" lon="6.28904">
        <ele>-23.4</ele>
        <time>2021-07-21T09:59:10Z</time>
      </trkpt>
      <trkpt lat="43.10988" lon="6.28903">
        <ele>-23.2</ele>
        <time>2021-07-21T09:59:14Z</time>
      </trkpt>
      <trkpt lat="43.10988" lon="6.28902">
        <ele>-24.6</ele>
        <time>2021-07-21T09:59:16Z</time>
      </trkpt>
      <trkpt lat="43.10989" lon="6.289">
        <ele>-25.6</ele>
        <time>2021-07-21T09:59:19Z</time>
      </trkpt>
      <trkpt lat="43.10989" lon="6.28899">
        <ele>-26.2</ele>
        <time>2021-07-21T09:59:20Z</time>
      </trkpt>
      <trkpt lat="43.10991" lon="6.28894">
        <ele>-27</ele>
        <time>2021-07-21T09:59:26Z</time>
      </trkpt>
      <trkpt lat="43.10992" lon="6.28894">
        <ele>-24</ele>
        <time>2021-07-21T09:59:27Z</time>
      </trkpt>
      <trkpt lat="43.10992" lon="6.28892">
        <ele>-23</ele>
        <time>2021-07-21T09:59:28Z</time>
      </trkpt>
      <trkpt lat="43.10992" lon="6.28889">
        <ele>-21.8</ele>
        <time>2021-07-21T09:59:30Z</time>
      </trkpt>
      <trkpt lat="43.10991" lon="6.28887">
        <ele>-21.4</ele>
        <time>2021-07-21T09:59:32Z</time>
      </trkpt>
      <trkpt lat="43.10991" lon="6.28885">
        <ele>-21.4</ele>
        <time>2021-07-21T09:59:34Z</time>
      </trkpt>
      <trkpt lat="43.1099" lon="6.28883">
        <ele>-21.4</ele>
        <time>2021-07-21T09:59:37Z</time>
      </trkpt>
      <trkpt lat="43.10989" lon="6.28879">
        <ele>-21.2</ele>
        <time>2021-07-21T09:59:40Z</time>
      </trkpt>
      <trkpt lat="43.10989" lon="6.28878">
        <ele>-21</ele>
        <time>2021-07-21T09:59:41Z</time>
      </trkpt>
      <trkpt lat="43.10989" lon="6.28877">
        <ele>-20.8</ele>
        <time>2021-07-21T09:59:42Z</time>
      </trkpt>
      <trkpt lat="43.10989" lon="6.28876">
        <ele>-20.8</ele>
        <time>2021-07-21T09:59:43Z</time>
      </trkpt>
      <trkpt lat="43.10991" lon="6.28871">
        <ele>-20.4</ele>
        <time>2021-07-21T09:59:49Z</time>
      </trkpt>
      <trkpt lat="43.10991" lon="6.28871">
        <ele>-20.2</ele>
        <time>2021-07-21T09:59:50Z</time>
      </trkpt>
      <trkpt lat="43.10996" lon="6.28864">
        <ele>-19.8</ele>
        <time>2021-07-21T10:00:00Z</time>
      </trkpt>
      <trkpt lat="43.11" lon="6.28855">
        <ele>-19.4</ele>
        <time>2021-07-21T10:00:13Z</time>
      </trkpt>
      <trkpt lat="43.11009" lon="6.28851">
        <ele>-20.2</ele>
        <time>2021-07-21T10:00:23Z</time>
      </trkpt>
      <trkpt lat="43.11009" lon="6.2885">
        <ele>-20.2</ele>
        <time>2021-07-21T10:00:24Z</time>
      </trkpt>
      <trkpt lat="43.11015" lon="6.28843">
        <ele>-20.2</ele>
        <time>2021-07-21T10:00:33Z</time>
      </trkpt>
      <trkpt lat="43.11023" lon="6.2883">
        <ele>-19.8</ele>
        <time>2021-07-21T10:00:45Z</time>
      </trkpt>
      <trkpt lat="43.11023" lon="6.28819">
        <ele>-19.6</ele>
        <time>2021-07-21T10:00:51Z</time>
      </trkpt>
      <trkpt lat="43.11025" lon="6.28814">
        <ele>-19.6</ele>
        <time>2021-07-21T10:00:54Z</time>
      </trkpt>
      <trkpt lat="43.1103" lon="6.28802">
        <ele>-18.6</ele>
        <time>2021-07-21T10:01:03Z</time>
      </trkpt>
      <trkpt lat="43.11031" lon="6.28798">
        <ele>-18.4</ele>
        <time>2021-07-21T10:01:07Z</time>
      </trkpt>
      <trkpt lat="43.11035" lon="6.28792">
        <ele>-17.6</ele>
        <time>2021-07-21T10:01:12Z</time>
      </trkpt>
      <trkpt lat="43.1104" lon="6.28785">
        <ele>-16.6</ele>
        <time>2021-07-21T10:01:19Z</time>
      </trkpt>
      <trkpt lat="43.11042" lon="6.28782">
        <ele>-16.4</ele>
        <time>2021-07-21T10:01:21Z</time>
      </trkpt>
      <trkpt lat="43.11043" lon="6.28776">
        <ele>-15.6</ele>
        <time>2021-07-21T10:01:27Z</time>
      </trkpt>
      <trkpt lat="43.11042" lon="6.28774">
        <ele>-15.6</ele>
        <time>2021-07-21T10:01:29Z</time>
      </trkpt>
      <trkpt lat="43.11042" lon="6.28772">
        <ele>-15.6</ele>
        <time>2021-07-21T10:01:30Z</time>
      </trkpt>
      <trkpt lat="43.11042" lon="6.28771">
        <ele>-15.8</ele>
        <time>2021-07-21T10:01:33Z</time>
      </trkpt>
      <trkpt lat="43.11041" lon="6.2877">
        <ele>-15.8</ele>
        <time>2021-07-21T10:01:34Z</time>
      </trkpt>
      <trkpt lat="43.1104" lon="6.28766">
        <ele>-15.8</ele>
        <time>2021-07-21T10:01:40Z</time>
      </trkpt>
      <trkpt lat="43.11041" lon="6.28757">
        <ele>-17.6</ele>
        <time>2021-07-21T10:01:51Z</time>
      </trkpt>
      <trkpt lat="43.11041" lon="6.28752">
        <ele>-18.8</ele>
        <time>2021-07-21T10:01:56Z</time>
      </trkpt>
      <trkpt lat="43.1104" lon="6.2875">
        <ele>-19.8</ele>
        <time>2021-07-21T10:02:00Z</time>
      </trkpt>
      <trkpt lat="43.11041" lon="6.28746">
        <ele>-20.2</ele>
        <time>2021-07-21T10:02:04Z</time>
      </trkpt>
      <trkpt lat="43.11048" lon="6.28741">
        <ele>-20.4</ele>
        <time>2021-07-21T10:02:13Z</time>
      </trkpt>
      <trkpt lat="43.1105" lon="6.28739">
        <ele>-20.2</ele>
        <time>2021-07-21T10:02:15Z</time>
      </trkpt>
      <trkpt lat="43.11052" lon="6.28738">
        <ele>-19.6</ele>
        <time>2021-07-21T10:02:20Z</time>
      </trkpt>
      <trkpt lat="43.11053" lon="6.28734">
        <ele>-19.4</ele>
        <time>2021-07-21T10:02:25Z</time>
      </trkpt>
      <trkpt lat="43.11054" lon="6.28732">
        <ele>-21</ele>
        <time>2021-07-21T10:02:33Z</time>
      </trkpt>
      <trkpt lat="43.11055" lon="6.2873">
        <ele>-21</ele>
        <time>2021-07-21T10:02:37Z</time>
      </trkpt>
      <trkpt lat="43.11061" lon="6.28718">
        <ele>-21.8</ele>
        <time>2021-07-21T10:02:47Z</time>
      </trkpt>
      <trkpt lat="43.11063" lon="6.28714">
        <ele>-22</ele>
        <time>2021-07-21T10:02:50Z</time>
      </trkpt>
      <trkpt lat="43.11066" lon="6.2871">
        <ele>-23.2</ele>
        <time>2021-07-21T10:02:54Z</time>
      </trkpt>
      <trkpt lat="43.11068" lon="6.28705">
        <ele>-24</ele>
        <time>2021-07-21T10:02:59Z</time>
      </trkpt>
      <trkpt lat="43.11068" lon="6.28704">
        <ele>-24.6</ele>
        <time>2021-07-21T10:03:00Z</time>
      </trkpt>
      <trkpt lat="43.11071" lon="6.28697">
        <ele>-25.6</ele>
        <time>2021-07-21T10:03:07Z</time>
      </trkpt>
      <trkpt lat="43.11072" lon="6.28697">
        <ele>-26</ele>
        <time>2021-07-21T10:03:08Z</time>
      </trkpt>
      <trkpt lat="43.11075" lon="6.28696">
        <ele>-26.4</ele>
        <time>2021-07-21T10:03:11Z</time>
      </trkpt>
      <trkpt lat="43.11075" lon="6.28695">
        <ele>-26.6</ele>
        <time>2021-07-21T10:03:12Z</time>
      </trkpt>
      <trkpt lat="43.11075" lon="6.28693">
        <ele>-27</ele>
        <time>2021-07-21T10:03:14Z</time>
      </trkpt>
      <trkpt lat="43.11077" lon="6.2869">
        <ele>-27.2</ele>
        <time>2021-07-21T10:03:17Z</time>
      </trkpt>
      <trkpt lat="43.11079" lon="6.28688">
        <ele>-27.6</ele>
        <time>2021-07-21T10:03:21Z</time>
      </trkpt>
      <trkpt lat="43.1108" lon="6.28688">
        <ele>-27.6</ele>
        <time>2021-07-21T10:03:22Z</time>
      </trkpt>
      <trkpt lat="43.11082" lon="6.28685">
        <ele>-27.6</ele>
        <time>2021-07-21T10:03:24Z</time>
      </trkpt>
      <trkpt lat="43.11085" lon="6.28684">
        <ele>-29</ele>
        <time>2021-07-21T10:03:28Z</time>
      </trkpt>
      <trkpt lat="43.11085" lon="6.28684">
        <ele>-29.6</ele>
        <time>2021-07-21T10:03:29Z</time>
      </trkpt>
      <trkpt lat="43.11085" lon="6.28684">
        <ele>-30.2</ele>
        <time>2021-07-21T10:03:31Z</time>
      </trkpt>
      <trkpt lat="43.11085" lon="6.28683">
        <ele>-30</ele>
        <time>2021-07-21T10:03:32Z</time>
      </trkpt>
      <trkpt lat="43.11085" lon="6.28682">
        <ele>-29.6</ele>
        <time>2021-07-21T10:03:41Z</time>
      </trkpt>
      <trkpt lat="43.11096" lon="6.28685">
        <ele>-29.8</ele>
        <time>2021-07-21T10:03:53Z</time>
      </trkpt>
      <trkpt lat="43.11103" lon="6.2869">
        <ele>-29</ele>
        <time>2021-07-21T10:04:00Z</time>
      </trkpt>
      <trkpt lat="43.11104" lon="6.28691">
        <ele>-28.4</ele>
        <time>2021-07-21T10:04:03Z</time>
      </trkpt>
      <trkpt lat="43.11107" lon="6.28693">
        <ele>-27.8</ele>
        <time>2021-07-21T10:04:07Z</time>
      </trkpt>
      <trkpt lat="43.11114" lon="6.28696">
        <ele>-27</ele>
        <time>2021-07-21T10:04:14Z</time>
      </trkpt>
      <trkpt lat="43.11116" lon="6.28698">
        <ele>-27</ele>
        <time>2021-07-21T10:04:16Z</time>
      </trkpt>
      <trkpt lat="43.11117" lon="6.28699">
        <ele>-27</ele>
        <time>2021-07-21T10:04:17Z</time>
      </trkpt>
      <trkpt lat="43.11119" lon="6.287">
        <ele>-26.8</ele>
        <time>2021-07-21T10:04:19Z</time>
      </trkpt>
      <trkpt lat="43.1113" lon="6.28699">
        <ele>-27.2</ele>
        <time>2021-07-21T10:04:26Z</time>
      </trkpt>
      <trkpt lat="43.11137" lon="6.28704">
        <ele>-27.4</ele>
        <time>2021-07-21T10:04:35Z</time>
      </trkpt>
      <trkpt lat="43.11145" lon="6.28715">
        <ele>-27.6</ele>
        <time>2021-07-21T10:04:47Z</time>
      </trkpt>
      <trkpt lat="43.11146" lon="6.28716">
        <ele>-27.8</ele>
        <time>2021-07-21T10:04:48Z</time>
      </trkpt>
      <trkpt lat="43.11151" lon="6.2872">
        <ele>-28.8</ele>
        <time>2021-07-21T10:04:53Z</time>
      </trkpt>
      <trkpt lat="43.11152" lon="6.28725">
        <ele>-29.4</ele>
        <time>2021-07-21T10:04:57Z</time>
      </trkpt>
      <trkpt lat="43.11152" lon="6.28735">
        <ele>-29.8</ele>
        <time>2021-07-21T10:05:04Z</time>
      </trkpt>
      <trkpt lat="43.11154" lon="6.28737">
        <ele>-30.4</ele>
        <time>2021-07-21T10:05:07Z</time>
      </trkpt>
      <trkpt lat="43.11156" lon="6.28739">
        <ele>-31</ele>
        <time>2021-07-21T10:05:10Z</time>
      </trkpt>
      <trkpt lat="43.1116" lon="6.28745">
        <ele>-32.4</ele>
        <time>2021-07-21T10:05:15Z</time>
      </trkpt>
      <trkpt lat="43.11163" lon="6.28749">
        <ele>-33.4</ele>
        <time>2021-07-21T10:05:19Z</time>
      </trkpt>
      <trkpt lat="43.11167" lon="6.28752">
        <ele>-34.6</ele>
        <time>2021-07-21T10:05:23Z</time>
      </trkpt>
      <trkpt lat="43.11168" lon="6.28757">
        <ele>-35.6</ele>
        <time>2021-07-21T10:05:26Z</time>
      </trkpt>
      <trkpt lat="43.11168" lon="6.2876">
        <ele>-36.2</ele>
        <time>2021-07-21T10:05:29Z</time>
      </trkpt>
      <trkpt lat="43.11167" lon="6.28764">
        <ele>-36.8</ele>
        <time>2021-07-21T10:05:33Z</time>
      </trkpt>
      <trkpt lat="43.11166" lon="6.28767">
        <ele>-37</ele>
        <time>2021-07-21T10:05:36Z</time>
      </trkpt>
      <trkpt lat="43.11165" lon="6.28768">
        <ele>-37</ele>
        <time>2021-07-21T10:05:38Z</time>
      </trkpt>
      <trkpt lat="43.11165" lon="6.28771">
        <ele>-37.6</ele>
        <time>2021-07-21T10:05:41Z</time>
      </trkpt>
      <trkpt lat="43.11164" lon="6.28772">
        <ele>-37.8</ele>
        <time>2021-07-21T10:05:43Z</time>
      </trkpt>
      <trkpt lat="43.11163" lon="6.28775">
        <ele>-38</ele>
        <time>2021-07-21T10:05:47Z</time>
      </trkpt>
      <trkpt lat="43.11163" lon="6.28776">
        <ele>-38</ele>
        <time>2021-07-21T10:05:48Z</time>
      </trkpt>
      <trkpt lat="43.1116" lon="6.2878">
        <ele>-38.8</ele>
        <time>2021-07-21T10:05:53Z</time>
      </trkpt>
      <trkpt lat="43.1116" lon="6.28781">
        <ele>-39</ele>
        <time>2021-07-21T10:05:54Z</time>
      </trkpt>
      <trkpt lat="43.11159" lon="6.28784">
        <ele>-39.4</ele>
        <time>2021-07-21T10:05:56Z</time>
      </trkpt>
      <trkpt lat="43.11159" lon="6.28787">
        <ele>-39.8</ele>
        <time>2021-07-21T10:05:59Z</time>
      </trkpt>
      <trkpt lat="43.11159" lon="6.28789">
        <ele>-40</ele>
        <time>2021-07-21T10:06:01Z</time>
      </trkpt>
      <trkpt lat="43.1116" lon="6.2879">
        <ele>-40.2</ele>
        <time>2021-07-21T10:06:03Z</time>
      </trkpt>
      <trkpt lat="43.11161" lon="6.28791">
        <ele>-40</ele>
        <time>2021-07-21T10:06:05Z</time>
      </trkpt>
      <trkpt lat="43.11161" lon="6.28795">
        <ele>-41.2</ele>
        <time>2021-07-21T10:06:09Z</time>
      </trkpt>
      <trkpt lat="43.11161" lon="6.28796">
        <ele>-41.4</ele>
        <time>2021-07-21T10:06:10Z</time>
      </trkpt>
      <trkpt lat="43.11162" lon="6.28802">
        <ele>-42</ele>
        <time>2021-07-21T10:06:21Z</time>
      </trkpt>
      <trkpt lat="43.11163" lon="6.28809">
        <ele>-42.2</ele>
        <time>2021-07-21T10:06:29Z</time>
      </trkpt>
      <trkpt lat="43.11164" lon="6.28811">
        <ele>-42.4</ele>
        <time>2021-07-21T10:06:31Z</time>
      </trkpt>
      <trkpt lat="43.11167" lon="6.28816">
        <ele>-43.2</ele>
        <time>2021-07-21T10:06:36Z</time>
      </trkpt>
      <trkpt lat="43.11168" lon="6.28819">
        <ele>-43.2</ele>
        <time>2021-07-21T10:06:43Z</time>
      </trkpt>
      <trkpt lat="43.11168" lon="6.28819">
        <ele>-44.4</ele>
        <time>2021-07-21T10:06:54Z</time>
      </trkpt>
      <trkpt lat="43.11171" lon="6.28824">
        <ele>-44</ele>
        <time>2021-07-21T10:07:08Z</time>
      </trkpt>
      <trkpt lat="43.11179" lon="6.28833">
        <ele>-44.4</ele>
        <time>2021-07-21T10:07:20Z</time>
      </trkpt>
      <trkpt lat="43.11191" lon="6.28844">
        <ele>-44.4</ele>
        <time>2021-07-21T10:07:37Z</time>
      </trkpt>
      <trkpt lat="43.11208" lon="6.28855">
        <ele>-44.2</ele>
        <time>2021-07-21T10:07:52Z</time>
      </trkpt>
      <trkpt lat="43.11209" lon="6.28856">
        <ele>-44.2</ele>
        <time>2021-07-21T10:07:53Z</time>
      </trkpt>
      <trkpt lat="43.11225" lon="6.28867">
        <ele>-44.6</ele>
        <time>2021-07-21T10:08:10Z</time>
      </trkpt>
      <trkpt lat="43.11228" lon="6.28871">
        <ele>-44.6</ele>
        <time>2021-07-21T10:08:18Z</time>
      </trkpt>
      <trkpt lat="43.11229" lon="6.2887">
        <ele>-44.4</ele>
        <time>2021-07-21T10:08:23Z</time>
      </trkpt>
      <trkpt lat="43.11229" lon="6.28872">
        <ele>-44.8</ele>
        <time>2021-07-21T10:08:39Z</time>
      </trkpt>
      <trkpt lat="43.11229" lon="6.28874">
        <ele>-43.2</ele>
        <time>2021-07-21T10:08:50Z</time>
      </trkpt>
      <trkpt lat="43.11229" lon="6.28876">
        <ele>-44</ele>
        <time>2021-07-21T10:08:56Z</time>
      </trkpt>
      <trkpt lat="43.11229" lon="6.28876">
        <ele>-44.2</ele>
        <time>2021-07-21T10:08:58Z</time>
      </trkpt>
      <trkpt lat="43.11231" lon="6.28876">
        <ele>-44</ele>
        <time>2021-07-21T10:09:09Z</time>
      </trkpt>
      <trkpt lat="43.11231" lon="6.28876">
        <ele>-43</ele>
        <time>2021-07-21T10:09:12Z</time>
      </trkpt>
      <trkpt lat="43.11232" lon="6.28876">
        <ele>-44</ele>
        <time>2021-07-21T10:09:21Z</time>
      </trkpt>
      <trkpt lat="43.11232" lon="6.28873">
        <ele>-44.6</ele>
        <time>2021-07-21T10:09:25Z</time>
      </trkpt>
      <trkpt lat="43.11234" lon="6.28871">
        <ele>-43.8</ele>
        <time>2021-07-21T10:09:41Z</time>
      </trkpt>
      <trkpt lat="43.11238" lon="6.28872">
        <ele>-43.8</ele>
        <time>2021-07-21T10:09:54Z</time>
      </trkpt>
      <trkpt lat="43.11242" lon="6.28873">
        <ele>-43.8</ele>
        <time>2021-07-21T10:09:58Z</time>
      </trkpt>
      <trkpt lat="43.11246" lon="6.28873">
        <ele>-43.8</ele>
        <time>2021-07-21T10:10:03Z</time>
      </trkpt>
      <trkpt lat="43.11246" lon="6.28873">
        <ele>-43.8</ele>
        <time>2021-07-21T10:10:04Z</time>
      </trkpt>
      <trkpt lat="43.11247" lon="6.28873">
        <ele>-43.8</ele>
        <time>2021-07-21T10:10:05Z</time>
      </trkpt>
      <trkpt lat="43.11251" lon="6.28873">
        <ele>-43.6</ele>
        <time>2021-07-21T10:10:08Z</time>
      </trkpt>
      <trkpt lat="43.11255" lon="6.28873">
        <ele>-42.8</ele>
        <time>2021-07-21T10:10:13Z</time>
      </trkpt>
      <trkpt lat="43.11255" lon="6.28873">
        <ele>-42.6</ele>
        <time>2021-07-21T10:10:14Z</time>
      </trkpt>
      <trkpt lat="43.11255" lon="6.28874">
        <ele>-42.6</ele>
        <time>2021-07-21T10:10:15Z</time>
      </trkpt>
      <trkpt lat="43.11255" lon="6.28874">
        <ele>-42.6</ele>
        <time>2021-07-21T10:10:16Z</time>
      </trkpt>
      <trkpt lat="43.11258" lon="6.28877">
        <ele>-43.2</ele>
        <time>2021-07-21T10:10:24Z</time>
      </trkpt>
      <trkpt lat="43.11258" lon="6.28873">
        <ele>-42.8</ele>
        <time>2021-07-21T10:10:39Z</time>
      </trkpt>
      <trkpt lat="43.11262" lon="6.28873">
        <ele>-43.6</ele>
        <time>2021-07-21T10:10:49Z</time>
      </trkpt>
      <trkpt lat="43.11273" lon="6.28876">
        <ele>-42.6</ele>
        <time>2021-07-21T10:10:58Z</time>
      </trkpt>
      <trkpt lat="43.11287" lon="6.28874">
        <ele>-43</ele>
        <time>2021-07-21T10:11:09Z</time>
      </trkpt>
      <trkpt lat="43.11301" lon="6.28867">
        <ele>-43</ele>
        <time>2021-07-21T10:11:22Z</time>
      </trkpt>
      <trkpt lat="43.11312" lon="6.28859">
        <ele>-43.6</ele>
        <time>2021-07-21T10:11:36Z</time>
      </trkpt>
      <trkpt lat="43.11312" lon="6.28858">
        <ele>-43.6</ele>
        <time>2021-07-21T10:11:37Z</time>
      </trkpt>
      <trkpt lat="43.11312" lon="6.28858">
        <ele>-43.8</ele>
        <time>2021-07-21T10:11:39Z</time>
      </trkpt>
      <trkpt lat="43.11316" lon="6.28861">
        <ele>-43.4</ele>
        <time>2021-07-21T10:11:46Z</time>
      </trkpt>
      <trkpt lat="43.11318" lon="6.28869">
        <ele>-43.4</ele>
        <time>2021-07-21T10:11:55Z</time>
      </trkpt>
      <trkpt lat="43.11321" lon="6.2887">
        <ele>-43.4</ele>
        <time>2021-07-21T10:11:58Z</time>
      </trkpt>
      <trkpt lat="43.11324" lon="6.28874">
        <ele>-43.4</ele>
        <time>2021-07-21T10:12:04Z</time>
      </trkpt>
      <trkpt lat="43.11329" lon="6.28876">
        <ele>-43</ele>
        <time>2021-07-21T10:12:08Z</time>
      </trkpt>
      <trkpt lat="43.11335" lon="6.2888">
        <ele>-42.8</ele>
        <time>2021-07-21T10:12:13Z</time>
      </trkpt>
      <trkpt lat="43.11354" lon="6.28884">
        <ele>-42.8</ele>
        <time>2021-07-21T10:12:27Z</time>
      </trkpt>
      <trkpt lat="43.1137" lon="6.2888">
        <ele>-43</ele>
        <time>2021-07-21T10:12:40Z</time>
      </trkpt>
      <trkpt lat="43.11387" lon="6.28873">
        <ele>-43.2</ele>
        <time>2021-07-21T10:12:54Z</time>
      </trkpt>
      <trkpt lat="43.11404" lon="6.28867">
        <ele>-42.8</ele>
        <time>2021-07-21T10:13:08Z</time>
      </trkpt>
      <trkpt lat="43.11409" lon="6.28863">
        <ele>-43</ele>
        <time>2021-07-21T10:13:13Z</time>
      </trkpt>
      <trkpt lat="43.11414" lon="6.28861">
        <ele>-43.2</ele>
        <time>2021-07-21T10:13:17Z</time>
      </trkpt>
      <trkpt lat="43.11424" lon="6.28854">
        <ele>-42.8</ele>
        <time>2021-07-21T10:13:25Z</time>
      </trkpt>
      <trkpt lat="43.11433" lon="6.28849">
        <ele>-43</ele>
        <time>2021-07-21T10:13:33Z</time>
      </trkpt>
      <trkpt lat="43.11443" lon="6.28841">
        <ele>-43</ele>
        <time>2021-07-21T10:13:43Z</time>
      </trkpt>
      <trkpt lat="43.11449" lon="6.28832">
        <ele>-42.6</ele>
        <time>2021-07-21T10:13:51Z</time>
      </trkpt>
      <trkpt lat="43.11454" lon="6.28827">
        <ele>-43.2</ele>
        <time>2021-07-21T10:14:00Z</time>
      </trkpt>
      <trkpt lat="43.11463" lon="6.28813">
        <ele>-43.2</ele>
        <time>2021-07-21T10:14:11Z</time>
      </trkpt>
      <trkpt lat="43.11477" lon="6.28796">
        <ele>-43.4</ele>
        <time>2021-07-21T10:14:25Z</time>
      </trkpt>
      <trkpt lat="43.11489" lon="6.28784">
        <ele>-43.4</ele>
        <time>2021-07-21T10:14:37Z</time>
      </trkpt>
      <trkpt lat="43.115" lon="6.28768">
        <ele>-43.2</ele>
        <time>2021-07-21T10:14:50Z</time>
      </trkpt>
      <trkpt lat="43.1151" lon="6.28752">
        <ele>-43.6</ele>
        <time>2021-07-21T10:15:02Z</time>
      </trkpt>
      <trkpt lat="43.11522" lon="6.28738">
        <ele>-43.6</ele>
        <time>2021-07-21T10:15:14Z</time>
      </trkpt>
      <trkpt lat="43.11532" lon="6.28726">
        <ele>-43.4</ele>
        <time>2021-07-21T10:15:25Z</time>
      </trkpt>
      <trkpt lat="43.11534" lon="6.28723">
        <ele>-43.4</ele>
        <time>2021-07-21T10:15:27Z</time>
      </trkpt>
      <trkpt lat="43.11542" lon="6.28711">
        <ele>-44</ele>
        <time>2021-07-21T10:15:36Z</time>
      </trkpt>
      <trkpt lat="43.11545" lon="6.28705">
        <ele>-44</ele>
        <time>2021-07-21T10:15:40Z</time>
      </trkpt>
      <trkpt lat="43.11552" lon="6.28693">
        <ele>-44</ele>
        <time>2021-07-21T10:15:49Z</time>
      </trkpt>
      <trkpt lat="43.1156" lon="6.28681">
        <ele>-43.8</ele>
        <time>2021-07-21T10:15:58Z</time>
      </trkpt>
      <trkpt lat="43.11566" lon="6.28665">
        <ele>-44.2</ele>
        <time>2021-07-21T10:16:08Z</time>
      </trkpt>
      <trkpt lat="43.11572" lon="6.28649">
        <ele>-44.2</ele>
        <time>2021-07-21T10:16:18Z</time>
      </trkpt>
      <trkpt lat="43.11575" lon="6.28632">
        <ele>-44.2</ele>
        <time>2021-07-21T10:16:27Z</time>
      </trkpt>
      <trkpt lat="43.11578" lon="6.28621">
        <ele>-44</ele>
        <time>2021-07-21T10:16:34Z</time>
      </trkpt>
      <trkpt lat="43.1158" lon="6.28607">
        <ele>-44</ele>
        <time>2021-07-21T10:16:42Z</time>
      </trkpt>
      <trkpt lat="43.11582" lon="6.28591">
        <ele>-44</ele>
        <time>2021-07-21T10:16:52Z</time>
      </trkpt>
      <trkpt lat="43.11584" lon="6.28577">
        <ele>-44.2</ele>
        <time>2021-07-21T10:17:00Z</time>
      </trkpt>
      <trkpt lat="43.11583" lon="6.2856">
        <ele>-43.8</ele>
        <time>2021-07-21T10:17:09Z</time>
      </trkpt>
      <trkpt lat="43.11584" lon="6.28544">
        <ele>-44.2</ele>
        <time>2021-07-21T10:17:18Z</time>
      </trkpt>
      <trkpt lat="43.11584" lon="6.28533">
        <ele>-44.4</ele>
        <time>2021-07-21T10:17:26Z</time>
      </trkpt>
      <trkpt lat="43.11583" lon="6.28523">
        <ele>-44.4</ele>
        <time>2021-07-21T10:17:33Z</time>
      </trkpt>
      <trkpt lat="43.1158" lon="6.28512">
        <ele>-44.4</ele>
        <time>2021-07-21T10:17:42Z</time>
      </trkpt>
      <trkpt lat="43.11577" lon="6.28496">
        <ele>-44.4</ele>
        <time>2021-07-21T10:17:52Z</time>
      </trkpt>
      <trkpt lat="43.11576" lon="6.28486">
        <ele>-44.4</ele>
        <time>2021-07-21T10:17:59Z</time>
      </trkpt>
      <trkpt lat="43.11576" lon="6.28485">
        <ele>-44.4</ele>
        <time>2021-07-21T10:18:00Z</time>
      </trkpt>
      <trkpt lat="43.11578" lon="6.28478">
        <ele>-44</ele>
        <time>2021-07-21T10:18:06Z</time>
      </trkpt>
      <trkpt lat="43.11578" lon="6.28477">
        <ele>-44</ele>
        <time>2021-07-21T10:18:07Z</time>
      </trkpt>
      <trkpt lat="43.11578" lon="6.28475">
        <ele>-43.2</ele>
        <time>2021-07-21T10:18:09Z</time>
      </trkpt>
      <trkpt lat="43.11578" lon="6.28474">
        <ele>-42.8</ele>
        <time>2021-07-21T10:18:11Z</time>
      </trkpt>
      <trkpt lat="43.11579" lon="6.28472">
        <ele>-41.8</ele>
        <time>2021-07-21T10:18:14Z</time>
      </trkpt>
      <trkpt lat="43.11579" lon="6.28473">
        <ele>-41.8</ele>
        <time>2021-07-21T10:18:15Z</time>
      </trkpt>
      <trkpt lat="43.11578" lon="6.28469">
        <ele>-40.8</ele>
        <time>2021-07-21T10:18:22Z</time>
      </trkpt>
      <trkpt lat="43.11577" lon="6.28465">
        <ele>-40.4</ele>
        <time>2021-07-21T10:18:25Z</time>
      </trkpt>
      <trkpt lat="43.11576" lon="6.28463">
        <ele>-39.6</ele>
        <time>2021-07-21T10:18:27Z</time>
      </trkpt>
      <trkpt lat="43.11574" lon="6.28455">
        <ele>-38.6</ele>
        <time>2021-07-21T10:18:33Z</time>
      </trkpt>
      <trkpt lat="43.11571" lon="6.2845">
        <ele>-37.8</ele>
        <time>2021-07-21T10:18:38Z</time>
      </trkpt>
      <trkpt lat="43.11572" lon="6.28445">
        <ele>-37.6</ele>
        <time>2021-07-21T10:18:42Z</time>
      </trkpt>
      <trkpt lat="43.1157" lon="6.28436">
        <ele>-36.6</ele>
        <time>2021-07-21T10:18:49Z</time>
      </trkpt>
      <trkpt lat="43.11569" lon="6.28433">
        <ele>-36.2</ele>
        <time>2021-07-21T10:18:51Z</time>
      </trkpt>
      <trkpt lat="43.11565" lon="6.28418">
        <ele>-35.6</ele>
        <time>2021-07-21T10:19:01Z</time>
      </trkpt>
      <trkpt lat="43.11559" lon="6.28398">
        <ele>-36</ele>
        <time>2021-07-21T10:19:16Z</time>
      </trkpt>
      <trkpt lat="43.11558" lon="6.28385">
        <ele>-37</ele>
        <time>2021-07-21T10:19:27Z</time>
      </trkpt>
      <trkpt lat="43.11557" lon="6.28379">
        <ele>-37.4</ele>
        <time>2021-07-21T10:19:31Z</time>
      </trkpt>
      <trkpt lat="43.11558" lon="6.28372">
        <ele>-38</ele>
        <time>2021-07-21T10:19:39Z</time>
      </trkpt>
      <trkpt lat="43.11563" lon="6.28357">
        <ele>-38.2</ele>
        <time>2021-07-21T10:19:50Z</time>
      </trkpt>
      <trkpt lat="43.11569" lon="6.28334">
        <ele>-38.2</ele>
        <time>2021-07-21T10:20:05Z</time>
      </trkpt>
      <trkpt lat="43.11574" lon="6.28313">
        <ele>-37.8</ele>
        <time>2021-07-21T10:20:19Z</time>
      </trkpt>
      <trkpt lat="43.11576" lon="6.28306">
        <ele>-37.6</ele>
        <time>2021-07-21T10:20:25Z</time>
      </trkpt>
      <trkpt lat="43.11577" lon="6.28303">
        <ele>-37.6</ele>
        <time>2021-07-21T10:20:28Z</time>
      </trkpt>
      <trkpt lat="43.11577" lon="6.28303">
        <ele>-37.6</ele>
        <time>2021-07-21T10:20:33Z</time>
      </trkpt>
      <trkpt lat="43.11579" lon="6.28306">
        <ele>-37.6</ele>
        <time>2021-07-21T10:20:38Z</time>
      </trkpt>
      <trkpt lat="43.1159" lon="6.28307">
        <ele>-37.2</ele>
        <time>2021-07-21T10:20:47Z</time>
      </trkpt>
      <trkpt lat="43.11601" lon="6.28304">
        <ele>-36.4</ele>
        <time>2021-07-21T10:20:57Z</time>
      </trkpt>
      <trkpt lat="43.11603" lon="6.28304">
        <ele>-36.4</ele>
        <time>2021-07-21T10:20:58Z</time>
      </trkpt>
      <trkpt lat="43.11612" lon="6.28302">
        <ele>-35.8</ele>
        <time>2021-07-21T10:21:05Z</time>
      </trkpt>
      <trkpt lat="43.11618" lon="6.283">
        <ele>-35.4</ele>
        <time>2021-07-21T10:21:11Z</time>
      </trkpt>
      <trkpt lat="43.1162" lon="6.28299">
        <ele>-35</ele>
        <time>2021-07-21T10:21:13Z</time>
      </trkpt>
      <trkpt lat="43.1163" lon="6.28294">
        <ele>-35.2</ele>
        <time>2021-07-21T10:21:22Z</time>
      </trkpt>
      <trkpt lat="43.11637" lon="6.28291">
        <ele>-35.2</ele>
        <time>2021-07-21T10:21:29Z</time>
      </trkpt>
      <trkpt lat="43.11638" lon="6.28291">
        <ele>-35.2</ele>
        <time>2021-07-21T10:21:31Z</time>
      </trkpt>
      <trkpt lat="43.11638" lon="6.28291">
        <ele>-35.2</ele>
        <time>2021-07-21T10:21:33Z</time>
      </trkpt>
      <trkpt lat="43.11637" lon="6.2829">
        <ele>-35.2</ele>
        <time>2021-07-21T10:21:35Z</time>
      </trkpt>
      <trkpt lat="43.11637" lon="6.2829">
        <ele>-35.2</ele>
        <time>2021-07-21T10:21:36Z</time>
      </trkpt>
      <trkpt lat="43.11635" lon="6.28288">
        <ele>-34.6</ele>
        <time>2021-07-21T10:21:45Z</time>
      </trkpt>
      <trkpt lat="43.11638" lon="6.28288">
        <ele>-35.4</ele>
        <time>2021-07-21T10:21:58Z</time>
      </trkpt>
      <trkpt lat="43.11652" lon="6.28284">
        <ele>-35.6</ele>
        <time>2021-07-21T10:22:11Z</time>
      </trkpt>
      <trkpt lat="43.11658" lon="6.28284">
        <ele>-36.4</ele>
        <time>2021-07-21T10:22:16Z</time>
      </trkpt>
      <trkpt lat="43.11663" lon="6.28287">
        <ele>-36.8</ele>
        <time>2021-07-21T10:22:20Z</time>
      </trkpt>
      <trkpt lat="43.11664" lon="6.28288">
        <ele>-36.8</ele>
        <time>2021-07-21T10:22:21Z</time>
      </trkpt>
      <trkpt lat="43.11669" lon="6.28294">
        <ele>-37.4</ele>
        <time>2021-07-21T10:22:27Z</time>
      </trkpt>
      <trkpt lat="43.11671" lon="6.283">
        <ele>-38.4</ele>
        <time>2021-07-21T10:22:33Z</time>
      </trkpt>
      <trkpt lat="43.11672" lon="6.283">
        <ele>-38.4</ele>
        <time>2021-07-21T10:22:34Z</time>
      </trkpt>
      <trkpt lat="43.11673" lon="6.28302">
        <ele>-38.4</ele>
        <time>2021-07-21T10:22:37Z</time>
      </trkpt>
      <trkpt lat="43.11674" lon="6.28304">
        <ele>-38.4</ele>
        <time>2021-07-21T10:22:39Z</time>
      </trkpt>
      <trkpt lat="43.11675" lon="6.28305">
        <ele>-38.4</ele>
        <time>2021-07-21T10:22:40Z</time>
      </trkpt>
      <trkpt lat="43.11684" lon="6.28306">
        <ele>-39.4</ele>
        <time>2021-07-21T10:22:47Z</time>
      </trkpt>
      <trkpt lat="43.11684" lon="6.28306">
        <ele>-39.6</ele>
        <time>2021-07-21T10:22:48Z</time>
      </trkpt>
      <trkpt lat="43.11686" lon="6.28308">
        <ele>-39.8</ele>
        <time>2021-07-21T10:22:50Z</time>
      </trkpt>
      <trkpt lat="43.11693" lon="6.28309">
        <ele>-40.4</ele>
        <time>2021-07-21T10:22:56Z</time>
      </trkpt>
      <trkpt lat="43.11697" lon="6.28308">
        <ele>-40.6</ele>
        <time>2021-07-21T10:23:01Z</time>
      </trkpt>
      <trkpt lat="43.11699" lon="6.28306">
        <ele>-41</ele>
        <time>2021-07-21T10:23:03Z</time>
      </trkpt>
      <trkpt lat="43.11699" lon="6.28306">
        <ele>-41.2</ele>
        <time>2021-07-21T10:23:04Z</time>
      </trkpt>
      <trkpt lat="43.11701" lon="6.28299">
        <ele>-41.6</ele>
        <time>2021-07-21T10:23:11Z</time>
      </trkpt>
      <trkpt lat="43.11702" lon="6.28298">
        <ele>-41.8</ele>
        <time>2021-07-21T10:23:12Z</time>
      </trkpt>
      <trkpt lat="43.11703" lon="6.28296">
        <ele>-41.8</ele>
        <time>2021-07-21T10:23:14Z</time>
      </trkpt>
      <trkpt lat="43.11704" lon="6.28293">
        <ele>-42</ele>
        <time>2021-07-21T10:23:18Z</time>
      </trkpt>
      <trkpt lat="43.11704" lon="6.28291">
        <ele>-42</ele>
        <time>2021-07-21T10:23:20Z</time>
      </trkpt>
      <trkpt lat="43.11705" lon="6.28291">
        <ele>-41.8</ele>
        <time>2021-07-21T10:23:21Z</time>
      </trkpt>
      <trkpt lat="43.11711" lon="6.28289">
        <ele>-40.8</ele>
        <time>2021-07-21T10:23:28Z</time>
      </trkpt>
      <trkpt lat="43.11712" lon="6.28288">
        <ele>-40.6</ele>
        <time>2021-07-21T10:23:30Z</time>
      </trkpt>
      <trkpt lat="43.11719" lon="6.28282">
        <ele>-39.8</ele>
        <time>2021-07-21T10:23:38Z</time>
      </trkpt>
      <trkpt lat="43.11721" lon="6.28278">
        <ele>-39.6</ele>
        <time>2021-07-21T10:23:41Z</time>
      </trkpt>
      <trkpt lat="43.11722" lon="6.28275">
        <ele>-39.4</ele>
        <time>2021-07-21T10:23:44Z</time>
      </trkpt>
      <trkpt lat="43.11724" lon="6.2827">
        <ele>-39</ele>
        <time>2021-07-21T10:23:47Z</time>
      </trkpt>
      <trkpt lat="43.11724" lon="6.28268">
        <ele>-39</ele>
        <time>2021-07-21T10:23:48Z</time>
      </trkpt>
      <trkpt lat="43.11725" lon="6.28265">
        <ele>-38.8</ele>
        <time>2021-07-21T10:23:50Z</time>
      </trkpt>
      <trkpt lat="43.11723" lon="6.2826">
        <ele>-38.6</ele>
        <time>2021-07-21T10:23:53Z</time>
      </trkpt>
      <trkpt lat="43.11723" lon="6.2826">
        <ele>-38.4</ele>
        <time>2021-07-21T10:23:55Z</time>
      </trkpt>
      <trkpt lat="43.11723" lon="6.2825">
        <ele>-38.4</ele>
        <time>2021-07-21T10:23:59Z</time>
      </trkpt>
      <trkpt lat="43.11724" lon="6.28246">
        <ele>-38.6</ele>
        <time>2021-07-21T10:24:02Z</time>
      </trkpt>
      <trkpt lat="43.11727" lon="6.28237">
        <ele>-38.6</ele>
        <time>2021-07-21T10:24:08Z</time>
      </trkpt>
      <trkpt lat="43.11727" lon="6.28223">
        <ele>-38.4</ele>
        <time>2021-07-21T10:24:15Z</time>
      </trkpt>
      <trkpt lat="43.11727" lon="6.28218">
        <ele>-38.4</ele>
        <time>2021-07-21T10:24:18Z</time>
      </trkpt>
      <trkpt lat="43.11726" lon="6.28213">
        <ele>-38.2</ele>
        <time>2021-07-21T10:24:21Z</time>
      </trkpt>
      <trkpt lat="43.11727" lon="6.28202">
        <ele>-38.4</ele>
        <time>2021-07-21T10:24:28Z</time>
      </trkpt>
      <trkpt lat="43.11725" lon="6.28186">
        <ele>-38.6</ele>
        <time>2021-07-21T10:24:37Z</time>
      </trkpt>
      <trkpt lat="43.11727" lon="6.2817">
        <ele>-39.2</ele>
        <time>2021-07-21T10:24:46Z</time>
      </trkpt>
      <trkpt lat="43.11729" lon="6.28162">
        <ele>-39.6</ele>
        <time>2021-07-21T10:24:51Z</time>
      </trkpt>
      <trkpt lat="43.11729" lon="6.28156">
        <ele>-39.6</ele>
        <time>2021-07-21T10:24:56Z</time>
      </trkpt>
      <trkpt lat="43.11724" lon="6.28142">
        <ele>-39.4</ele>
        <time>2021-07-21T10:25:04Z</time>
      </trkpt>
      <trkpt lat="43.11715" lon="6.28133">
        <ele>-39.4</ele>
        <time>2021-07-21T10:25:13Z</time>
      </trkpt>
      <trkpt lat="43.11711" lon="6.28121">
        <ele>-38.6</ele>
        <time>2021-07-21T10:25:21Z</time>
      </trkpt>
      <trkpt lat="43.1171" lon="6.28119">
        <ele>-38.4</ele>
        <time>2021-07-21T10:25:22Z</time>
      </trkpt>
      <trkpt lat="43.1171" lon="6.28108">
        <ele>-38.2</ele>
        <time>2021-07-21T10:25:30Z</time>
      </trkpt>
      <trkpt lat="43.11711" lon="6.28099">
        <ele>-37.6</ele>
        <time>2021-07-21T10:25:37Z</time>
      </trkpt>
      <trkpt lat="43.11711" lon="6.28096">
        <ele>-37.4</ele>
        <time>2021-07-21T10:25:39Z</time>
      </trkpt>
      <trkpt lat="43.1171" lon="6.28089">
        <ele>-37.2</ele>
        <time>2021-07-21T10:25:44Z</time>
      </trkpt>
      <trkpt lat="43.11711" lon="6.28087">
        <ele>-37</ele>
        <time>2021-07-21T10:25:46Z</time>
      </trkpt>
      <trkpt lat="43.1171" lon="6.28077">
        <ele>-36.4</ele>
        <time>2021-07-21T10:25:53Z</time>
      </trkpt>
      <trkpt lat="43.1171" lon="6.28074">
        <ele>-36.2</ele>
        <time>2021-07-21T10:25:55Z</time>
      </trkpt>
      <trkpt lat="43.11711" lon="6.2806">
        <ele>-35.8</ele>
        <time>2021-07-21T10:26:04Z</time>
      </trkpt>
      <trkpt lat="43.11711" lon="6.28052">
        <ele>-35.4</ele>
        <time>2021-07-21T10:26:09Z</time>
      </trkpt>
      <trkpt lat="43.11711" lon="6.28044">
        <ele>-35.4</ele>
        <time>2021-07-21T10:26:14Z</time>
      </trkpt>
      <trkpt lat="43.11706" lon="6.28032">
        <ele>-35.4</ele>
        <time>2021-07-21T10:26:22Z</time>
      </trkpt>
      <trkpt lat="43.11698" lon="6.28025">
        <ele>-35.4</ele>
        <time>2021-07-21T10:26:31Z</time>
      </trkpt>
      <trkpt lat="43.11688" lon="6.2802">
        <ele>-34.6</ele>
        <time>2021-07-21T10:26:40Z</time>
      </trkpt>
      <trkpt lat="43.11687" lon="6.2802">
        <ele>-34.4</ele>
        <time>2021-07-21T10:26:41Z</time>
      </trkpt>
      <trkpt lat="43.11682" lon="6.28017">
        <ele>-34.2</ele>
        <time>2021-07-21T10:26:46Z</time>
      </trkpt>
      <trkpt lat="43.11675" lon="6.28014">
        <ele>-33.8</ele>
        <time>2021-07-21T10:26:53Z</time>
      </trkpt>
      <trkpt lat="43.1167" lon="6.28008">
        <ele>-33.4</ele>
        <time>2021-07-21T10:27:00Z</time>
      </trkpt>
      <trkpt lat="43.11669" lon="6.28006">
        <ele>-33.2</ele>
        <time>2021-07-21T10:27:02Z</time>
      </trkpt>
      <trkpt lat="43.11668" lon="6.28004">
        <ele>-33</ele>
        <time>2021-07-21T10:27:05Z</time>
      </trkpt>
      <trkpt lat="43.11666" lon="6.28001">
        <ele>-32.8</ele>
        <time>2021-07-21T10:27:08Z</time>
      </trkpt>
      <trkpt lat="43.11666" lon="6.27999">
        <ele>-32.8</ele>
        <time>2021-07-21T10:27:09Z</time>
      </trkpt>
      <trkpt lat="43.11662" lon="6.27984">
        <ele>-32.4</ele>
        <time>2021-07-21T10:27:19Z</time>
      </trkpt>
      <trkpt lat="43.11662" lon="6.27983">
        <ele>-32.2</ele>
        <time>2021-07-21T10:27:20Z</time>
      </trkpt>
      <trkpt lat="43.11665" lon="6.27969">
        <ele>-31.6</ele>
        <time>2021-07-21T10:27:31Z</time>
      </trkpt>
      <trkpt lat="43.11673" lon="6.27961">
        <ele>-31.2</ele>
        <time>2021-07-21T10:27:40Z</time>
      </trkpt>
      <trkpt lat="43.11676" lon="6.27958">
        <ele>-31.2</ele>
        <time>2021-07-21T10:27:43Z</time>
      </trkpt>
      <trkpt lat="43.11689" lon="6.27951">
        <ele>-31.2</ele>
        <time>2021-07-21T10:27:55Z</time>
      </trkpt>
      <trkpt lat="43.11704" lon="6.27939">
        <ele>-31.8</ele>
        <time>2021-07-21T10:28:11Z</time>
      </trkpt>
      <trkpt lat="43.11717" lon="6.27926">
        <ele>-32.2</ele>
        <time>2021-07-21T10:28:25Z</time>
      </trkpt>
      <trkpt lat="43.11718" lon="6.27924">
        <ele>-32.4</ele>
        <time>2021-07-21T10:28:27Z</time>
      </trkpt>
      <trkpt lat="43.11721" lon="6.27915">
        <ele>-33.2</ele>
        <time>2021-07-21T10:28:33Z</time>
      </trkpt>
      <trkpt lat="43.11722" lon="6.2791">
        <ele>-33.4</ele>
        <time>2021-07-21T10:28:36Z</time>
      </trkpt>
      <trkpt lat="43.11722" lon="6.27909">
        <ele>-33.8</ele>
        <time>2021-07-21T10:28:37Z</time>
      </trkpt>
      <trkpt lat="43.11716" lon="6.27903">
        <ele>-34.4</ele>
        <time>2021-07-21T10:28:43Z</time>
      </trkpt>
      <trkpt lat="43.11716" lon="6.27902">
        <ele>-34.6</ele>
        <time>2021-07-21T10:28:44Z</time>
      </trkpt>
      <trkpt lat="43.11714" lon="6.27898">
        <ele>-35</ele>
        <time>2021-07-21T10:28:48Z</time>
      </trkpt>
      <trkpt lat="43.11712" lon="6.27891">
        <ele>-35.8</ele>
        <time>2021-07-21T10:28:55Z</time>
      </trkpt>
      <trkpt lat="43.11712" lon="6.27889">
        <ele>-36.2</ele>
        <time>2021-07-21T10:28:57Z</time>
      </trkpt>
      <trkpt lat="43.11712" lon="6.27888">
        <ele>-36.2</ele>
        <time>2021-07-21T10:28:58Z</time>
      </trkpt>
      <trkpt lat="43.11714" lon="6.27881">
        <ele>-37.2</ele>
        <time>2021-07-21T10:29:05Z</time>
      </trkpt>
      <trkpt lat="43.11715" lon="6.2788">
        <ele>-37.4</ele>
        <time>2021-07-21T10:29:06Z</time>
      </trkpt>
      <trkpt lat="43.11715" lon="6.27879">
        <ele>-37.6</ele>
        <time>2021-07-21T10:29:08Z</time>
      </trkpt>
      <trkpt lat="43.11717" lon="6.27872">
        <ele>-38.2</ele>
        <time>2021-07-21T10:29:15Z</time>
      </trkpt>
      <trkpt lat="43.11717" lon="6.2787">
        <ele>-38.4</ele>
        <time>2021-07-21T10:29:17Z</time>
      </trkpt>
      <trkpt lat="43.11714" lon="6.27867">
        <ele>-39.2</ele>
        <time>2021-07-21T10:29:25Z</time>
      </trkpt>
      <trkpt lat="43.11713" lon="6.27869">
        <ele>-39.6</ele>
        <time>2021-07-21T10:29:27Z</time>
      </trkpt>
      <trkpt lat="43.11711" lon="6.27873">
        <ele>-39</ele>
        <time>2021-07-21T10:29:38Z</time>
      </trkpt>
      <trkpt lat="43.11711" lon="6.27874">
        <ele>-39.4</ele>
        <time>2021-07-21T10:29:52Z</time>
      </trkpt>
      <trkpt lat="43.11712" lon="6.27872">
        <ele>-40.2</ele>
        <time>2021-07-21T10:29:57Z</time>
      </trkpt>
      <trkpt lat="43.11713" lon="6.2787">
        <ele>-40.2</ele>
        <time>2021-07-21T10:30:03Z</time>
      </trkpt>
      <trkpt lat="43.11714" lon="6.27867">
        <ele>-40.4</ele>
        <time>2021-07-21T10:30:18Z</time>
      </trkpt>
      <trkpt lat="43.11715" lon="6.2787">
        <ele>-39.4</ele>
        <time>2021-07-21T10:30:29Z</time>
      </trkpt>
      <trkpt lat="43.11724" lon="6.27878">
        <ele>-39.4</ele>
        <time>2021-07-21T10:30:39Z</time>
      </trkpt>
      <trkpt lat="43.11728" lon="6.27879">
        <ele>-39.2</ele>
        <time>2021-07-21T10:30:43Z</time>
      </trkpt>
      <trkpt lat="43.11732" lon="6.27882">
        <ele>-39</ele>
        <time>2021-07-21T10:30:47Z</time>
      </trkpt>
      <trkpt lat="43.11742" lon="6.27889">
        <ele>-40.2</ele>
        <time>2021-07-21T10:30:58Z</time>
      </trkpt>
      <trkpt lat="43.11749" lon="6.27902">
        <ele>-39.8</ele>
        <time>2021-07-21T10:31:11Z</time>
      </trkpt>
      <trkpt lat="43.11757" lon="6.27907">
        <ele>-40</ele>
        <time>2021-07-21T10:31:23Z</time>
      </trkpt>
      <trkpt lat="43.11758" lon="6.27908">
        <ele>-40</ele>
        <time>2021-07-21T10:31:24Z</time>
      </trkpt>
      <trkpt lat="43.11767" lon="6.27911">
        <ele>-41.2</ele>
        <time>2021-07-21T10:31:35Z</time>
      </trkpt>
      <trkpt lat="43.11768" lon="6.27913">
        <ele>-41.4</ele>
        <time>2021-07-21T10:31:37Z</time>
      </trkpt>
      <trkpt lat="43.11776" lon="6.27914">
        <ele>-42.6</ele>
        <time>2021-07-21T10:31:48Z</time>
      </trkpt>
      <trkpt lat="43.11784" lon="6.27911">
        <ele>-43.2</ele>
        <time>2021-07-21T10:31:58Z</time>
      </trkpt>
      <trkpt lat="43.11785" lon="6.27909">
        <ele>-43.2</ele>
        <time>2021-07-21T10:31:59Z</time>
      </trkpt>
      <trkpt lat="43.11787" lon="6.27907">
        <ele>-43.8</ele>
        <time>2021-07-21T10:32:01Z</time>
      </trkpt>
      <trkpt lat="43.11799" lon="6.27897">
        <ele>-44.2</ele>
        <time>2021-07-21T10:32:10Z</time>
      </trkpt>
      <trkpt lat="43.11808" lon="6.27878">
        <ele>-43.4</ele>
        <time>2021-07-21T10:32:22Z</time>
      </trkpt>
      <trkpt lat="43.11815" lon="6.2787">
        <ele>-43.8</ele>
        <time>2021-07-21T10:32:33Z</time>
      </trkpt>
      <trkpt lat="43.11816" lon="6.27866">
        <ele>-43.6</ele>
        <time>2021-07-21T10:32:36Z</time>
      </trkpt>
      <trkpt lat="43.1182" lon="6.27853">
        <ele>-44</ele>
        <time>2021-07-21T10:32:44Z</time>
      </trkpt>
      <trkpt lat="43.11823" lon="6.27841">
        <ele>-44.2</ele>
        <time>2021-07-21T10:32:55Z</time>
      </trkpt>
      <trkpt lat="43.11822" lon="6.2784">
        <ele>-44.4</ele>
        <time>2021-07-21T10:32:57Z</time>
      </trkpt>
      <trkpt lat="43.11822" lon="6.27838">
        <ele>-44.4</ele>
        <time>2021-07-21T10:32:58Z</time>
      </trkpt>
      <trkpt lat="43.11822" lon="6.27837">
        <ele>-44.6</ele>
        <time>2021-07-21T10:33:00Z</time>
      </trkpt>
      <trkpt lat="43.11822" lon="6.27828">
        <ele>-44.4</ele>
        <time>2021-07-21T10:33:10Z</time>
      </trkpt>
      <trkpt lat="43.11822" lon="6.27823">
        <ele>-44.2</ele>
        <time>2021-07-21T10:33:20Z</time>
      </trkpt>
      <trkpt lat="43.11823" lon="6.27822">
        <ele>-42.6</ele>
        <time>2021-07-21T10:33:22Z</time>
      </trkpt>
      <trkpt lat="43.11823" lon="6.2782">
        <ele>-41.6</ele>
        <time>2021-07-21T10:33:25Z</time>
      </trkpt>
      <trkpt lat="43.11823" lon="6.27817">
        <ele>-40.6</ele>
        <time>2021-07-21T10:33:28Z</time>
      </trkpt>
      <trkpt lat="43.11823" lon="6.27814">
        <ele>-40</ele>
        <time>2021-07-21T10:33:32Z</time>
      </trkpt>
      <trkpt lat="43.11823" lon="6.27811">
        <ele>-39.2</ele>
        <time>2021-07-21T10:33:36Z</time>
      </trkpt>
      <trkpt lat="43.11823" lon="6.27803">
        <ele>-38</ele>
        <time>2021-07-21T10:33:42Z</time>
      </trkpt>
      <trkpt lat="43.11823" lon="6.27801">
        <ele>-37.8</ele>
        <time>2021-07-21T10:33:43Z</time>
      </trkpt>
      <trkpt lat="43.11819" lon="6.27789">
        <ele>-37.2</ele>
        <time>2021-07-21T10:33:52Z</time>
      </trkpt>
      <trkpt lat="43.11825" lon="6.2778">
        <ele>-37</ele>
        <time>2021-07-21T10:34:01Z</time>
      </trkpt>
      <trkpt lat="43.11827" lon="6.27777">
        <ele>-37</ele>
        <time>2021-07-21T10:34:03Z</time>
      </trkpt>
      <trkpt lat="43.11828" lon="6.27767">
        <ele>-37.4</ele>
        <time>2021-07-21T10:34:11Z</time>
      </trkpt>
      <trkpt lat="43.11826" lon="6.27764">
        <ele>-37.8</ele>
        <time>2021-07-21T10:34:16Z</time>
      </trkpt>
      <trkpt lat="43.11825" lon="6.27762">
        <ele>-38</ele>
        <time>2021-07-21T10:34:18Z</time>
      </trkpt>
      <trkpt lat="43.11826" lon="6.2776">
        <ele>-38.2</ele>
        <time>2021-07-21T10:34:22Z</time>
      </trkpt>
      <trkpt lat="43.11832" lon="6.27754">
        <ele>-39.2</ele>
        <time>2021-07-21T10:34:32Z</time>
      </trkpt>
      <trkpt lat="43.11838" lon="6.27749">
        <ele>-40.2</ele>
        <time>2021-07-21T10:34:42Z</time>
      </trkpt>
      <trkpt lat="43.11838" lon="6.27749">
        <ele>-40.4</ele>
        <time>2021-07-21T10:34:43Z</time>
      </trkpt>
      <trkpt lat="43.11838" lon="6.2775">
        <ele>-39.2</ele>
        <time>2021-07-21T10:34:47Z</time>
      </trkpt>
      <trkpt lat="43.11838" lon="6.27754">
        <ele>-40</ele>
        <time>2021-07-21T10:34:53Z</time>
      </trkpt>
      <trkpt lat="43.11838" lon="6.27754">
        <ele>-39.6</ele>
        <time>2021-07-21T10:35:05Z</time>
      </trkpt>
      <trkpt lat="43.11838" lon="6.27757">
        <ele>-40.2</ele>
        <time>2021-07-21T10:35:14Z</time>
      </trkpt>
      <trkpt lat="43.11839" lon="6.27761">
        <ele>-39.6</ele>
        <time>2021-07-21T10:35:18Z</time>
      </trkpt>
      <trkpt lat="43.11841" lon="6.27766">
        <ele>-39.2</ele>
        <time>2021-07-21T10:35:22Z</time>
      </trkpt>
      <trkpt lat="43.11841" lon="6.27773">
        <ele>-38.4</ele>
        <time>2021-07-21T10:35:28Z</time>
      </trkpt>
      <trkpt lat="43.11841" lon="6.27775">
        <ele>-38.2</ele>
        <time>2021-07-21T10:35:29Z</time>
      </trkpt>
      <trkpt lat="43.11849" lon="6.27784">
        <ele>-37.6</ele>
        <time>2021-07-21T10:35:39Z</time>
      </trkpt>
      <trkpt lat="43.1185" lon="6.27785">
        <ele>-37.8</ele>
        <time>2021-07-21T10:35:40Z</time>
      </trkpt>
      <trkpt lat="43.11864" lon="6.27785">
        <ele>-37.8</ele>
        <time>2021-07-21T10:35:51Z</time>
      </trkpt>
      <trkpt lat="43.11879" lon="6.27788">
        <ele>-38.4</ele>
        <time>2021-07-21T10:36:04Z</time>
      </trkpt>
      <trkpt lat="43.11896" lon="6.27793">
        <ele>-38.8</ele>
        <time>2021-07-21T10:36:18Z</time>
      </trkpt>
      <trkpt lat="43.11898" lon="6.27793">
        <ele>-39.4</ele>
        <time>2021-07-21T10:36:20Z</time>
      </trkpt>
      <trkpt lat="43.11909" lon="6.27792">
        <ele>-40.4</ele>
        <time>2021-07-21T10:36:32Z</time>
      </trkpt>
      <trkpt lat="43.11919" lon="6.27796">
        <ele>-41</ele>
        <time>2021-07-21T10:36:42Z</time>
      </trkpt>
      <trkpt lat="43.11927" lon="6.27806">
        <ele>-41.4</ele>
        <time>2021-07-21T10:36:52Z</time>
      </trkpt>
      <trkpt lat="43.11929" lon="6.27807">
        <ele>-41.8</ele>
        <time>2021-07-21T10:36:54Z</time>
      </trkpt>
      <trkpt lat="43.1193" lon="6.27807">
        <ele>-42.2</ele>
        <time>2021-07-21T10:36:58Z</time>
      </trkpt>
      <trkpt lat="43.11935" lon="6.27806">
        <ele>-42.8</ele>
        <time>2021-07-21T10:37:04Z</time>
      </trkpt>
      <trkpt lat="43.11935" lon="6.27805">
        <ele>-43</ele>
        <time>2021-07-21T10:37:05Z</time>
      </trkpt>
      <trkpt lat="43.11934" lon="6.27803">
        <ele>-42.2</ele>
        <time>2021-07-21T10:37:16Z</time>
      </trkpt>
      <trkpt lat="43.11934" lon="6.278">
        <ele>-42.2</ele>
        <time>2021-07-21T10:37:33Z</time>
      </trkpt>
      <trkpt lat="43.11938" lon="6.27795">
        <ele>-44</ele>
        <time>2021-07-21T10:37:40Z</time>
      </trkpt>
      <trkpt lat="43.1194" lon="6.27793">
        <ele>-44.2</ele>
        <time>2021-07-21T10:37:42Z</time>
      </trkpt>
      <trkpt lat="43.11954" lon="6.27783">
        <ele>-44.6</ele>
        <time>2021-07-21T10:37:54Z</time>
      </trkpt>
      <trkpt lat="43.11965" lon="6.27776">
        <ele>-44.6</ele>
        <time>2021-07-21T10:38:03Z</time>
      </trkpt>
      <trkpt lat="43.11972" lon="6.2777">
        <ele>-44.4</ele>
        <time>2021-07-21T10:38:10Z</time>
      </trkpt>
      <trkpt lat="43.11981" lon="6.27763">
        <ele>-44.6</ele>
        <time>2021-07-21T10:38:19Z</time>
      </trkpt>
      <trkpt lat="43.11989" lon="6.27756">
        <ele>-45</ele>
        <time>2021-07-21T10:38:26Z</time>
      </trkpt>
      <trkpt lat="43.1199" lon="6.27754">
        <ele>-45</ele>
        <time>2021-07-21T10:38:27Z</time>
      </trkpt>
      <trkpt lat="43.11997" lon="6.27744">
        <ele>-44.8</ele>
        <time>2021-07-21T10:38:36Z</time>
      </trkpt>
      <trkpt lat="43.12008" lon="6.27731">
        <ele>-44.8</ele>
        <time>2021-07-21T10:38:49Z</time>
      </trkpt>
      <trkpt lat="43.12013" lon="6.27721">
        <ele>-44.8</ele>
        <time>2021-07-21T10:38:57Z</time>
      </trkpt>
      <trkpt lat="43.12021" lon="6.27716">
        <ele>-44.4</ele>
        <time>2021-07-21T10:39:05Z</time>
      </trkpt>
      <trkpt lat="43.12022" lon="6.27715">
        <ele>-44.2</ele>
        <time>2021-07-21T10:39:06Z</time>
      </trkpt>
      <trkpt lat="43.12024" lon="6.27713">
        <ele>-44.2</ele>
        <time>2021-07-21T10:39:08Z</time>
      </trkpt>
      <trkpt lat="43.1203" lon="6.27704">
        <ele>-44.8</ele>
        <time>2021-07-21T10:39:15Z</time>
      </trkpt>
      <trkpt lat="43.12041" lon="6.27685">
        <ele>-44.4</ele>
        <time>2021-07-21T10:39:28Z</time>
      </trkpt>
      <trkpt lat="43.12048" lon="6.27676">
        <ele>-44.6</ele>
        <time>2021-07-21T10:39:37Z</time>
      </trkpt>
      <trkpt lat="43.12056" lon="6.27666">
        <ele>-44.4</ele>
        <time>2021-07-21T10:39:47Z</time>
      </trkpt>
      <trkpt lat="43.12061" lon="6.27654">
        <ele>-44.8</ele>
        <time>2021-07-21T10:39:56Z</time>
      </trkpt>
      <trkpt lat="43.12066" lon="6.27646">
        <ele>-44.6</ele>
        <time>2021-07-21T10:40:04Z</time>
      </trkpt>
      <trkpt lat="43.12068" lon="6.27643">
        <ele>-44.6</ele>
        <time>2021-07-21T10:40:08Z</time>
      </trkpt>
      <trkpt lat="43.12069" lon="6.27641">
        <ele>-44.6</ele>
        <time>2021-07-21T10:40:11Z</time>
      </trkpt>
      <trkpt lat="43.12069" lon="6.2764">
        <ele>-44.6</ele>
        <time>2021-07-21T10:40:13Z</time>
      </trkpt>
      <trkpt lat="43.12075" lon="6.27638">
        <ele>-44.6</ele>
        <time>2021-07-21T10:40:24Z</time>
      </trkpt>
      <trkpt lat="43.12077" lon="6.27638">
        <ele>-44.6</ele>
        <time>2021-07-21T10:40:33Z</time>
      </trkpt>
      <trkpt lat="43.12081" lon="6.27633">
        <ele>-44.6</ele>
        <time>2021-07-21T10:40:46Z</time>
      </trkpt>
      <trkpt lat="43.12088" lon="6.2762">
        <ele>-44.6</ele>
        <time>2021-07-21T10:41:00Z</time>
      </trkpt>
      <trkpt lat="43.12091" lon="6.27614">
        <ele>-44.6</ele>
        <time>2021-07-21T10:41:08Z</time>
      </trkpt>
      <trkpt lat="43.12094" lon="6.27614">
        <ele>-44.4</ele>
        <time>2021-07-21T10:41:11Z</time>
      </trkpt>
      <trkpt lat="43.12099" lon="6.27616">
        <ele>-44</ele>
        <time>2021-07-21T10:41:17Z</time>
      </trkpt>
      <trkpt lat="43.121" lon="6.27615">
        <ele>-43.8</ele>
        <time>2021-07-21T10:41:19Z</time>
      </trkpt>
      <trkpt lat="43.12103" lon="6.27613">
        <ele>-43.6</ele>
        <time>2021-07-21T10:41:24Z</time>
      </trkpt>
      <trkpt lat="43.12109" lon="6.27602">
        <ele>-43.4</ele>
        <time>2021-07-21T10:41:37Z</time>
      </trkpt>
      <trkpt lat="43.12112" lon="6.27597">
        <ele>-42.8</ele>
        <time>2021-07-21T10:41:42Z</time>
      </trkpt>
      <trkpt lat="43.12114" lon="6.27589">
        <ele>-42.6</ele>
        <time>2021-07-21T10:41:48Z</time>
      </trkpt>
      <trkpt lat="43.12115" lon="6.27583">
        <ele>-42.4</ele>
        <time>2021-07-21T10:41:54Z</time>
      </trkpt>
      <trkpt lat="43.12116" lon="6.2758">
        <ele>-41.4</ele>
        <time>2021-07-21T10:42:05Z</time>
      </trkpt>
      <trkpt lat="43.12116" lon="6.2758">
        <ele>-40.6</ele>
        <time>2021-07-21T10:42:09Z</time>
      </trkpt>
      <trkpt lat="43.12098" lon="6.27556">
        <ele>-41</ele>
        <time>2021-07-21T11:18:34Z</time>
      </trkpt>
      <trkpt lat="43.12098" lon="6.27554">
        <ele>-43.8</ele>
        <time>2021-07-21T11:18:37Z</time>
      </trkpt>
      <trkpt lat="43.12099" lon="6.27553">
        <ele>-45.4</ele>
        <time>2021-07-21T11:18:38Z</time>
      </trkpt>
      <trkpt lat="43.12099" lon="6.27552">
        <ele>-46.6</ele>
        <time>2021-07-21T11:18:39Z</time>
      </trkpt>
      <trkpt lat="43.121" lon="6.2755">
        <ele>-48</ele>
        <time>2021-07-21T11:18:41Z</time>
      </trkpt>
      <trkpt lat="43.121" lon="6.27549">
        <ele>-48.2</ele>
        <time>2021-07-21T11:18:42Z</time>
      </trkpt>
      <trkpt lat="43.12101" lon="6.27546">
        <ele>-48.4</ele>
        <time>2021-07-21T11:18:44Z</time>
      </trkpt>
      <trkpt lat="43.12102" lon="6.27541">
        <ele>-46.6</ele>
        <time>2021-07-21T11:18:48Z</time>
      </trkpt>
      <trkpt lat="43.12103" lon="6.27538">
        <ele>-45.2</ele>
        <time>2021-07-21T11:18:50Z</time>
      </trkpt>
      <trkpt lat="43.12103" lon="6.27534">
        <ele>-46</ele>
        <time>2021-07-21T11:18:53Z</time>
      </trkpt>
      <trkpt lat="43.12103" lon="6.27532">
        <ele>-46.4</ele>
        <time>2021-07-21T11:18:55Z</time>
      </trkpt>
      <trkpt lat="43.12105" lon="6.27521">
        <ele>-47.6</ele>
        <time>2021-07-21T11:19:04Z</time>
      </trkpt>
      <trkpt lat="43.12104" lon="6.27517">
        <ele>-45.6</ele>
        <time>2021-07-21T11:19:07Z</time>
      </trkpt>
      <trkpt lat="43.12104" lon="6.27514">
        <ele>-44.2</ele>
        <time>2021-07-21T11:19:09Z</time>
      </trkpt>
      <trkpt lat="43.12104" lon="6.27507">
        <ele>-45.2</ele>
        <time>2021-07-21T11:19:15Z</time>
      </trkpt>
      <trkpt lat="43.12106" lon="6.27498">
        <ele>-45.2</ele>
        <time>2021-07-21T11:19:22Z</time>
      </trkpt>
      <trkpt lat="43.12106" lon="6.27494">
        <ele>-45.8</ele>
        <time>2021-07-21T11:19:26Z</time>
      </trkpt>
      <trkpt lat="43.12105" lon="6.27482">
        <ele>-46.2</ele>
        <time>2021-07-21T11:19:36Z</time>
      </trkpt>
      <trkpt lat="43.12105" lon="6.27463">
        <ele>-46</ele>
        <time>2021-07-21T11:19:50Z</time>
      </trkpt>
      <trkpt lat="43.12109" lon="6.27445">
        <ele>-46</ele>
        <time>2021-07-21T11:20:05Z</time>
      </trkpt>
      <trkpt lat="43.12112" lon="6.27431">
        <ele>-46</ele>
        <time>2021-07-21T11:20:16Z</time>
      </trkpt>
      <trkpt lat="43.12115" lon="6.2741">
        <ele>-46.2</ele>
        <time>2021-07-21T11:20:31Z</time>
      </trkpt>
      <trkpt lat="43.12115" lon="6.274">
        <ele>-47</ele>
        <time>2021-07-21T11:20:38Z</time>
      </trkpt>
      <trkpt lat="43.12116" lon="6.27389">
        <ele>-46.4</ele>
        <time>2021-07-21T11:20:45Z</time>
      </trkpt>
      <trkpt lat="43.12117" lon="6.27369">
        <ele>-46.2</ele>
        <time>2021-07-21T11:20:59Z</time>
      </trkpt>
      <trkpt lat="43.12118" lon="6.27354">
        <ele>-46</ele>
        <time>2021-07-21T11:21:10Z</time>
      </trkpt>
      <trkpt lat="43.12118" lon="6.2735">
        <ele>-46</ele>
        <time>2021-07-21T11:21:14Z</time>
      </trkpt>
      <trkpt lat="43.1212" lon="6.27332">
        <ele>-46</ele>
        <time>2021-07-21T11:21:28Z</time>
      </trkpt>
      <trkpt lat="43.12121" lon="6.2731">
        <ele>-46.2</ele>
        <time>2021-07-21T11:21:43Z</time>
      </trkpt>
      <trkpt lat="43.12123" lon="6.27294">
        <ele>-46.2</ele>
        <time>2021-07-21T11:21:56Z</time>
      </trkpt>
      <trkpt lat="43.12122" lon="6.27287">
        <ele>-46.4</ele>
        <time>2021-07-21T11:22:04Z</time>
      </trkpt>
      <trkpt lat="43.12122" lon="6.27284">
        <ele>-46</ele>
        <time>2021-07-21T11:22:07Z</time>
      </trkpt>
      <trkpt lat="43.12121" lon="6.27278">
        <ele>-46</ele>
        <time>2021-07-21T11:22:12Z</time>
      </trkpt>
      <trkpt lat="43.12121" lon="6.27272">
        <ele>-46.2</ele>
        <time>2021-07-21T11:22:17Z</time>
      </trkpt>
      <trkpt lat="43.1212" lon="6.27251">
        <ele>-46.4</ele>
        <time>2021-07-21T11:22:34Z</time>
      </trkpt>
      <trkpt lat="43.1212" lon="6.27232">
        <ele>-46.2</ele>
        <time>2021-07-21T11:22:47Z</time>
      </trkpt>
      <trkpt lat="43.12119" lon="6.27211">
        <ele>-46.6</ele>
        <time>2021-07-21T11:23:02Z</time>
      </trkpt>
      <trkpt lat="43.1212" lon="6.2719">
        <ele>-46.2</ele>
        <time>2021-07-21T11:23:16Z</time>
      </trkpt>
      <trkpt lat="43.1212" lon="6.27172">
        <ele>-46.2</ele>
        <time>2021-07-21T11:23:30Z</time>
      </trkpt>
      <trkpt lat="43.12121" lon="6.2715">
        <ele>-46.2</ele>
        <time>2021-07-21T11:23:46Z</time>
      </trkpt>
      <trkpt lat="43.1212" lon="6.27133">
        <ele>-46.2</ele>
        <time>2021-07-21T11:23:58Z</time>
      </trkpt>
      <trkpt lat="43.12122" lon="6.27118">
        <ele>-46</ele>
        <time>2021-07-21T11:24:11Z</time>
      </trkpt>
      <trkpt lat="43.12123" lon="6.27116">
        <ele>-46.2</ele>
        <time>2021-07-21T11:24:14Z</time>
      </trkpt>
      <trkpt lat="43.12124" lon="6.27116">
        <ele>-46.2</ele>
        <time>2021-07-21T11:24:22Z</time>
      </trkpt>
      <trkpt lat="43.12125" lon="6.27116">
        <ele>-46.6</ele>
        <time>2021-07-21T11:24:29Z</time>
      </trkpt>
      <trkpt lat="43.12125" lon="6.27115">
        <ele>-46.8</ele>
        <time>2021-07-21T11:24:38Z</time>
      </trkpt>
      <trkpt lat="43.12125" lon="6.27116">
        <ele>-46.4</ele>
        <time>2021-07-21T11:24:51Z</time>
      </trkpt>
      <trkpt lat="43.12125" lon="6.27117">
        <ele>-46.6</ele>
        <time>2021-07-21T11:25:04Z</time>
      </trkpt>
      <trkpt lat="43.12125" lon="6.27117">
        <ele>-46.6</ele>
        <time>2021-07-21T11:25:13Z</time>
      </trkpt>
      <trkpt lat="43.12125" lon="6.27119">
        <ele>-45.6</ele>
        <time>2021-07-21T11:26:52Z</time>
      </trkpt>
      <trkpt lat="43.12125" lon="6.27118">
        <ele>-45.6</ele>
        <time>2021-07-21T11:26:55Z</time>
      </trkpt>
      <trkpt lat="43.12122" lon="6.27105">
        <ele>-47.2</ele>
        <time>2021-07-21T11:27:04Z</time>
      </trkpt>
      <trkpt lat="43.12123" lon="6.27085">
        <ele>-46.8</ele>
        <time>2021-07-21T11:27:16Z</time>
      </trkpt>
      <trkpt lat="43.12124" lon="6.27064">
        <ele>-46.8</ele>
        <time>2021-07-21T11:27:29Z</time>
      </trkpt>
      <trkpt lat="43.12124" lon="6.27043">
        <ele>-47.2</ele>
        <time>2021-07-21T11:27:42Z</time>
      </trkpt>
      <trkpt lat="43.12122" lon="6.27022">
        <ele>-47.2</ele>
        <time>2021-07-21T11:27:55Z</time>
      </trkpt>
      <trkpt lat="43.12119" lon="6.26998">
        <ele>-47.4</ele>
        <time>2021-07-21T11:28:10Z</time>
      </trkpt>
      <trkpt lat="43.12119" lon="6.26982">
        <ele>-47.2</ele>
        <time>2021-07-21T11:28:20Z</time>
      </trkpt>
      <trkpt lat="43.12119" lon="6.26968">
        <ele>-47.6</ele>
        <time>2021-07-21T11:28:28Z</time>
      </trkpt>
      <trkpt lat="43.12116" lon="6.26951">
        <ele>-47.4</ele>
        <time>2021-07-21T11:28:39Z</time>
      </trkpt>
      <trkpt lat="43.12116" lon="6.26947">
        <ele>-47.4</ele>
        <time>2021-07-21T11:28:42Z</time>
      </trkpt>
      <trkpt lat="43.12115" lon="6.26939">
        <ele>-47</ele>
        <time>2021-07-21T11:28:46Z</time>
      </trkpt>
      <trkpt lat="43.12113" lon="6.26925">
        <ele>-47.4</ele>
        <time>2021-07-21T11:28:55Z</time>
      </trkpt>
      <trkpt lat="43.12112" lon="6.26911">
        <ele>-47</ele>
        <time>2021-07-21T11:29:03Z</time>
      </trkpt>
      <trkpt lat="43.12112" lon="6.26898">
        <ele>-47.4</ele>
        <time>2021-07-21T11:29:11Z</time>
      </trkpt>
      <trkpt lat="43.12114" lon="6.26883">
        <ele>-47</ele>
        <time>2021-07-21T11:29:21Z</time>
      </trkpt>
      <trkpt lat="43.12118" lon="6.26871">
        <ele>-46.4</ele>
        <time>2021-07-21T11:29:29Z</time>
      </trkpt>
      <trkpt lat="43.12119" lon="6.2687">
        <ele>-46.2</ele>
        <time>2021-07-21T11:29:30Z</time>
      </trkpt>
      <trkpt lat="43.12118" lon="6.26866">
        <ele>-45.6</ele>
        <time>2021-07-21T11:29:33Z</time>
      </trkpt>
      <trkpt lat="43.12117" lon="6.26864">
        <ele>-44.6</ele>
        <time>2021-07-21T11:29:35Z</time>
      </trkpt>
      <trkpt lat="43.12117" lon="6.26862">
        <ele>-44.2</ele>
        <time>2021-07-21T11:29:37Z</time>
      </trkpt>
      <trkpt lat="43.12114" lon="6.26852">
        <ele>-44.4</ele>
        <time>2021-07-21T11:29:44Z</time>
      </trkpt>
      <trkpt lat="43.12115" lon="6.26836">
        <ele>-43.6</ele>
        <time>2021-07-21T11:29:56Z</time>
      </trkpt>
      <trkpt lat="43.12108" lon="6.26823">
        <ele>-42.6</ele>
        <time>2021-07-21T11:30:08Z</time>
      </trkpt>
      <trkpt lat="43.12107" lon="6.26822">
        <ele>-42.6</ele>
        <time>2021-07-21T11:30:09Z</time>
      </trkpt>
      <trkpt lat="43.12099" lon="6.26812">
        <ele>-42.4</ele>
        <time>2021-07-21T11:30:20Z</time>
      </trkpt>
      <trkpt lat="43.12098" lon="6.26811">
        <ele>-42.2</ele>
        <time>2021-07-21T11:30:21Z</time>
      </trkpt>
      <trkpt lat="43.12094" lon="6.26806">
        <ele>-41.4</ele>
        <time>2021-07-21T11:30:27Z</time>
      </trkpt>
      <trkpt lat="43.12091" lon="6.26798">
        <ele>-40.2</ele>
        <time>2021-07-21T11:30:34Z</time>
      </trkpt>
      <trkpt lat="43.12091" lon="6.26797">
        <ele>-40</ele>
        <time>2021-07-21T11:30:35Z</time>
      </trkpt>
      <trkpt lat="43.12089" lon="6.26795">
        <ele>-39.6</ele>
        <time>2021-07-21T11:30:39Z</time>
      </trkpt>
      <trkpt lat="43.12085" lon="6.26791">
        <ele>-39</ele>
        <time>2021-07-21T11:30:47Z</time>
      </trkpt>
      <trkpt lat="43.12085" lon="6.26791">
        <ele>-38.8</ele>
        <time>2021-07-21T11:30:48Z</time>
      </trkpt>
      <trkpt lat="43.12074" lon="6.26785">
        <ele>-38.4</ele>
        <time>2021-07-21T11:30:59Z</time>
      </trkpt>
      <trkpt lat="43.12069" lon="6.26775">
        <ele>-40</ele>
        <time>2021-07-21T11:31:11Z</time>
      </trkpt>
      <trkpt lat="43.12068" lon="6.26774">
        <ele>-40.4</ele>
        <time>2021-07-21T11:31:12Z</time>
      </trkpt>
      <trkpt lat="43.12069" lon="6.26774">
        <ele>-40.8</ele>
        <time>2021-07-21T11:31:14Z</time>
      </trkpt>
      <trkpt lat="43.12068" lon="6.26773">
        <ele>-41.2</ele>
        <time>2021-07-21T11:31:15Z</time>
      </trkpt>
      <trkpt lat="43.12068" lon="6.2677">
        <ele>-42.2</ele>
        <time>2021-07-21T11:31:18Z</time>
      </trkpt>
      <trkpt lat="43.12068" lon="6.26766">
        <ele>-43</ele>
        <time>2021-07-21T11:31:21Z</time>
      </trkpt>
      <trkpt lat="43.12068" lon="6.26765">
        <ele>-43.2</ele>
        <time>2021-07-21T11:31:22Z</time>
      </trkpt>
      <trkpt lat="43.12067" lon="6.26756">
        <ele>-44</ele>
        <time>2021-07-21T11:31:32Z</time>
      </trkpt>
      <trkpt lat="43.12066" lon="6.26753">
        <ele>-44.4</ele>
        <time>2021-07-21T11:31:35Z</time>
      </trkpt>
      <trkpt lat="43.12065" lon="6.2675">
        <ele>-44.8</ele>
        <time>2021-07-21T11:31:42Z</time>
      </trkpt>
      <trkpt lat="43.12064" lon="6.26749">
        <ele>-45.4</ele>
        <time>2021-07-21T11:31:44Z</time>
      </trkpt>
      <trkpt lat="43.12062" lon="6.26746">
        <ele>-46.4</ele>
        <time>2021-07-21T11:31:50Z</time>
      </trkpt>
      <trkpt lat="43.12061" lon="6.26744">
        <ele>-46.4</ele>
        <time>2021-07-21T11:31:52Z</time>
      </trkpt>
      <trkpt lat="43.12058" lon="6.26732">
        <ele>-46.4</ele>
        <time>2021-07-21T11:32:02Z</time>
      </trkpt>
      <trkpt lat="43.12052" lon="6.26725">
        <ele>-46.4</ele>
        <time>2021-07-21T11:32:13Z</time>
      </trkpt>
      <trkpt lat="43.12052" lon="6.26725">
        <ele>-46.2</ele>
        <time>2021-07-21T11:32:15Z</time>
      </trkpt>
      <trkpt lat="43.12048" lon="6.26722">
        <ele>-45.2</ele>
        <time>2021-07-21T11:32:21Z</time>
      </trkpt>
      <trkpt lat="43.12048" lon="6.26722">
        <ele>-45</ele>
        <time>2021-07-21T11:32:22Z</time>
      </trkpt>
      <trkpt lat="43.12048" lon="6.26722">
        <ele>-44</ele>
        <time>2021-07-21T11:32:24Z</time>
      </trkpt>
      <trkpt lat="43.12048" lon="6.26719">
        <ele>-42.6</ele>
        <time>2021-07-21T11:32:30Z</time>
      </trkpt>
      <trkpt lat="43.12048" lon="6.26717">
        <ele>-42</ele>
        <time>2021-07-21T11:32:33Z</time>
      </trkpt>
      <trkpt lat="43.12048" lon="6.26716">
        <ele>-41.4</ele>
        <time>2021-07-21T11:32:35Z</time>
      </trkpt>
      <trkpt lat="43.12049" lon="6.26713">
        <ele>-40.6</ele>
        <time>2021-07-21T11:32:43Z</time>
      </trkpt>
      <trkpt lat="43.12049" lon="6.26712">
        <ele>-40.2</ele>
        <time>2021-07-21T11:32:44Z</time>
      </trkpt>
      <trkpt lat="43.12049" lon="6.26712">
        <ele>-39.8</ele>
        <time>2021-07-21T11:32:45Z</time>
      </trkpt>
      <trkpt lat="43.12048" lon="6.26704">
        <ele>-39.8</ele>
        <time>2021-07-21T11:32:55Z</time>
      </trkpt>
      <trkpt lat="43.1205" lon="6.26704">
        <ele>-39.8</ele>
        <time>2021-07-21T11:33:03Z</time>
      </trkpt>
      <trkpt lat="43.12051" lon="6.26705">
        <ele>-39</ele>
        <time>2021-07-21T11:33:05Z</time>
      </trkpt>
      <trkpt lat="43.12054" lon="6.26705">
        <ele>-38</ele>
        <time>2021-07-21T11:33:08Z</time>
      </trkpt>
      <trkpt lat="43.12058" lon="6.26704">
        <ele>-36.8</ele>
        <time>2021-07-21T11:33:14Z</time>
      </trkpt>
      <trkpt lat="43.12061" lon="6.26699">
        <ele>-35.8</ele>
        <time>2021-07-21T11:33:21Z</time>
      </trkpt>
      <trkpt lat="43.12063" lon="6.26695">
        <ele>-35.6</ele>
        <time>2021-07-21T11:33:25Z</time>
      </trkpt>
      <trkpt lat="43.12071" lon="6.26691">
        <ele>-34.8</ele>
        <time>2021-07-21T11:33:34Z</time>
      </trkpt>
      <trkpt lat="43.12072" lon="6.26691">
        <ele>-34.4</ele>
        <time>2021-07-21T11:33:35Z</time>
      </trkpt>
      <trkpt lat="43.12074" lon="6.2669">
        <ele>-33.6</ele>
        <time>2021-07-21T11:33:38Z</time>
      </trkpt>
      <trkpt lat="43.12079" lon="6.26687">
        <ele>-32.4</ele>
        <time>2021-07-21T11:33:44Z</time>
      </trkpt>
      <trkpt lat="43.12083" lon="6.26684">
        <ele>-31.4</ele>
        <time>2021-07-21T11:33:49Z</time>
      </trkpt>
      <trkpt lat="43.12083" lon="6.26683">
        <ele>-31.2</ele>
        <time>2021-07-21T11:33:50Z</time>
      </trkpt>
      <trkpt lat="43.12084" lon="6.26682">
        <ele>-31.2</ele>
        <time>2021-07-21T11:33:51Z</time>
      </trkpt>
      <trkpt lat="43.1209" lon="6.26672">
        <ele>-31.8</ele>
        <time>2021-07-21T11:34:01Z</time>
      </trkpt>
      <trkpt lat="43.12091" lon="6.26672">
        <ele>-31.8</ele>
        <time>2021-07-21T11:34:05Z</time>
      </trkpt>
      <trkpt lat="43.12094" lon="6.26668">
        <ele>-32</ele>
        <time>2021-07-21T11:34:10Z</time>
      </trkpt>
      <trkpt lat="43.12097" lon="6.26667">
        <ele>-32.4</ele>
        <time>2021-07-21T11:34:13Z</time>
      </trkpt>
      <trkpt lat="43.121" lon="6.26664">
        <ele>-32.2</ele>
        <time>2021-07-21T11:34:21Z</time>
      </trkpt>
      <trkpt lat="43.12104" lon="6.26658">
        <ele>-33.4</ele>
        <time>2021-07-21T11:34:27Z</time>
      </trkpt>
      <trkpt lat="43.12105" lon="6.26657">
        <ele>-33.4</ele>
        <time>2021-07-21T11:34:28Z</time>
      </trkpt>
      <trkpt lat="43.12108" lon="6.26652">
        <ele>-33.6</ele>
        <time>2021-07-21T11:34:32Z</time>
      </trkpt>
      <trkpt lat="43.12113" lon="6.26644">
        <ele>-34.4</ele>
        <time>2021-07-21T11:34:39Z</time>
      </trkpt>
      <trkpt lat="43.12121" lon="6.26636">
        <ele>-35</ele>
        <time>2021-07-21T11:34:49Z</time>
      </trkpt>
      <trkpt lat="43.12125" lon="6.26632">
        <ele>-35.6</ele>
        <time>2021-07-21T11:34:54Z</time>
      </trkpt>
      <trkpt lat="43.12129" lon="6.26626">
        <ele>-36.6</ele>
        <time>2021-07-21T11:35:00Z</time>
      </trkpt>
      <trkpt lat="43.12131" lon="6.26624">
        <ele>-37.2</ele>
        <time>2021-07-21T11:35:03Z</time>
      </trkpt>
      <trkpt lat="43.12137" lon="6.26621">
        <ele>-37.8</ele>
        <time>2021-07-21T11:35:09Z</time>
      </trkpt>
      <trkpt lat="43.12143" lon="6.26616">
        <ele>-38.8</ele>
        <time>2021-07-21T11:35:16Z</time>
      </trkpt>
      <trkpt lat="43.12145" lon="6.26612">
        <ele>-39.6</ele>
        <time>2021-07-21T11:35:20Z</time>
      </trkpt>
      <trkpt lat="43.12145" lon="6.26611">
        <ele>-39.8</ele>
        <time>2021-07-21T11:35:22Z</time>
      </trkpt>
      <trkpt lat="43.12144" lon="6.26607">
        <ele>-40.6</ele>
        <time>2021-07-21T11:35:28Z</time>
      </trkpt>
      <trkpt lat="43.12142" lon="6.26606">
        <ele>-41</ele>
        <time>2021-07-21T11:35:30Z</time>
      </trkpt>
      <trkpt lat="43.12141" lon="6.26604">
        <ele>-42.2</ele>
        <time>2021-07-21T11:35:33Z</time>
      </trkpt>
      <trkpt lat="43.1214" lon="6.26604">
        <ele>-43.4</ele>
        <time>2021-07-21T11:35:35Z</time>
      </trkpt>
      <trkpt lat="43.12138" lon="6.266">
        <ele>-44.6</ele>
        <time>2021-07-21T11:35:40Z</time>
      </trkpt>
      <trkpt lat="43.12137" lon="6.26598">
        <ele>-45.4</ele>
        <time>2021-07-21T11:35:42Z</time>
      </trkpt>
      <trkpt lat="43.12137" lon="6.26597">
        <ele>-45.6</ele>
        <time>2021-07-21T11:35:43Z</time>
      </trkpt>
      <trkpt lat="43.12135" lon="6.26592">
        <ele>-46.6</ele>
        <time>2021-07-21T11:35:48Z</time>
      </trkpt>
      <trkpt lat="43.12134" lon="6.26584">
        <ele>-46.8</ele>
        <time>2021-07-21T11:35:56Z</time>
      </trkpt>
      <trkpt lat="43.12132" lon="6.26576">
        <ele>-46.8</ele>
        <time>2021-07-21T11:36:03Z</time>
      </trkpt>
      <trkpt lat="43.12131" lon="6.26574">
        <ele>-46.8</ele>
        <time>2021-07-21T11:36:05Z</time>
      </trkpt>
      <trkpt lat="43.12128" lon="6.26557">
        <ele>-47</ele>
        <time>2021-07-21T11:36:17Z</time>
      </trkpt>
      <trkpt lat="43.12131" lon="6.26538">
        <ele>-46.6</ele>
        <time>2021-07-21T11:36:30Z</time>
      </trkpt>
      <trkpt lat="43.12133" lon="6.26514">
        <ele>-46.8</ele>
        <time>2021-07-21T11:36:45Z</time>
      </trkpt>
      <trkpt lat="43.12132" lon="6.2649">
        <ele>-46.8</ele>
        <time>2021-07-21T11:36:59Z</time>
      </trkpt>
      <trkpt lat="43.12131" lon="6.2647">
        <ele>-46.8</ele>
        <time>2021-07-21T11:37:12Z</time>
      </trkpt>
      <trkpt lat="43.12132" lon="6.26466">
        <ele>-46.8</ele>
        <time>2021-07-21T11:37:14Z</time>
      </trkpt>
      <trkpt lat="43.12135" lon="6.26446">
        <ele>-46.6</ele>
        <time>2021-07-21T11:37:28Z</time>
      </trkpt>
      <trkpt lat="43.12136" lon="6.26424">
        <ele>-46.6</ele>
        <time>2021-07-21T11:37:42Z</time>
      </trkpt>
      <trkpt lat="43.12138" lon="6.2641">
        <ele>-46</ele>
        <time>2021-07-21T11:37:52Z</time>
      </trkpt>
      <trkpt lat="43.12141" lon="6.26391">
        <ele>-45.8</ele>
        <time>2021-07-21T11:38:04Z</time>
      </trkpt>
      <trkpt lat="43.12141" lon="6.26388">
        <ele>-45.6</ele>
        <time>2021-07-21T11:38:06Z</time>
      </trkpt>
      <trkpt lat="43.12143" lon="6.26373">
        <ele>-45.8</ele>
        <time>2021-07-21T11:38:16Z</time>
      </trkpt>
      <trkpt lat="43.12144" lon="6.26353">
        <ele>-45.6</ele>
        <time>2021-07-21T11:38:28Z</time>
      </trkpt>
      <trkpt lat="43.12144" lon="6.2635">
        <ele>-45.8</ele>
        <time>2021-07-21T11:38:30Z</time>
      </trkpt>
      <trkpt lat="43.12143" lon="6.2633">
        <ele>-46.2</ele>
        <time>2021-07-21T11:38:42Z</time>
      </trkpt>
      <trkpt lat="43.12143" lon="6.2631">
        <ele>-46.4</ele>
        <time>2021-07-21T11:38:54Z</time>
      </trkpt>
      <trkpt lat="43.12142" lon="6.26284">
        <ele>-46.2</ele>
        <time>2021-07-21T11:39:09Z</time>
      </trkpt>
      <trkpt lat="43.12142" lon="6.26274">
        <ele>-46.6</ele>
        <time>2021-07-21T11:39:15Z</time>
      </trkpt>
      <trkpt lat="43.12142" lon="6.2626">
        <ele>-46.8</ele>
        <time>2021-07-21T11:39:23Z</time>
      </trkpt>
      <trkpt lat="43.12146" lon="6.26234">
        <ele>-46.4</ele>
        <time>2021-07-21T11:39:38Z</time>
      </trkpt>
      <trkpt lat="43.12146" lon="6.26233">
        <ele>-46.4</ele>
        <time>2021-07-21T11:39:39Z</time>
      </trkpt>
      <trkpt lat="43.12148" lon="6.26225">
        <ele>-46.6</ele>
        <time>2021-07-21T11:39:44Z</time>
      </trkpt>
      <trkpt lat="43.12149" lon="6.26213">
        <ele>-46.2</ele>
        <time>2021-07-21T11:39:51Z</time>
      </trkpt>
      <trkpt lat="43.12148" lon="6.26196">
        <ele>-46.6</ele>
        <time>2021-07-21T11:40:01Z</time>
      </trkpt>
      <trkpt lat="43.12149" lon="6.26175">
        <ele>-46.6</ele>
        <time>2021-07-21T11:40:12Z</time>
      </trkpt>
      <trkpt lat="43.1215" lon="6.26156">
        <ele>-46.4</ele>
        <time>2021-07-21T11:40:23Z</time>
      </trkpt>
      <trkpt lat="43.12151" lon="6.26154">
        <ele>-46.2</ele>
        <time>2021-07-21T11:40:25Z</time>
      </trkpt>
      <trkpt lat="43.12151" lon="6.26151">
        <ele>-46.2</ele>
        <time>2021-07-21T11:40:27Z</time>
      </trkpt>
      <trkpt lat="43.12152" lon="6.2615">
        <ele>-46.2</ele>
        <time>2021-07-21T11:40:28Z</time>
      </trkpt>
      <trkpt lat="43.12154" lon="6.26128">
        <ele>-46</ele>
        <time>2021-07-21T11:40:41Z</time>
      </trkpt>
      <trkpt lat="43.12152" lon="6.26106">
        <ele>-46.2</ele>
        <time>2021-07-21T11:40:54Z</time>
      </trkpt>
      <trkpt lat="43.12146" lon="6.26083">
        <ele>-46</ele>
        <time>2021-07-21T11:41:08Z</time>
      </trkpt>
      <trkpt lat="43.12141" lon="6.26069">
        <ele>-45.6</ele>
        <time>2021-07-21T11:41:16Z</time>
      </trkpt>
      <trkpt lat="43.12138" lon="6.26059">
        <ele>-45.6</ele>
        <time>2021-07-21T11:41:22Z</time>
      </trkpt>
      <trkpt lat="43.12129" lon="6.26042">
        <ele>-45.8</ele>
        <time>2021-07-21T11:41:35Z</time>
      </trkpt>
      <trkpt lat="43.12125" lon="6.26036">
        <ele>-46.6</ele>
        <time>2021-07-21T11:41:40Z</time>
      </trkpt>
      <trkpt lat="43.12119" lon="6.26027">
        <ele>-46.6</ele>
        <time>2021-07-21T11:41:47Z</time>
      </trkpt>
      <trkpt lat="43.12111" lon="6.26006">
        <ele>-46.6</ele>
        <time>2021-07-21T11:41:59Z</time>
      </trkpt>
      <trkpt lat="43.12104" lon="6.25982">
        <ele>-46.6</ele>
        <time>2021-07-21T11:42:14Z</time>
      </trkpt>
      <trkpt lat="43.12105" lon="6.2598">
        <ele>-46.4</ele>
        <time>2021-07-21T11:42:15Z</time>
      </trkpt>
      <trkpt lat="43.12109" lon="6.25974">
        <ele>-46</ele>
        <time>2021-07-21T11:42:23Z</time>
      </trkpt>
      <trkpt lat="43.12117" lon="6.25964">
        <ele>-45.6</ele>
        <time>2021-07-21T11:42:34Z</time>
      </trkpt>
      <trkpt lat="43.12118" lon="6.25962">
        <ele>-46</ele>
        <time>2021-07-21T11:42:35Z</time>
      </trkpt>
      <trkpt lat="43.12122" lon="6.25938">
        <ele>-45.8</ele>
        <time>2021-07-21T11:42:50Z</time>
      </trkpt>
      <trkpt lat="43.1212" lon="6.25913">
        <ele>-45.8</ele>
        <time>2021-07-21T11:43:05Z</time>
      </trkpt>
      <trkpt lat="43.12116" lon="6.25892">
        <ele>-46</ele>
        <time>2021-07-21T11:43:17Z</time>
      </trkpt>
      <trkpt lat="43.12115" lon="6.25887">
        <ele>-46.2</ele>
        <time>2021-07-21T11:43:20Z</time>
      </trkpt>
      <trkpt lat="43.12112" lon="6.25865">
        <ele>-45.8</ele>
        <time>2021-07-21T11:43:31Z</time>
      </trkpt>
      <trkpt lat="43.12107" lon="6.25842">
        <ele>-45.6</ele>
        <time>2021-07-21T11:43:43Z</time>
      </trkpt>
      <trkpt lat="43.12107" lon="6.2584">
        <ele>-45.6</ele>
        <time>2021-07-21T11:43:44Z</time>
      </trkpt>
      <trkpt lat="43.12104" lon="6.25822">
        <ele>-45.8</ele>
        <time>2021-07-21T11:43:55Z</time>
      </trkpt>
      <trkpt lat="43.12101" lon="6.25799">
        <ele>-45.8</ele>
        <time>2021-07-21T11:44:07Z</time>
      </trkpt>
      <trkpt lat="43.12101" lon="6.25787">
        <ele>-45.2</ele>
        <time>2021-07-21T11:44:15Z</time>
      </trkpt>
      <trkpt lat="43.12099" lon="6.25776">
        <ele>-45.8</ele>
        <time>2021-07-21T11:44:21Z</time>
      </trkpt>
      <trkpt lat="43.12099" lon="6.25774">
        <ele>-45.8</ele>
        <time>2021-07-21T11:44:22Z</time>
      </trkpt>
      <trkpt lat="43.12097" lon="6.25765">
        <ele>-46</ele>
        <time>2021-07-21T11:44:27Z</time>
      </trkpt>
      <trkpt lat="43.12091" lon="6.25755">
        <ele>-45.8</ele>
        <time>2021-07-21T11:44:34Z</time>
      </trkpt>
      <trkpt lat="43.12088" lon="6.25745">
        <ele>-46.2</ele>
        <time>2021-07-21T11:44:40Z</time>
      </trkpt>
      <trkpt lat="43.12087" lon="6.25743">
        <ele>-46.2</ele>
        <time>2021-07-21T11:44:41Z</time>
      </trkpt>
      <trkpt lat="43.12082" lon="6.25733">
        <ele>-46.2</ele>
        <time>2021-07-21T11:44:48Z</time>
      </trkpt>
      <trkpt lat="43.12082" lon="6.25717">
        <ele>-46.4</ele>
        <time>2021-07-21T11:44:56Z</time>
      </trkpt>
      <trkpt lat="43.12086" lon="6.25703">
        <ele>-46.2</ele>
        <time>2021-07-21T11:45:04Z</time>
      </trkpt>
      <trkpt lat="43.12091" lon="6.2569">
        <ele>-46</ele>
        <time>2021-07-21T11:45:12Z</time>
      </trkpt>
      <trkpt lat="43.12094" lon="6.25681">
        <ele>-45.2</ele>
        <time>2021-07-21T11:45:18Z</time>
      </trkpt>
      <trkpt lat="43.12099" lon="6.2567">
        <ele>-45.8</ele>
        <time>2021-07-21T11:45:25Z</time>
      </trkpt>
      <trkpt lat="43.12102" lon="6.2566">
        <ele>-45.4</ele>
        <time>2021-07-21T11:45:32Z</time>
      </trkpt>
      <trkpt lat="43.12103" lon="6.25655">
        <ele>-45.6</ele>
        <time>2021-07-21T11:45:38Z</time>
      </trkpt>
      <trkpt lat="43.12102" lon="6.25656">
        <ele>-45.6</ele>
        <time>2021-07-21T11:45:40Z</time>
      </trkpt>
      <trkpt lat="43.12105" lon="6.25654">
        <ele>-45.6</ele>
        <time>2021-07-21T11:46:11Z</time>
      </trkpt>
      <trkpt lat="43.12106" lon="6.25648">
        <ele>-46.4</ele>
        <time>2021-07-21T11:46:17Z</time>
      </trkpt>
      <trkpt lat="43.12106" lon="6.25645">
        <ele>-46.6</ele>
        <time>2021-07-21T11:46:19Z</time>
      </trkpt>
      <trkpt lat="43.12111" lon="6.25628">
        <ele>-46.4</ele>
        <time>2021-07-21T11:46:29Z</time>
      </trkpt>
      <trkpt lat="43.12117" lon="6.25606">
        <ele>-45.8</ele>
        <time>2021-07-21T11:46:43Z</time>
      </trkpt>
      <trkpt lat="43.12125" lon="6.25583">
        <ele>-46.2</ele>
        <time>2021-07-21T11:46:57Z</time>
      </trkpt>
      <trkpt lat="43.12131" lon="6.25567">
        <ele>-46</ele>
        <time>2021-07-21T11:47:06Z</time>
      </trkpt>
      <trkpt lat="43.12134" lon="6.25558">
        <ele>-45.6</ele>
        <time>2021-07-21T11:47:13Z</time>
      </trkpt>
      <trkpt lat="43.12135" lon="6.25555">
        <ele>-45.6</ele>
        <time>2021-07-21T11:47:15Z</time>
      </trkpt>
      <trkpt lat="43.12136" lon="6.25552">
        <ele>-45.6</ele>
        <time>2021-07-21T11:47:17Z</time>
      </trkpt>
      <trkpt lat="43.12136" lon="6.25548">
        <ele>-45.6</ele>
        <time>2021-07-21T11:47:19Z</time>
      </trkpt>
      <trkpt lat="43.12137" lon="6.25547">
        <ele>-45.6</ele>
        <time>2021-07-21T11:47:20Z</time>
      </trkpt>
      <trkpt lat="43.1214" lon="6.25538">
        <ele>-45.2</ele>
        <time>2021-07-21T11:47:25Z</time>
      </trkpt>
      <trkpt lat="43.12143" lon="6.25525">
        <ele>-45.4</ele>
        <time>2021-07-21T11:47:32Z</time>
      </trkpt>
      <trkpt lat="43.12144" lon="6.2551">
        <ele>-45</ele>
        <time>2021-07-21T11:47:42Z</time>
      </trkpt>
      <trkpt lat="43.12151" lon="6.25495">
        <ele>-44.2</ele>
        <time>2021-07-21T11:51:45Z</time>
      </trkpt>
      <trkpt lat="43.12151" lon="6.25495">
        <ele>-45.2</ele>
        <time>2021-07-21T11:51:47Z</time>
      </trkpt>
      <trkpt lat="43.12151" lon="6.25497">
        <ele>-45.2</ele>
        <time>2021-07-21T11:51:50Z</time>
      </trkpt>
      <trkpt lat="43.12151" lon="6.25504">
        <ele>-45.2</ele>
        <time>2021-07-21T11:52:02Z</time>
      </trkpt>
      <trkpt lat="43.12162" lon="6.25506">
        <ele>-45.2</ele>
        <time>2021-07-21T11:52:12Z</time>
      </trkpt>
      <trkpt lat="43.12166" lon="6.25506">
        <ele>-45.2</ele>
        <time>2021-07-21T11:52:16Z</time>
      </trkpt>
      <trkpt lat="43.12176" lon="6.25506">
        <ele>-45</ele>
        <time>2021-07-21T11:52:25Z</time>
      </trkpt>
      <trkpt lat="43.12189" lon="6.25506">
        <ele>-45.2</ele>
        <time>2021-07-21T11:52:40Z</time>
      </trkpt>
      <trkpt lat="43.12189" lon="6.25506">
        <ele>-45</ele>
        <time>2021-07-21T11:52:42Z</time>
      </trkpt>
      <trkpt lat="43.12189" lon="6.25505">
        <ele>-45</ele>
        <time>2021-07-21T11:52:50Z</time>
      </trkpt>
      <trkpt lat="43.12198" lon="6.25504">
        <ele>-45</ele>
        <time>2021-07-21T11:52:59Z</time>
      </trkpt>
      <trkpt lat="43.12213" lon="6.25502">
        <ele>-45.4</ele>
        <time>2021-07-21T11:53:12Z</time>
      </trkpt>
      <trkpt lat="43.12232" lon="6.25498">
        <ele>-45.2</ele>
        <time>2021-07-21T11:53:26Z</time>
      </trkpt>
      <trkpt lat="43.12251" lon="6.25498">
        <ele>-45</ele>
        <time>2021-07-21T11:53:40Z</time>
      </trkpt>
      <trkpt lat="43.12265" lon="6.25494">
        <ele>-45.4</ele>
        <time>2021-07-21T11:53:51Z</time>
      </trkpt>
      <trkpt lat="43.12276" lon="6.25494">
        <ele>-45.4</ele>
        <time>2021-07-21T11:53:59Z</time>
      </trkpt>
      <trkpt lat="43.12288" lon="6.25494">
        <ele>-44.8</ele>
        <time>2021-07-21T11:54:08Z</time>
      </trkpt>
      <trkpt lat="43.12299" lon="6.25492">
        <ele>-44.8</ele>
        <time>2021-07-21T11:54:16Z</time>
      </trkpt>
      <trkpt lat="43.12313" lon="6.25492">
        <ele>-45</ele>
        <time>2021-07-21T11:54:27Z</time>
      </trkpt>
      <trkpt lat="43.1232" lon="6.25491">
        <ele>-44.6</ele>
        <time>2021-07-21T11:54:33Z</time>
      </trkpt>
      <trkpt lat="43.12324" lon="6.25491">
        <ele>-44.6</ele>
        <time>2021-07-21T11:54:36Z</time>
      </trkpt>
      <trkpt lat="43.12338" lon="6.25487">
        <ele>-44.6</ele>
        <time>2021-07-21T11:54:47Z</time>
      </trkpt>
      <trkpt lat="43.12348" lon="6.25484">
        <ele>-44.6</ele>
        <time>2021-07-21T11:54:55Z</time>
      </trkpt>
      <trkpt lat="43.12361" lon="6.25476">
        <ele>-44.4</ele>
        <time>2021-07-21T11:55:05Z</time>
      </trkpt>
      <trkpt lat="43.12365" lon="6.25475">
        <ele>-44.4</ele>
        <time>2021-07-21T11:55:09Z</time>
      </trkpt>
      <trkpt lat="43.12371" lon="6.25474">
        <ele>-44.4</ele>
        <time>2021-07-21T11:55:13Z</time>
      </trkpt>
      <trkpt lat="43.12375" lon="6.25473">
        <ele>-44.2</ele>
        <time>2021-07-21T11:55:16Z</time>
      </trkpt>
      <trkpt lat="43.1238" lon="6.25473">
        <ele>-44.2</ele>
        <time>2021-07-21T11:55:20Z</time>
      </trkpt>
      <trkpt lat="43.1239" lon="6.25471">
        <ele>-44.2</ele>
        <time>2021-07-21T11:55:27Z</time>
      </trkpt>
      <trkpt lat="43.12402" lon="6.2547">
        <ele>-44</ele>
        <time>2021-07-21T11:55:37Z</time>
      </trkpt>
      <trkpt lat="43.12416" lon="6.2547">
        <ele>-43.6</ele>
        <time>2021-07-21T11:55:47Z</time>
      </trkpt>
      <trkpt lat="43.12424" lon="6.2547">
        <ele>-43.2</ele>
        <time>2021-07-21T11:55:52Z</time>
      </trkpt>
      <trkpt lat="43.12431" lon="6.25468">
        <ele>-43.2</ele>
        <time>2021-07-21T11:55:57Z</time>
      </trkpt>
      <trkpt lat="43.12445" lon="6.25467">
        <ele>-42.8</ele>
        <time>2021-07-21T11:56:07Z</time>
      </trkpt>
      <trkpt lat="43.12455" lon="6.25466">
        <ele>-43</ele>
        <time>2021-07-21T11:56:16Z</time>
      </trkpt>
      <trkpt lat="43.12457" lon="6.25468">
        <ele>-43</ele>
        <time>2021-07-21T11:56:18Z</time>
      </trkpt>
      <trkpt lat="43.12458" lon="6.25473">
        <ele>-42.6</ele>
        <time>2021-07-21T11:56:22Z</time>
      </trkpt>
      <trkpt lat="43.1246" lon="6.25475">
        <ele>-42.4</ele>
        <time>2021-07-21T11:56:24Z</time>
      </trkpt>
      <trkpt lat="43.12462" lon="6.25477">
        <ele>-42.2</ele>
        <time>2021-07-21T11:56:26Z</time>
      </trkpt>
      <trkpt lat="43.12465" lon="6.25477">
        <ele>-42</ele>
        <time>2021-07-21T11:56:28Z</time>
      </trkpt>
      <trkpt lat="43.12474" lon="6.25478">
        <ele>-41.8</ele>
        <time>2021-07-21T11:56:35Z</time>
      </trkpt>
      <trkpt lat="43.12483" lon="6.2548">
        <ele>-41.4</ele>
        <time>2021-07-21T11:56:42Z</time>
      </trkpt>
      <trkpt lat="43.12484" lon="6.2548">
        <ele>-41.2</ele>
        <time>2021-07-21T11:56:43Z</time>
      </trkpt>
      <trkpt lat="43.1249" lon="6.25483">
        <ele>-40.8</ele>
        <time>2021-07-21T11:56:48Z</time>
      </trkpt>
      <trkpt lat="43.1249" lon="6.25485">
        <ele>-40.8</ele>
        <time>2021-07-21T11:56:49Z</time>
      </trkpt>
      <trkpt lat="43.12491" lon="6.25489">
        <ele>-40.2</ele>
        <time>2021-07-21T11:56:53Z</time>
      </trkpt>
      <trkpt lat="43.12492" lon="6.25492">
        <ele>-39.8</ele>
        <time>2021-07-21T11:56:55Z</time>
      </trkpt>
      <trkpt lat="43.12492" lon="6.25507">
        <ele>-39</ele>
        <time>2021-07-21T11:57:04Z</time>
      </trkpt>
      <trkpt lat="43.12488" lon="6.2553">
        <ele>-38.6</ele>
        <time>2021-07-21T11:57:17Z</time>
      </trkpt>
      <trkpt lat="43.12485" lon="6.2555">
        <ele>-38.2</ele>
        <time>2021-07-21T11:57:28Z</time>
      </trkpt>
      <trkpt lat="43.12484" lon="6.25557">
        <ele>-38.6</ele>
        <time>2021-07-21T11:57:34Z</time>
      </trkpt>
      <trkpt lat="43.12483" lon="6.2556">
        <ele>-39</ele>
        <time>2021-07-21T11:57:37Z</time>
      </trkpt>
      <trkpt lat="43.12483" lon="6.25568">
        <ele>-38.8</ele>
        <time>2021-07-21T11:57:43Z</time>
      </trkpt>
      <trkpt lat="43.12483" lon="6.25568">
        <ele>-38.8</ele>
        <time>2021-07-21T11:57:44Z</time>
      </trkpt>
      <trkpt lat="43.12485" lon="6.25571">
        <ele>-38.6</ele>
        <time>2021-07-21T11:57:46Z</time>
      </trkpt>
      <trkpt lat="43.12489" lon="6.25574">
        <ele>-38.6</ele>
        <time>2021-07-21T11:57:50Z</time>
      </trkpt>
      <trkpt lat="43.1249" lon="6.25583">
        <ele>-38.4</ele>
        <time>2021-07-21T11:57:57Z</time>
      </trkpt>
      <trkpt lat="43.1249" lon="6.25592">
        <ele>-38.2</ele>
        <time>2021-07-21T11:58:03Z</time>
      </trkpt>
      <trkpt lat="43.1249" lon="6.25593">
        <ele>-38</ele>
        <time>2021-07-21T11:58:04Z</time>
      </trkpt>
      <trkpt lat="43.1249" lon="6.25595">
        <ele>-38</ele>
        <time>2021-07-21T11:58:05Z</time>
      </trkpt>
    </trkseg>
  </trk>
</gpx>